[[{"header":{"parameterUnit":"m.s-1","parameterCategory":1,"la1":30.6,"la2":29.2853,"lo1":-89.7004,"lo2":-87.6739,"dy":0.0162,"dx":0.0183,"nx":112,"ny":82,"refTime":"2024-03-16T06:00:00:Z","depth":0,"parameterNumber":2,"parameterNumberName":"U-component_of_WINDS"},"data":[0.0,0.0,0.0,0.0,0.0,0.0,0.0,0.0,0.0,0.0,0.0,0.0,0.0,0.0,0.0,0.0,0.0,0.0,0.0,0.0,0.0,0.0,0.0,0.0,0.0,0.0,0.0,0.0,0.0,0.0,0.0,0.0,0.0,0.0,0.0,0.0,0.0,0.0,0.0,0.0,0.0,0.0,0.0,0.0,0.0,0.0,0.0,0.0,0.0,0.0,0.0,0.0,0.0,0.0,0.0,0.0,0.0,0.0,0.0,0.0,0.0,0.0,0.0,0.0,0.0,0.0,0.0,0.0,0.0,0.0,0.0,0.0,0.0,0.0,0.0,0.0,0.0,0.0,0.0,0.0,0.0,0.0,0.0,0.0,0.0,0.0,0.0,0.0,0.0,0.0,-1.4569,-1.4569,-1.4371,-1.4266,-1.4551,-1.4062,-1.4014,-1.4527,0.0,0.0,0.0,0.0,0.0,0.0,0.0,0.0,0.0,0.0,0.0,0.0,0.0,0.0,0.0,0.0,0.0,0.0,0.0,0.0,0.0,0.0,0.0,0.0,0.0,0.0,0.0,0.0,0.0,0.0,0.0,0.0,0.0,0.0,0.0,0.0,0.0,0.0,0.0,0.0,0.0,0.0,0.0,0.0,0.0,0.0,0.0,0.0,0.0,0.0,0.0,0.0,0.0,0.0,0.0,0.0,0.0,0.0,0.0,0.0,0.0,0.0,0.0,0.0,0.0,0.0,0.0,0.0,0.0,0.0,0.0,0.0,0.0,0.0,0.0,0.0,0.0,0.0,0.0,0.0,0.0,0.0,0.0,0.0,0.0,0.0,0.0,0.0,0.0,0.0,0.0,0.0,0.0,0.0,0.0,0.0,0.0,0.0,0.0,0.0,0.0,0.0,0.0,0.0,-1.4569,-1.4569,-1.4522,-1.4561,-1.4633,-1.4514,-1.4506,-1.4554,0.0,0.0,0.0,0.0,0.0,0.0,0.0,0.0,0.0,0.0,0.0,0.0,0.0,0.0,0.0,0.0,0.0,0.0,0.0,0.0,0.0,0.0,0.0,0.0,0.0,0.0,0.0,0.0,0.0,0.0,0.0,0.0,0.0,0.0,0.0,0.0,0.0,0.0,0.0,0.0,0.0,0.0,0.0,0.0,0.0,0.0,0.0,0.0,0.0,0.0,0.0,0.0,0.0,0.0,0.0,0.0,0.0,0.0,0.0,0.0,0.0,0.0,0.0,0.0,0.0,0.0,0.0,0.0,0.0,0.0,0.0,0.0,0.0,0.0,0.0,0.0,0.0,0.0,0.0,0.0,0.0,0.0,0.0,0.0,0.0,0.0,0.0,0.0,0.0,0.0,0.0,0.0,0.0,0.0,0.0,0.0,0.0,0.0,0.0,0.0,0.0,0.0,0.0,-1.4569,-1.4569,-1.4569,-1.4569,-1.4569,-1.4569,-1.4569,-1.4569,-1.4569,-1.449,0.0,0.0,0.0,0.0,0.0,0.0,0.0,0.0,0.0,0.0,0.0,0.0,0.0,0.0,0.0,0.0,0.0,0.0,0.0,0.0,0.0,0.0,0.0,0.0,0.0,0.0,0.0,0.0,0.0,0.0,0.0,0.0,0.0,0.0,0.0,0.0,0.0,0.0,0.0,0.0,0.0,0.0,0.0,0.0,0.0,0.0,0.0,0.0,0.0,0.0,0.0,0.0,0.0,0.0,0.0,0.0,0.0,0.0,0.0,0.0,0.0,0.0,0.0,0.0,0.0,0.0,0.0,0.0,0.0,0.0,0.0,0.0,0.0,0.0,0.0,0.0,0.0,0.0,0.0,0.0,0.0,0.0,0.0,0.0,0.0,0.0,0.0,0.0,0.0,0.0,0.0,0.0,0.0,0.0,0.0,0.0,0.0,0.0,0.0,0.0,0.0,0.0,-1.4569,-1.4569,-1.4569,-1.4569,-1.4569,-1.4569,-1.4569,-1.4569,-1.4569,-1.4569,0.0,0.0,0.0,0.0,0.0,0.0,0.0,0.0,0.0,0.0,0.0,0.0,0.0,0.0,0.0,0.0,0.0,0.0,0.0,0.0,0.0,0.0,0.0,0.0,0.0,0.0,0.0,0.0,0.0,0.0,0.0,0.0,0.0,0.0,0.0,0.0,0.0,0.0,0.0,0.0,0.0,0.0,0.0,0.0,0.0,0.0,0.0,0.0,0.0,0.0,0.0,0.0,0.0,0.0,0.0,0.0,0.0,0.0,0.0,0.0,0.0,0.0,0.0,0.0,0.0,0.0,0.0,0.0,0.0,0.0,0.0,0.0,0.0,0.0,0.0,0.0,0.0,0.0,0.0,0.0,0.0,0.0,0.0,0.0,0.0,0.0,0.0,0.0,0.0,0.0,0.0,0.0,0.0,0.0,0.0,0.0,0.0,0.0,0.0,0.0,0.0,0.0,-1.4569,-1.4569,-1.4569,-1.4569,-1.4569,-1.4569,-1.4569,-1.4569,-1.4569,-1.4569,0.0,0.0,0.0,0.0,0.0,0.0,0.0,0.0,0.0,0.0,0.0,0.0,0.0,0.0,0.0,0.0,0.0,0.0,0.0,0.0,0.0,0.0,0.0,0.0,0.0,0.0,0.0,0.0,0.0,0.0,0.0,0.0,0.0,0.0,0.0,0.0,0.0,0.0,0.0,0.0,0.0,0.0,0.0,0.0,0.0,0.0,0.0,0.0,0.0,0.0,0.0,0.0,0.0,0.0,0.0,0.0,0.0,0.0,0.0,0.0,0.0,0.0,0.0,0.0,0.0,0.0,0.0,0.0,0.0,0.0,0.0,0.0,0.0,0.0,0.0,0.0,0.0,0.0,0.0,0.0,0.0,0.0,0.0,0.0,0.0,0.0,0.0,0.0,0.0,0.0,0.0,0.0,0.0,0.0,0.0,0.0,0.0,0.0,0.0,0.0,0.0,0.0,-1.4569,-1.4569,-1.4569,-1.4569,-1.4569,-1.4569,-1.4569,-1.4489,-1.4129,0.0,0.0,0.0,0.0,0.0,0.0,0.0,0.0,0.0,0.0,0.0,0.0,0.0,0.0,0.0,0.0,0.0,0.0,0.0,0.0,0.0,0.0,0.0,0.0,0.0,0.0,0.0,0.0,0.0,0.0,0.0,0.0,0.0,0.0,0.0,0.0,0.0,0.0,0.0,0.0,0.0,0.0,0.0,0.0,0.0,0.0,0.0,0.0,0.0,0.0,0.0,0.0,0.0,0.0,0.0,0.0,0.0,0.0,0.0,0.0,0.0,0.0,0.0,0.0,0.0,0.0,0.0,0.0,0.0,0.0,0.0,0.0,0.0,0.0,0.0,0.0,0.0,0.0,0.0,0.0,0.0,0.0,0.0,0.0,0.0,0.0,0.0,0.0,0.0,0.0,0.0,0.0,0.0,0.0,0.0,0.0,0.0,0.0,0.0,0.0,0.0,0.0,-1.4129,-1.4201,-1.4274,-1.4057,-1.4201,-1.4346,-1.4346,-1.4497,-1.4346,-1.3833,0.0,0.0,0.0,0.0,0.0,0.0,0.0,0.0,0.0,0.0,0.0,0.0,0.0,0.0,0.0,0.0,0.0,0.0,0.0,0.0,0.0,0.0,0.0,0.0,0.0,0.0,0.0,0.0,0.0,0.0,0.0,0.0,0.0,0.0,0.0,0.0,0.0,0.0,0.0,0.0,0.0,0.0,0.0,0.0,0.0,0.0,0.0,0.0,0.0,0.0,0.0,0.0,0.0,0.0,0.0,0.0,0.0,0.0,0.0,0.0,0.0,0.0,0.0,0.0,0.0,0.0,0.0,0.0,0.0,0.0,0.0,0.0,0.0,0.0,0.0,0.0,0.0,0.0,0.0,0.0,0.0,0.0,0.0,0.0,0.0,0.0,0.0,0.0,0.0,0.0,0.0,0.0,0.0,0.0,0.0,0.0,0.0,0.0,0.0,0.0,0.0,0.0,-1.3039,-1.3404,-1.3542,-1.2966,-1.3397,-1.376,-1.376,-1.4274,-1.4346,0.0,0.0,0.0,0.0,0.0,0.0,0.0,0.0,0.0,0.0,0.0,0.0,0.0,0.0,0.0,0.0,0.0,0.0,0.0,0.0,0.0,0.0,0.0,0.0,0.0,0.0,0.0,0.0,0.0,0.0,0.0,0.0,0.0,0.0,0.0,0.0,0.0,0.0,0.0,0.0,0.0,0.0,0.0,0.0,0.0,0.0,0.0,0.0,0.0,0.0,0.0,0.0,0.0,0.0,0.0,0.0,0.0,0.0,0.0,0.0,0.0,0.0,0.0,0.0,0.0,0.0,0.0,0.0,0.0,0.0,0.0,0.0,0.0,0.0,0.0,0.0,0.0,0.0,0.0,0.0,0.0,0.0,0.0,0.0,0.0,0.0,0.0,0.0,0.0,0.0,0.0,0.0,0.0,0.0,0.0,0.0,0.0,0.0,0.0,0.0,0.0,0.0,0.0,-1.2893,-1.2806,-1.2799,-1.29,-1.3039,-1.3032,-1.2792,-1.3397,-1.3185,-1.1768,0.0,0.0,0.0,0.0,0.0,0.0,0.0,0.0,0.0,0.0,0.0,0.0,0.0,0.0,0.0,0.0,0.0,0.0,0.0,0.0,0.0,0.0,0.0,0.0,0.0,0.0,0.0,0.0,0.0,0.0,0.0,0.0,0.0,0.0,0.0,0.0,0.0,0.0,0.0,0.0,0.0,0.0,0.0,0.0,0.0,0.0,0.0,0.0,0.0,0.0,0.0,0.0,0.0,0.0,0.0,0.0,0.0,0.0,0.0,0.0,0.0,0.0,0.0,0.0,0.0,0.0,0.0,0.0,0.0,0.0,0.0,0.0,0.0,0.0,0.0,0.0,0.0,0.0,0.0,0.0,0.0,0.0,0.0,0.0,0.0,0.0,0.0,0.0,0.0,0.0,0.0,0.0,0.0,0.0,0.0,0.0,0.0,0.0,0.0,0.0,0.0,0.0,-1.1706,-1.1694,-1.1694,-1.1706,-1.1929,-1.1929,-1.1687,-1.2358,-1.2218,-1.0887,0.0,0.0,0.0,0.0,0.0,0.0,0.0,0.0,0.0,0.0,0.0,0.0,0.0,0.0,0.0,0.0,0.0,0.0,0.0,0.0,0.0,0.0,0.0,0.0,0.0,0.0,0.0,0.0,0.0,0.0,0.0,0.0,0.0,0.0,0.0,0.0,0.0,0.0,0.0,0.0,0.0,0.0,0.0,0.0,0.0,0.0,0.0,0.0,0.0,0.0,0.0,0.0,0.0,0.0,0.0,0.0,0.0,0.0,0.0,0.0,0.0,0.0,0.0,0.0,0.0,0.0,0.0,0.0,0.0,0.0,0.0,0.0,0.0,0.0,0.0,0.0,0.0,0.0,0.0,0.0,0.0,0.0,0.0,0.0,0.0,0.0,0.0,0.0,0.0,0.0,0.0,0.0,0.0,0.0,0.0,0.0,0.0,0.0,0.0,0.0,0.0,0.0,-1.0067,-1.0368,-1.0443,-0.9916,-1.0368,-1.0663,-1.0663,-1.1242,-1.1316,-1.0663,0.0,0.0,0.0,0.0,0.0,0.0,0.0,0.0,0.0,0.0,0.0,0.0,0.0,0.0,0.0,0.0,0.0,0.0,0.0,0.0,0.0,0.0,0.0,0.0,0.0,0.0,0.0,0.0,0.0,0.0,0.0,0.0,0.0,0.0,0.0,0.0,0.0,0.0,0.0,0.0,0.0,0.0,0.0,0.0,0.0,0.0,0.0,0.0,0.0,0.0,0.0,0.0,0.0,0.0,0.0,0.0,0.0,0.0,0.0,0.0,-1.4515,-1.4515,0.0,0.0,0.0,0.0,0.0,0.0,0.0,0.0,0.0,0.0,0.0,0.0,0.0,0.0,0.0,0.0,0.0,0.0,0.0,0.0,0.0,0.0,0.0,0.0,0.0,0.0,0.0,0.0,0.0,0.0,0.0,0.0,0.0,0.0,0.0,0.0,0.0,0.0,0.0,0.0,-0.9916,-0.9771,-0.9695,-0.9846,-0.9992,-0.9997,-0.962,-1.0288,-1.0282,-0.9231,-0.976,0.0,0.0,0.0,0.0,0.0,0.0,0.0,0.0,0.0,0.0,0.0,0.0,0.0,0.0,0.0,0.0,0.0,0.0,0.0,0.0,0.0,0.0,0.0,0.0,0.0,0.0,0.0,0.0,0.0,0.0,0.0,0.0,0.0,0.0,0.0,0.0,0.0,0.0,0.0,0.0,0.0,0.0,0.0,0.0,0.0,0.0,0.0,0.0,0.0,0.0,0.0,0.0,0.0,0.0,0.0,0.0,0.0,0.0,0.0,-1.4515,-1.4515,0.0,0.0,0.0,0.0,0.0,0.0,0.0,0.0,0.0,0.0,0.0,0.0,0.0,0.0,0.0,0.0,0.0,0.0,0.0,0.0,0.0,0.0,0.0,0.0,0.0,0.0,0.0,0.0,0.0,0.0,0.0,0.0,0.0,0.0,0.0,0.0,0.0,0.0,0.0,0.0,-0.9311,-0.916,-0.9089,-0.9311,-0.9311,-0.9236,-0.9013,-0.9387,-0.9382,-0.878,-0.9084,0.0,0.0,0.0,0.0,0.0,0.0,0.0,0.0,0.0,0.0,0.0,0.0,0.0,0.0,0.0,0.0,0.0,0.0,0.0,0.0,0.0,0.0,0.0,0.0,0.0,0.0,0.0,0.0,0.0,0.0,0.0,0.0,0.0,0.0,0.0,0.0,0.0,0.0,0.0,0.0,0.0,0.0,0.0,0.0,0.0,0.0,0.0,0.0,0.0,0.0,0.0,0.0,0.0,-1.4515,-1.4515,-1.4515,-1.4515,-1.4515,-1.4515,-1.4515,-1.4515,-1.4515,-1.4455,0.0,0.0,0.0,0.0,0.0,0.0,0.0,0.0,0.0,0.0,0.0,0.0,0.0,0.0,0.0,0.0,0.0,0.0,0.0,0.0,0.0,0.0,-1.2508,0.0,-1.2639,-1.275,-1.2395,0.0,0.0,0.0,0.0,0.0,0.0,0.0,0.0,0.0,0.0,0.0,-0.8703,-0.8703,-0.8703,-0.8703,-0.8703,-0.8703,-0.8703,-0.8703,-0.8703,-0.8703,-0.8703,-0.8703,0.0,0.0,0.0,0.0,0.0,0.0,0.0,0.0,0.0,0.0,0.0,0.0,0.0,0.0,0.0,0.0,0.0,0.0,0.0,0.0,0.0,0.0,0.0,0.0,0.0,0.0,0.0,0.0,0.0,0.0,0.0,0.0,-1.6182,-1.6187,0.0,0.0,0.0,0.0,0.0,0.0,0.0,0.0,0.0,0.0,0.0,0.0,0.0,-1.4616,-1.4715,-1.4556,-1.4506,-1.4515,-1.4515,-1.4515,-1.4515,-1.4515,-1.4515,-1.4515,-1.4515,0.0,-1.4455,-1.4198,0.0,0.0,0.0,0.0,0.0,0.0,0.0,0.0,0.0,0.0,0.0,0.0,0.0,0.0,0.0,0.0,0.0,0.0,0.0,0.0,0.0,0.0,-1.2527,-1.2527,-1.2709,-1.2943,-1.2943,-1.305,-1.2962,-1.1944,-1.2526,-1.2599,0.0,0.0,0.0,0.0,0.0,0.0,-0.8703,-0.8703,-0.8703,-0.8703,-0.8703,-0.8703,-0.8703,-0.8703,-0.8703,-0.8703,-0.8703,-0.8703,-0.8703,-0.8551,0.0,0.0,0.0,0.0,0.0,0.0,0.0,0.0,0.0,0.0,0.0,0.0,0.0,0.0,0.0,0.0,0.0,0.0,0.0,0.0,0.0,0.0,0.0,0.0,0.0,0.0,0.0,0.0,0.0,-1.5857,-1.6093,-1.5806,-1.5652,-1.5498,0.0,0.0,0.0,0.0,0.0,0.0,0.0,0.0,0.0,-1.4843,-1.4625,-1.4506,-1.4616,-1.4506,-1.4515,-1.4515,-1.4515,-1.4634,-1.4845,-1.4845,-1.4964,-1.5175,-1.5175,-1.5051,-1.4756,-1.4248,-1.3769,-1.3407,0.0,0.0,0.0,0.0,-1.2683,-1.2621,-1.2621,-1.2695,-1.2861,-1.2861,0.0,0.0,0.0,0.0,0.0,0.0,0.0,-1.2967,0.0,0.0,-1.2935,-1.2797,-1.3045,-1.3136,-1.2697,-1.2697,-1.2587,-1.2131,-1.2077,-1.1706,-1.0143,-0.9836,0.0,0.0,0.0,-0.8703,-0.8703,-0.8703,-0.8703,-0.8703,-0.8703,-0.8703,-0.8703,-0.8703,-0.8703,-0.8703,-0.8703,-0.8627,-0.8551,-0.8475,-0.8403,0.0,0.0,0.0,0.0,0.0,0.0,0.0,0.0,0.0,0.0,0.0,0.0,0.0,0.0,0.0,0.0,0.0,0.0,0.0,0.0,0.0,0.0,0.0,0.0,0.0,0.0,0.0,0.0,-1.5816,-1.5941,-1.542,-1.5313,-1.5254,0.0,0.0,0.0,0.0,0.0,0.0,-1.4666,-1.4565,-1.4565,-1.4666,-1.4565,-1.4561,-1.4662,-1.4662,-1.4717,-1.4808,-1.4808,-1.4964,-1.5249,-1.5123,-1.5287,-1.556,-1.5431,-1.5171,-1.4794,-1.4346,-1.381,-1.326,-1.3198,-1.301,-1.2885,-1.2885,-1.2885,-1.2885,-1.2885,-1.2996,-1.3219,-1.3219,-1.3317,-1.3398,-1.3398,0.0,0.0,0.0,0.0,-1.3096,-1.2665,-1.2815,-1.2984,-1.2621,-1.2732,-1.2746,-1.215,-1.2003,-1.2003,-1.2003,-1.1484,-1.0812,-1.0067,-0.9387,0.0,-0.8699,-0.8703,-0.8703,-0.8703,-0.8703,-0.8703,-0.8703,-0.8703,-0.8703,-0.8703,-0.8703,-0.8703,-0.8703,-0.8627,-0.8551,-0.8403,-0.8327,-0.8178,-0.8102,0.0,0.0,0.0,0.0,0.0,0.0,0.0,0.0,0.0,0.0,0.0,0.0,0.0,0.0,0.0,0.0,0.0,0.0,0.0,0.0,0.0,0.0,0.0,0.0,0.0,0.0,0.0,0.0,0.0,-1.5264,-1.541,0.0,0.0,0.0,0.0,-1.4506,-1.4606,-1.4666,-1.4506,-1.4515,-1.4515,-1.4506,-1.4515,-1.4689,-1.5065,-1.5065,-1.5258,-1.5634,-1.5634,-1.5643,-1.5661,-1.5265,-1.508,-1.5106,-1.4789,-1.4461,-1.4181,-1.4459,-1.4385,-1.4008,-1.3661,-1.3529,-1.3529,-1.3529,-1.3529,-1.3529,-1.3529,-1.3545,-1.3553,-1.3553,-1.3656,-1.3731,-1.3546,-1.376,0.0,0.0,-1.3499,-1.3447,-1.2196,-1.213,-1.2131,-1.1391,-1.1174,-1.1186,-1.1186,-1.1186,-1.1186,-1.1186,-1.1111,-1.0812,-1.0067,0.0,-0.9614,-0.878,-0.8703,-0.8703,-0.8703,-0.8703,-0.8703,-0.8703,-0.8703,-0.8703,-0.8703,-0.8703,-0.8703,-0.8703,-0.8551,-0.8403,-0.8403,-0.803,-0.7876,-0.8102,-0.7876,0.0,0.0,0.0,0.0,0.0,0.0,0.0,0.0,0.0,0.0,0.0,0.0,0.0,0.0,0.0,0.0,0.0,0.0,0.0,0.0,0.0,0.0,0.0,0.0,0.0,0.0,0.0,0.0,-1.5088,-1.5069,0.0,-1.4715,-1.4715,-1.4666,-1.4506,-1.4565,-1.4565,-1.4515,-1.4753,-1.4891,-1.4891,-1.5139,-1.5331,-1.5478,-1.5478,-1.5551,-1.5689,-1.5689,-1.5835,-1.6092,-1.5677,-1.561,-1.5857,-1.5515,-1.5162,-1.4816,-1.4947,-1.4536,-1.3784,-1.3651,-1.3584,-1.3584,-1.3584,-1.3584,-1.3584,-1.3584,-1.3735,-1.3889,-1.3909,-1.3916,-1.3945,-1.3603,-1.3613,-1.368,-1.3497,-1.3107,-1.2725,-1.2244,-1.1851,-1.1484,-1.1186,-1.1111,-1.0962,-1.0443,-1.0293,-1.0143,-0.9685,-0.9986,-1.0218,-0.9916,-0.9463,-0.9008,-0.878,-0.8703,-0.8703,-0.8703,-0.8703,-0.8703,-0.8703,-0.8703,-0.8627,-0.8551,-0.8475,-0.8479,-0.8327,-0.8255,-0.8178,-0.803,-0.7876,-0.7799,-0.7714,-0.7642,-0.7642,0.0,0.0,0.0,0.0,0.0,0.0,0.0,0.0,0.0,0.0,0.0,0.0,0.0,0.0,0.0,0.0,0.0,0.0,0.0,0.0,0.0,0.0,0.0,0.0,0.0,-1.5517,-1.501,-1.5254,-1.4902,-1.4606,-1.4606,-1.4606,-1.4616,-1.4506,-1.4634,-1.4708,-1.4708,-1.5084,-1.5294,-1.5294,-1.5551,-1.5762,-1.59,-1.59,-1.5964,-1.6101,-1.6101,-1.6248,-1.6446,-1.5943,-1.5869,-1.6123,-1.5621,-1.5275,-1.4991,-1.4991,-1.4566,-1.3942,-1.3942,-1.3942,-1.3942,-1.3942,-1.3942,-1.3942,-1.3942,-1.4024,-1.419,-1.4132,-1.4057,-1.3928,-1.3564,-1.3492,-1.3492,-1.3492,-1.3119,-1.2599,-1.2003,-1.1484,-1.0962,-1.0432,-1.0282,-1.0132,-0.9614,-0.9463,-0.9311,-0.8703,-0.9084,-0.9463,-0.9463,-0.9084,-0.8703,-0.8703,-0.8703,-0.8703,-0.8703,-0.8703,-0.8703,-0.8627,-0.8627,-0.8551,-0.8327,-0.8327,-0.8327,-0.8106,-0.8102,-0.803,-0.7804,-0.7723,-0.7642,-0.7484,-0.7484,-0.7484,-0.7484,0.0,0.0,0.0,0.0,0.0,0.0,0.0,0.0,0.0,0.0,0.0,0.0,0.0,0.0,0.0,0.0,0.0,0.0,0.0,0.0,0.0,0.0,0.0,-1.6645,-1.5979,-1.5526,-1.5816,-1.5079,-1.4506,-1.4506,-1.4524,-1.4533,-1.4533,-1.49,-1.512,-1.512,-1.5496,-1.5707,-1.5707,-1.5716,-1.5927,-1.6331,-1.6331,-1.6532,-1.6908,-1.6908,-1.6908,-1.6839,-1.6123,-1.5762,-1.5762,-1.4919,-1.4569,-1.4569,-1.4569,-1.4569,-1.4569,-1.4569,-1.4569,-1.4569,-1.4569,-1.4569,-1.4569,-1.4569,-1.4497,-1.4353,-1.4129,-1.3928,-1.379,-1.3572,-1.3492,-1.3492,-1.3492,-1.3492,-1.3046,-1.1484,-1.1037,-1.0663,-0.9079,-0.8703,-0.8703,-0.8703,-0.8703,-0.8627,-0.8403,-0.8551,-0.8703,-0.8703,-0.8703,-0.8703,-0.8703,-0.8703,0.0,-0.8703,-0.8703,-0.8627,-0.8403,-0.8403,-0.8327,-0.8102,-0.825,-0.8327,-0.8102,-0.8102,-0.803,-0.7804,-0.7642,-0.7484,-0.7484,-0.7484,-0.7484,-0.7484,0.0,0.0,0.0,0.0,0.0,0.0,0.0,0.0,0.0,0.0,0.0,0.0,0.0,0.0,0.0,0.0,0.0,0.0,0.0,0.0,0.0,-1.7156,-1.6982,-1.6733,-1.6197,-1.57,-1.54,-1.5177,-1.501,-1.501,-1.4935,-1.4937,-1.4937,-1.5304,-1.5533,-1.5533,-1.5918,-1.6147,-1.6147,-1.6422,-1.6624,-1.6743,-1.6743,-1.666,-1.6482,-1.6482,-1.6342,-1.6123,-1.5621,-1.5338,-1.5338,-1.4848,-1.4569,-1.4569,-1.4569,-1.4569,-1.4569,-1.4569,-1.4569,-1.4569,-1.4569,-1.4569,-1.4569,-1.4497,-1.4425,-1.4361,-1.4,-1.3863,-1.379,-1.3572,-1.3492,-1.3492,-1.3492,-1.2673,-1.1632,-1.1186,-1.0207,-0.9231,-0.8775,-0.8703,-0.8703,-0.8703,-0.8551,-0.8479,-0.8403,-0.8327,-0.8255,-0.8255,-0.8255,-0.8255,-0.8255,-0.8255,-0.8255,-0.8255,-0.8255,-0.8327,-0.8403,-0.825,-0.8178,-0.8102,-0.803,-0.7872,-0.7714,-0.7638,-0.7638,-0.7565,-0.7561,-0.7484,-0.7484,-0.7484,-0.7484,0.0,0.0,0.0,0.0,0.0,0.0,0.0,0.0,0.0,0.0,0.0,0.0,0.0,0.0,0.0,0.0,0.0,0.0,0.0,0.0,0.0,0.0,-1.7466,-1.7368,-1.6877,-1.6436,-1.6046,-1.568,-1.54,-1.5185,-1.5138,-1.5139,-1.5166,-1.5331,-1.5725,-1.5955,-1.5955,-1.634,-1.656,-1.656,-1.6789,-1.6908,-1.6908,-1.6908,-1.6769,-1.656,-1.6572,-1.6439,-1.6225,-1.5811,-1.5667,-1.5667,-1.5225,-1.507,-1.507,-1.507,-1.507,0.0,0.0,0.0,0.0,0.0,-1.4569,-1.4569,-1.4433,-1.4353,-1.4209,-1.3935,-1.3717,-1.3645,-1.3572,-1.3492,-1.3492,-1.3492,-1.282,-1.1929,-1.126,-1.0432,-0.9533,-0.8851,-0.8703,-0.8703,-0.8703,-0.8551,-0.8403,-0.8255,-0.8102,0.0,-0.7872,-0.8025,-0.8102,-0.8102,-0.8102,-0.8102,-0.8102,-0.8102,-0.8102,-0.8178,-0.803,-0.7953,-0.7872,-0.7799,0.0,0.0,0.0,-0.7565,-0.7484,-0.7484,0.0,0.0,0.0,-0.7484,-0.7484,0.0,0.0,0.0,-0.7053,-0.6896,0.0,0.0,0.0,0.0,0.0,0.0,0.0,0.0,0.0,0.0,0.0,0.0,0.0,0.0,0.0,0.0,-1.7601,-1.7211,-1.7078,-1.6853,-1.657,-1.6312,-1.5788,-1.5398,-1.5303,-1.53,-1.544,-1.5854,-1.6147,-1.6386,-1.6386,-1.6716,0.0,0.0,0.0,-1.6908,-1.6908,-1.6908,-1.6927,-1.6903,-1.6821,-1.6863,-1.6843,-1.6455,-1.6234,-1.6234,-1.5835,-1.5674,-1.5674,-1.5674,-1.5674,-1.561,-1.4998,-1.4688,-1.4752,-1.4648,-1.4624,-1.4624,-1.4441,0.0,0.0,-1.3863,-1.3645,-1.3492,-1.3492,-1.3492,-1.3492,-1.3492,-1.3419,-1.3046,-1.1484,-1.1037,-1.0588,-0.9079,-0.8703,-0.8703,-0.8703,-0.8551,-0.8327,-0.8102,-0.7953,-0.7723,-0.7561,-0.7791,-0.8025,-0.8025,-0.8025,-0.8025,-0.8025,-0.8025,-0.7949,-0.7804,0.0,0.0,-0.7561,-0.7646,-0.7723,-0.7484,-0.7642,-0.7723,-0.7484,-0.7484,-0.7484,-0.7484,-0.7484,-0.7484,-0.7484,-0.7257,-0.7099,-0.6865,-0.6865,-0.671,0.0,0.0,0.0,0.0,0.0,0.0,0.0,0.0,0.0,0.0,0.0,0.0,0.0,0.0,0.0,-1.7346,-1.739,-1.7278,-1.7267,-1.7211,-1.6864,-1.6046,-1.6547,-1.6755,-1.6357,-1.6563,-1.6749,-1.6825,-1.6831,-1.6789,-1.6789,-1.6862,-1.6908,-1.6908,-1.6908,-1.6908,-1.6908,-1.6908,-1.6924,-1.6875,-1.6584,0.0,-1.6405,-1.6024,-1.5835,-1.5835,-1.5758,-1.5674,-1.5674,-1.5674,-1.5674,-1.5666,-1.5531,-1.5475,-1.5443,-1.5181,-1.5004,-1.4809,-1.4302,-1.4,-1.379,-1.3637,-1.3499,-1.3492,-1.3492,-1.3492,0.0,-1.3492,-1.3046,-1.2305,-1.1335,-1.0588,-0.9916,-0.8927,-0.8703,-0.8703,-0.8703,-0.8551,-0.8327,-0.8102,-0.7953,-0.7723,-0.7561,-0.7561,-0.7638,-0.7638,-0.7638,-0.7638,-0.7638,-0.7638,-0.7642,-0.7804,-0.7642,-0.7642,-0.7723,-0.7642,-0.7561,-0.7484,-0.7561,-0.7561,-0.7484,-0.7484,-0.7484,-0.7484,-0.7484,-0.7407,-0.7257,-0.7022,-0.6868,-0.6637,-0.6637,-0.617,0.0,0.0,0.0,0.0,0.0,0.0,0.0,0.0,0.0,0.0,0.0,-1.5736,-1.5981,0.0,-1.7075,-1.7413,-1.739,-1.7278,-1.7278,-1.7278,-1.7043,-1.6332,-1.6863,-1.7179,-1.691,-1.7027,-1.7177,-1.7379,-1.7055,-1.6908,-1.6908,-1.6908,-1.6908,-1.6908,-1.6908,-1.6908,-1.6908,-1.7101,-1.7089,-1.6918,-1.6862,-1.6759,-1.6558,-1.6284,-1.6206,-1.6206,-1.6206,-1.6206,-1.6206,-1.6206,-1.6206,-1.6206,-1.6206,-1.5991,-1.5658,-1.5491,-1.536,-1.5109,-1.4705,-1.4395,-1.4044,-1.3815,-1.3631,-1.3492,-1.3492,-1.3492,-1.3492,-1.3492,-1.29,-1.2077,-1.1335,-1.0513,-0.969,-0.8851,-0.8703,-0.8703,-0.8551,-0.8403,-0.8178,-0.7953,-0.7799,-0.7642,-0.7484,-0.7484,-0.7484,-0.7484,-0.7484,-0.7484,-0.7484,-0.7484,-0.7561,-0.7642,-0.7561,-0.7561,-0.7642,-0.7561,-0.7484,-0.7484,-0.7484,-0.7484,-0.7484,-0.7484,-0.7484,-0.7484,-0.7407,-0.7334,-0.7184,-0.6475,-0.6086,-0.5931,-0.5467,-0.5157,0.0,0.0,0.0,0.0,0.0,0.0,0.0,-1.5768,-1.5379,-1.5198,-1.5795,-1.631,-1.635,-1.7014,-1.7599,-1.7744,-1.7545,-1.739,-1.7445,-1.739,-1.7155,-1.6853,-1.7164,-1.7392,-1.7338,-1.7412,-1.7586,-1.8007,-1.751,-1.7245,-1.7245,-1.7107,-1.7038,-1.7038,-1.6978,-1.6908,-1.6908,-1.7293,-1.7388,-1.7115,-1.7277,-1.7257,-1.7025,-1.6758,-1.673,-1.673,-1.673,-1.673,-1.673,-1.673,-1.673,-1.673,-1.673,-1.6389,-1.5872,-1.5801,-1.5638,-1.5405,-1.518,-1.4751,-1.4297,-1.4079,-1.3806,-1.3579,-1.3514,-1.3492,-1.3492,-1.3492,-1.29,-1.2077,-1.1335,-1.0513,-0.969,-0.8856,-0.8627,-0.8551,-0.8403,-0.8178,-0.803,-0.7804,-0.7646,-0.7561,-0.7484,-0.7484,-0.7484,-0.7484,-0.7484,-0.7484,-0.7484,-0.7484,-0.7484,-0.7484,-0.7484,-0.7484,-0.7484,-0.7484,-0.7484,-0.7484,-0.7484,-0.7484,-0.7407,-0.7407,-0.7407,-0.7403,-0.7253,-0.7022,-0.6791,-0.5774,-0.5229,-0.4993,-0.3986,-0.391,-1.7199,-1.7253,-1.728,-1.7225,-1.6905,-1.6582,0.0,-1.5856,-1.5198,-1.5424,-1.5368,-1.551,-1.6394,-1.6825,-1.7292,-1.7961,-1.7822,-1.7767,-1.7975,-1.7601,-1.7379,-1.7545,-1.7761,-1.7938,-1.7882,-1.8239,-1.8633,-1.9069,-1.8633,-1.8307,-1.8307,-1.7833,-1.7638,-1.7638,-1.7176,-1.6908,-1.6908,-1.7293,-1.7688,-1.798,-1.756,-1.7559,-1.7811,-1.7041,-1.673,-1.673,-1.673,-1.673,-1.673,-1.673,-1.673,-1.673,-1.673,-1.6683,-1.6571,-1.6261,-1.5913,-1.5564,-1.5179,-1.4824,-1.4447,-1.4077,-1.396,-1.3872,-1.3587,-1.3492,-1.3492,-1.3492,-1.29,-1.2077,-1.1335,-1.0513,-0.962,-0.8632,-0.8403,-0.8403,-0.8178,-0.8102,-0.803,-0.7804,-0.7804,-0.7723,-0.7561,-0.7484,-0.7484,-0.7484,-0.7484,-0.7484,-0.7484,-0.7484,-0.7484,-0.7484,-0.7484,-0.7484,-0.7484,-0.7484,-0.7484,-0.7484,-0.7484,-0.7407,-0.7257,-0.7257,-0.718,-0.6942,-0.6942,-0.6472,-0.5538,-0.5384,-0.4838,-0.3908,-0.3056,-0.2666,-1.7199,-1.7253,-1.7295,-1.7419,-1.7295,-1.7128,-1.7253,-1.6637,-1.6064,-1.6238,-1.6243,-1.642,-1.7059,-1.7433,-1.7778,-1.8321,-1.8139,-1.7931,-1.7865,-1.7822,-1.7767,-1.7711,-1.779,-1.7983,-1.8358,-1.8501,-1.8762,-1.9267,-1.8767,-1.8509,-1.8509,-1.8307,-1.8172,-1.8172,-1.7638,-1.751,-1.7842,-1.7819,-1.7862,-1.7794,-1.7735,-1.7557,-1.7221,-1.6894,-1.673,-1.673,-1.673,-1.673,-1.673,-1.673,-1.673,-1.673,-1.673,-1.673,-1.6632,-1.6401,-1.611,-1.5858,-1.5544,-1.513,-1.4721,-1.4589,-1.4289,-1.396,-1.3821,-1.3645,-1.3419,-1.29,-1.2231,-1.1409,-1.0588,-0.9836,-0.9084,-0.8703,-0.8551,-0.8475,-0.8178,-0.8102,-0.8025,-0.7718,-0.7642,-0.7565,-0.7484,-0.7484,-0.7484,-0.7484,-0.7484,-0.7484,-0.7484,-0.7484,-0.7484,-0.7484,-0.7484,-0.7484,-0.7484,-0.7484,-0.7484,-0.7484,-0.7411,-0.7257,-0.7184,-0.7099,-0.671,-0.6163,-0.6009,-0.5538,-0.4611,-0.3988,-0.3443,-0.3056,-0.2196,-0.1805,-1.7253,-1.7295,-1.7323,-1.7475,-1.7447,-1.7474,-1.7638,-1.7199,-1.6752,-1.6892,-1.7057,-1.729,-1.7642,-1.8061,-1.8452,-1.8667,-1.8452,-1.8193,-1.8084,-1.8084,-1.803,-1.7975,-1.7865,-1.8036,-1.8581,-1.8609,-1.8829,-1.9414,-1.9114,-1.8911,-1.8911,-1.8777,-1.87,-1.87,-1.8172,-1.8104,-1.8509,-1.8419,-1.8175,-1.7924,-1.7979,-1.7708,-1.7057,-1.6812,-1.673,-1.673,-1.673,-1.673,-1.673,-1.673,-1.673,-1.673,-1.673,-1.6675,-1.6506,-1.6261,-1.616,-1.6162,-1.5906,-1.5509,-1.5139,-1.497,-1.4626,-1.4216,-1.4033,-1.3664,-1.316,-1.2472,-1.1558,-1.0663,-1.0067,-0.9311,-0.8699,-0.8627,-0.8551,-0.8403,-0.8102,-0.7949,-0.7868,-0.7561,-0.7484,-0.7484,-0.7484,-0.7484,-0.7484,-0.7484,-0.7484,-0.7484,-0.7484,-0.7484,-0.7484,-0.7484,-0.7484,-0.7484,-0.7484,-0.7484,-0.7407,-0.7407,-0.7253,-0.7103,-0.7026,-0.6633,-0.6163,-0.5467,-0.5076,-0.4453,-0.3679,-0.2899,-0.2354,-0.2119,-0.1571,-0.1335,-1.7404,-1.7419,-1.7475,-1.7516,-1.7516,-1.7529,-1.7679,-1.724,-1.6879,-1.7157,-1.7453,-1.7736,-1.7834,-1.857,-1.9133,-1.8987,-1.8774,-1.8667,-1.8946,-1.8464,-1.8193,-1.856,-1.8302,-1.8168,-1.8384,-1.8603,-1.9039,-1.9794,-2.0017,-2.0074,-2.0074,-1.9584,-1.9309,-1.9309,-1.8767,-1.8499,-1.8509,-1.8767,-1.8839,-1.8848,-1.8301,-1.7959,-1.7951,-1.7057,-1.673,-1.673,-1.673,-1.673,-1.673,-1.673,-1.673,-1.673,-1.673,-1.6524,-1.6142,-1.5751,-1.5959,-1.6394,-1.617,-1.5906,-1.5584,-1.5035,-1.4933,-1.4794,-1.4172,-1.3431,-1.2748,-1.2385,-1.1186,-0.9922,-0.9922,-0.9311,-0.8627,-0.8479,-0.8255,-0.8025,-0.788,-0.7642,-0.7484,-0.7484,-0.7484,-0.7484,-0.7484,-0.7484,-0.7484,-0.7484,-0.7484,-0.7484,-0.7484,-0.7484,-0.7484,-0.7484,-0.7484,-0.7484,-0.7484,-0.7334,-0.7184,-0.7184,-0.7022,-0.6788,-0.6637,-0.5777,-0.5231,-0.5004,-0.4222,-0.3443,-0.251,-0.2511,-0.2119,-0.1335,-0.1335,-0.1335,-1.7404,-1.7404,-1.7419,-1.7475,-1.7516,-1.757,-1.7788,-1.7625,-1.7461,-1.7625,-1.81,-1.8516,-1.8621,-1.9304,-1.9862,-1.9811,-1.9512,-1.9239,-1.9133,-1.8881,-1.8667,-1.8614,-1.8302,-1.8251,-1.874,-1.8907,-1.9127,-1.9511,-1.9867,-2.0085,-2.0085,-1.9944,-1.9868,-1.9868,-1.9309,-1.9177,-1.9528,-1.9182,-1.8903,-1.858,-1.7567,-1.7139,-1.7139,-1.6812,-1.673,-1.673,-1.673,-1.673,-1.673,-1.673,-1.6595,-1.6381,-1.6381,-1.6095,-1.5639,-1.5482,-1.5474,-1.5487,-1.5185,-1.4946,-1.4844,-1.4662,-1.4479,-1.4267,-1.4048,-1.3679,-1.3107,-1.2479,-1.1929,-1.126,-1.0143,-0.9609,-0.915,-0.8551,-0.8255,-0.803,-0.788,-0.7723,-0.7642,-0.7561,-0.7484,-0.7484,-0.7484,-0.7484,-0.7484,-0.7484,-0.7484,-0.7484,-0.7484,-0.7484,-0.7484,-0.7484,-0.7407,-0.7334,-0.7334,-0.7099,-0.7022,-0.7022,-0.624,-0.5774,-0.5777,-0.4841,-0.3988,-0.3368,-0.3056,-0.251,-0.1728,-0.1728,-0.1571,-0.1335,-0.1335,-0.1335,-1.7528,-1.7528,-1.7597,-1.757,-1.7611,-1.7693,-1.7882,-1.7842,-1.7801,-1.7882,-1.8575,-1.9152,-1.9035,-1.9804,-2.0372,-2.0233,-1.9978,-1.9708,-1.9396,-1.9251,-1.9093,-1.8774,-1.856,-1.8518,-1.8827,-1.9043,-1.9219,-1.9432,-1.996,-2.0205,-2.0074,-2.0085,-2.0085,-2.0085,-1.9802,-1.9726,-2.0085,-1.9452,-1.8753,-1.804,-1.7477,-1.6976,-1.673,-1.6603,-1.6547,-1.654,-1.6412,-1.6357,-1.6357,-1.6357,-1.6222,-1.6015,-1.6015,-1.5654,-1.5202,-1.5126,-1.4896,-1.46,-1.461,-1.4613,-1.4621,-1.4543,-1.4326,-1.4136,-1.4018,-1.3686,-1.3121,-1.2479,-1.1855,-1.1186,-1.0143,-0.9533,-0.9074,-0.8551,-0.8178,-0.7953,-0.7804,-0.7723,-0.7642,-0.7561,-0.7484,-0.7484,-0.7484,-0.7484,-0.7484,-0.7484,-0.7484,-0.7484,-0.7484,-0.7407,-0.7411,-0.7411,-0.7176,-0.7099,-0.7099,-0.663,-0.6318,-0.6318,-0.5306,-0.4761,-0.4761,-0.383,-0.3054,-0.2511,-0.2198,-0.1806,-0.1335,-0.1335,-0.1335,-0.1335,-0.1335,-0.1335,-1.7801,-1.7801,-1.7842,-1.772,-1.7801,-1.7882,-1.7882,-1.7882,-1.7882,-1.7882,-1.8832,-1.9512,-1.9093,-2.0004,-2.067,-2.0321,-2.0233,-2.008,-1.972,-1.9617,-1.946,-1.9093,-1.8987,-1.8881,-1.8614,-1.9054,-1.9412,-1.962,-2.0189,-2.0431,-2.014,-2.0085,-2.0085,-2.0085,-2.0085,-2.0085,-2.0085,-1.9404,-1.8537,-1.7398,-1.7809,-1.7513,-1.6667,-1.6333,-1.6174,-1.6158,-1.5825,-1.5674,-1.5674,-1.5674,-1.5666,-1.565,-1.565,-1.5368,-1.4844,-1.462,-1.4273,-1.388,-1.4493,-1.4702,-1.4709,-1.4491,-1.4421,-1.4362,-1.4048,-1.3417,-1.2741,-1.2378,-1.1186,-0.9992,-0.9916,-0.916,-0.8403,-0.8403,-0.8106,-0.7804,-0.7804,-0.7642,-0.7484,-0.7484,-0.7484,-0.7484,-0.7484,-0.7484,-0.7484,-0.7484,-0.7484,-0.7484,-0.7484,-0.7334,-0.7184,-0.7184,-0.6945,-0.6784,-0.6784,-0.5848,-0.5229,-0.5229,-0.4297,-0.3752,-0.3752,-0.2899,-0.2433,-0.2433,-0.1728,-0.1335,-0.1335,-0.1335,-0.1335,-0.1335,-0.1335,-0.1335,-1.7788,-1.772,-1.772,-1.772,-1.772,-1.776,-1.7882,-1.7882,-1.7882,-1.7882,-1.8479,-1.9144,-1.9458,-2.0086,-2.0704,-2.1051,-2.0858,-2.061,-2.051,-1.9952,-1.9552,-1.946,-1.8987,-1.8774,-1.8893,-1.9562,-1.9994,-1.9983,-2.0057,-2.0087,-2.0129,-2.0085,-2.0085,-2.0085,-2.0085,-2.0085,-2.0085,-1.9424,-1.8663,-1.7779,-1.7364,-1.676,-1.5944,-1.5856,-1.5817,-1.5801,-1.5713,-1.5674,-1.5674,-1.5674,-1.5531,-1.5308,-1.5308,-1.4938,-1.4333,-1.426,-1.3923,-1.3594,-1.3756,-1.3807,-1.3815,-1.374,-1.374,-1.3726,-1.3645,-1.3469,-1.3153,-1.2472,-1.1922,-1.1168,-0.9976,-0.9301,-0.8703,-0.8102,-0.7799,-0.7565,-0.7565,-0.7561,-0.7484,-0.7484,-0.7484,-0.7484,-0.7484,-0.7484,-0.7484,-0.7484,-0.7484,-0.7484,-0.7484,-0.7334,-0.7184,-0.7184,-0.6318,-0.5693,-0.5693,-0.4761,-0.4219,-0.4219,-0.3365,-0.2821,-0.2821,-0.2041,-0.157,-0.157,-0.1414,-0.1335,-0.1335,-0.1335,-0.1335,-0.1335,-0.1335,-0.1335,-1.8121,-1.7909,-1.7801,-1.7801,-1.7801,-1.7842,-1.8003,-1.8043,-1.8043,-1.8163,-1.8563,-1.9042,-1.9355,-2.0016,-2.0603,-2.0928,-2.1054,-2.1006,-2.0795,-2.0409,-2.0055,-1.9862,-1.9408,-1.9081,-1.9251,-1.9689,-2.006,-2.01,-2.0442,-2.0545,-2.0313,-2.0324,-2.027,-2.0085,-2.0085,-2.0009,-1.9726,-1.954,-1.898,-1.8029,-1.7512,-1.6868,-1.6209,-1.5683,-1.5459,-1.5451,-1.5292,-1.5221,-1.5221,-1.5221,-1.5118,-1.4951,-1.4877,-1.4533,-1.4057,-1.3992,-1.3783,-1.3492,-1.3492,-1.3492,-1.3492,-1.3492,-1.3492,-1.3492,-1.3492,-1.3273,-1.29,-1.2452,-1.162,-1.0708,-0.982,-0.9074,-0.8327,-0.7876,-0.7642,-0.7484,-0.7484,-0.7484,-0.7484,-0.7484,-0.7484,-0.7484,-0.7484,-0.7407,-0.733,-0.733,-0.733,-0.7096,-0.6707,-0.6865,-0.6865,-0.6398,-0.5619,-0.4999,-0.4686,-0.3754,-0.321,-0.321,-0.2431,-0.1962,-0.1962,-0.1571,-0.1335,-0.1335,-0.1335,-0.1335,-0.1335,-0.1335,-0.1335,-0.1335,-0.1335,-0.1335,-1.8693,-1.8319,-1.8043,-1.8043,-1.8003,-1.8043,-1.8202,-1.8242,-1.8282,-1.8478,-1.8779,-1.9045,-1.9128,-1.9825,-2.0397,-2.0514,-2.0975,-2.1232,-2.0944,-2.0845,-2.066,-2.0321,-1.9914,-1.9668,-1.9617,-1.9853,-2.0025,-2.0134,-2.1136,-2.1411,-2.0635,-2.0571,-2.0388,-2.0074,-2.0085,-1.9868,-1.9441,-1.9714,-1.9282,-1.8085,-1.7789,-1.723,-1.6514,-1.5543,-1.511,-1.5094,-1.4776,-1.4569,-1.4569,-1.4569,-1.4569,-1.4569,-1.4425,-1.4281,-1.4065,-1.3863,-1.3645,-1.3492,-1.3492,-1.3492,-1.3492,-1.3492,-1.3492,-1.3499,-1.3346,-1.282,-1.2224,-1.2003,-1.0795,-0.9523,-0.9372,-0.8551,-0.7727,-0.7727,-0.7642,-0.7484,-0.7484,-0.7484,-0.7484,-0.7484,-0.7484,-0.7484,-0.7403,-0.7253,-0.718,-0.718,-0.7022,-0.6553,-0.5699,-0.624,-0.6318,-0.5229,-0.4844,-0.438,-0.3677,-0.2821,-0.2353,-0.2353,-0.1649,-0.1335,-0.1335,-0.1335,-0.1335,-0.1335,-0.1335,-0.1335,-0.1335,-0.1335,-0.1335,-0.1335,-0.1257,-0.1178,-1.9184,-1.8884,-1.863,-1.863,-1.8542,-1.84,-1.8439,-1.8439,-1.8478,-1.8478,-1.8562,-1.8747,-1.9265,-1.9475,-1.9878,-2.068,-2.0942,-2.1068,-2.1245,-2.1006,-2.0746,-2.0709,-2.0321,-1.9978,-1.9604,-2.0402,-2.0819,-2.0541,-2.1524,-2.1675,-2.0635,-2.0324,-2.014,-2.0085,-2.0085,-2.0074,-1.9944,-1.9927,-1.912,-1.7517,-1.7376,-1.6468,-1.4961,-1.476,-1.4736,-1.4728,-1.4593,0.0,-1.4569,-1.4569,-1.4569,-1.4569,-1.4425,-1.4281,-1.4065,-1.3863,-1.3645,-1.3492,-1.3492,-1.3492,-1.3492,-1.3492,-1.3492,-1.3346,-1.2673,-1.2285,-1.1755,-1.0421,-0.9599,-0.8927,-0.8255,-0.7872,-0.7561,-0.7561,-0.7561,-0.7484,-0.7484,-0.7484,-0.7484,-0.7257,-0.7257,-0.718,-0.7019,-0.6942,-0.6942,-0.6942,-0.6942,-0.6549,-0.5461,-0.5461,-0.5229,-0.4377,-0.3522,-0.2899,-0.2743,-0.1962,-0.1492,-0.1492,-0.1414,-0.1335,-0.1335,-0.1335,-0.1335,-0.1335,-0.1335,-0.1335,-0.1335,-0.1335,-0.1335,-0.1257,-0.0864,-0.0707,-1.963,-1.9339,-1.9043,-1.9043,-1.8983,-1.8921,-1.886,-1.886,-1.886,-1.8798,-1.8736,-1.8744,-1.9041,-1.9246,-1.9642,-2.0464,-2.0761,-2.1052,-2.1534,-2.1313,-2.1104,-2.1104,-2.0759,-2.0359,-1.9965,-2.0445,-2.0723,-2.0586,-2.1033,-2.1132,-2.0944,-2.0399,-2.0085,-2.0085,-2.0085,-2.0085,-2.0085,-1.9961,-1.9261,-1.7959,-1.7394,-1.6484,-1.5196,-1.4776,-1.4569,-1.4569,-1.4569,-1.4569,-1.4569,-1.4497,-1.4497,-1.4497,-1.4217,-1.4,-1.3928,-1.3717,-1.3572,-1.3492,-1.3492,-1.3492,-1.3419,-1.3046,-1.29,-1.2746,-1.2285,-1.1459,-1.0565,-0.9669,-0.8922,-0.8255,-0.788,-0.7642,-0.7484,-0.7484,-0.7484,-0.7484,-0.7484,-0.7407,-0.7334,-0.718,-0.7103,-0.7022,-0.6942,-0.6788,-0.6685,-0.6598,-0.6201,-0.5518,-0.4525,-0.4067,-0.3703,-0.3285,-0.2823,-0.2353,-0.1884,-0.1492,-0.1335,-0.1335,-0.1335,-0.1335,-0.1335,-0.1335,-0.1178,-0.0943,-0.0943,-0.0943,-0.0943,-0.0943,-0.11,-0.1257,-0.11,0.0236,-2.0054,-1.9758,-1.9398,-1.9398,-1.9325,-1.9266,-1.9207,-1.9221,-1.9184,-1.9139,-1.8988,-1.886,-1.886,-1.912,-1.9512,-2.0063,-2.0536,-2.1042,-2.1578,-2.1568,-2.1458,-2.1361,-2.1055,-2.061,-2.0131,-2.026,-2.0404,-2.0406,-2.0487,-2.063,-2.0944,-2.0399,-2.0085,-2.0085,-2.0085,-2.0085,-2.0085,-1.9944,-1.9462,-1.8509,-1.7522,-1.6636,-1.5762,-1.4991,-1.4569,-1.4569,-1.4569,-1.4569,-1.4569,-1.4425,-1.4353,-1.4281,-1.3935,-1.3797,-1.3797,-1.3572,-1.3492,-1.3492,-1.3492,-1.3492,-1.3419,-1.2673,-1.2372,-1.2144,-1.1607,-1.0565,-0.9372,-0.9074,-0.8403,-0.7723,-0.7723,-0.7642,-0.7484,-0.7484,-0.7484,-0.7407,-0.7407,-0.7253,-0.7103,-0.7103,-0.6945,-0.6788,-0.6788,-0.6641,-0.643,-0.6044,-0.5423,-0.459,-0.3448,-0.285,-0.2495,-0.2236,-0.2261,-0.1962,-0.1336,-0.1335,-0.1335,-0.1335,-0.1335,-0.1257,-0.1178,-0.1257,-0.11,-0.0786,-0.055,-0.0471,-0.0471,-0.0471,-0.0629,-0.1021,-0.0314,0.1807,-2.061,-2.0204,-1.9752,-1.9752,-1.9442,-1.9139,-1.925,-1.9213,-1.9139,-1.9265,-1.9176,-1.9064,-1.9064,-1.9107,-1.9253,-1.9701,-2.0286,-2.0826,-2.1212,-2.1555,-2.165,-2.1286,-2.0993,-2.051,-1.9708,-2.0113,-2.0232,-1.9908,-2.0499,-2.068,-2.0248,-2.0151,-2.0085,-2.0085,-2.0085,-2.0085,-2.0085,-1.9944,-1.9462,-1.8509,-1.7522,-1.6636,-1.5762,-1.4991,-1.4569,-1.4569,-1.4569,-1.4497,0.0,-1.4433,-1.4281,-1.4129,-1.3863,-1.3797,-1.3797,-1.3572,-1.3492,-1.3492,-1.3492,-1.3492,-1.3492,-1.32,-1.2586,-1.1749,-1.0265,-0.9448,-0.8927,-0.8178,-0.7718,-0.7561,-0.7561,-0.7484,-0.7484,-0.7484,-0.7334,-0.7257,-0.7257,-0.7099,-0.6865,-0.6718,-0.6641,-0.6563,-0.6412,-0.6338,-0.6053,-0.522,-0.5049,-0.441,-0.2709,-0.2704,-0.2487,-0.1394,-0.1377,-0.1414,-0.1335,-0.1335,-0.1335,-0.1335,-0.1335,-0.11,-0.0707,-0.11,-0.1257,-0.1257,-0.0471,-0.0079,-0.0079,-0.0079,-0.0079,-0.0079,0.2987,0.4648,-2.1071,-2.0877,-2.0697,-2.0597,-2.0496,-2.0311,-1.9889,-1.9854,-1.9782,-1.9435,-1.9339,-1.9302,-1.9302,-1.9265,-1.9395,-1.9918,-2.005,-2.0272,-2.0798,-2.1198,-2.1255,-2.082,-2.1,-2.0759,-1.9811,-1.9895,-1.9904,-1.9535,-1.9878,-1.9961,-1.9503,-2.0068,-2.0324,-2.0074,-2.0085,-2.0085,-2.0085,-1.9587,-1.891,-1.8031,-1.6854,-1.5806,-1.5086,-1.4567,-1.4323,-1.4331,-1.4474,-1.4497,0.0,-1.4281,-1.4065,-1.3928,-1.3717,-1.3645,-1.3645,-1.3499,-1.3492,-1.3499,-1.3346,-1.3346,-1.32,-1.2526,-1.1694,-1.0783,-1.019,-0.9523,-0.8775,-0.7868,-0.7561,-0.7484,-0.7484,-0.7407,-0.7253,-0.7173,-0.7096,-0.7022,-0.7022,-0.6868,-0.6714,-0.6637,-0.6486,-0.6412,-0.6338,-0.5867,-0.5558,-0.5568,-0.4502,-0.3511,-0.2926,-0.2277,-0.1575,-0.0873,-0.1129,-0.1306,-0.1306,-0.1013,-0.0864,-0.0864,-0.1178,-0.1178,-0.1021,-0.0707,-0.055,-0.055,-0.0157,-0.0,-0.0,0.2042,0.2987,0.2987,0.3376,0.4006,-2.1309,-2.1246,-2.1151,-2.1055,-2.1039,-2.0909,-2.0376,-2.0258,-2.012,-1.969,-1.9487,-1.9413,-1.9413,-1.9376,-1.9486,-1.9903,-1.9943,-2.0073,-2.0479,-2.0869,-2.0971,-2.0685,-2.0941,-2.0806,-1.9927,-1.9695,-1.945,-1.9242,-1.9412,-1.9401,-1.9062,-1.975,-2.002,-1.9714,-1.9714,-1.9714,-1.9714,-1.905,-1.8365,-1.7634,-1.6324,-1.5292,-1.4641,-1.4177,-1.3958,-1.3921,-1.4261,-1.4269,0.0,-1.4027,-1.3855,-1.3717,-1.3572,-1.3492,-1.3492,-1.3492,-1.3492,-1.3492,-1.3273,-1.32,-1.3032,-1.1898,-1.1107,-1.0404,-0.9883,-0.9165,-0.8394,-0.771,-0.7484,-0.7407,-0.7407,-0.7253,-0.7099,-0.6942,-0.6865,-0.6788,-0.6788,-0.6637,-0.6486,-0.6486,-0.6412,-0.6183,-0.5948,-0.5395,-0.5002,-0.491,-0.3783,-0.2807,-0.2573,-0.1731,-0.0977,-0.0783,-0.0949,-0.1115,-0.1272,-0.099,-0.0694,-0.0466,-0.0699,-0.0936,-0.0942,-0.0314,-0.0,-0.0,-0.0,0.0471,0.1492,0.3855,0.4964,0.4961,0.3763,0.3839,-2.1309,-2.1103,-2.0893,-2.0893,-2.0681,-2.0514,-2.0597,-2.0227,-1.9949,-2.0065,-1.9726,-1.9413,-1.9413,-1.9413,-1.9413,-1.9428,-1.9958,-2.0347,-2.0231,-2.0544,-2.0841,-2.0966,-2.0763,-2.0435,-2.0042,-1.9396,-1.8999,-1.8999,-1.9242,-1.9259,-1.8896,-1.9109,-1.9081,-1.8709,-1.8698,-1.8698,-1.8698,-1.8384,-1.7873,-1.7306,-1.6182,-1.5366,-1.4641,-1.3916,-1.3534,-1.3447,-1.3691,-1.3631,0.0,-1.3655,-1.3645,-1.3492,-1.3492,-1.3492,-1.3492,-1.3492,-1.3492,-1.3492,-1.3273,-1.32,-1.299,-1.1585,-1.1253,-1.1057,-0.9033,-0.801,-0.7484,-0.7484,-0.7334,-0.7184,-0.7184,-0.7022,-0.6942,-0.6865,-0.6714,-0.6641,-0.6641,-0.6412,-0.6338,-0.6338,-0.6338,-0.6025,-0.516,-0.5004,-0.4385,-0.2712,-0.2695,-0.2503,-0.1291,-0.108,-0.108,-0.108,-0.083,-0.0781,-0.1238,-0.1313,-0.0959,-0.0076,-0.0,-0.0,-0.0,-0.0,-0.0,-0.0,-0.0,0.1649,0.4964,0.4967,0.4961,0.5031,0.5021,0.5018,-2.1764,-2.1735,-2.1628,-2.1479,-2.1293,-2.1023,-2.0613,-2.0512,-2.0395,-1.996,-2.001,-1.9995,-1.9726,-1.9632,-1.9596,-1.9538,-1.9627,-1.9685,-1.9648,-2.0089,-2.0275,-1.9936,-1.9836,-1.9846,-2.013,-1.9552,-1.9105,-1.8999,-1.8887,-1.8709,-1.838,-1.8261,-1.8311,-1.8665,-1.8577,-1.8588,-1.8588,-1.7892,-1.7483,-1.7293,-1.5655,-1.4793,-1.4558,-1.3636,-1.3186,-1.3006,-1.3357,-1.3301,-1.2983,-1.3319,-1.3312,-1.3184,-1.3259,-1.3273,-1.3273,-1.3119,-1.3119,-1.2973,-1.2224,-1.1872,-1.1611,-1.0442,-0.9558,-0.8898,-0.8255,-0.8199,-0.8169,-0.7488,-0.7176,-0.6945,-0.6795,-0.6718,-0.6637,-0.649,-0.6412,-0.6412,-0.6412,-0.6338,-0.6338,-0.6338,-0.5789,-0.5476,-0.5799,-0.4621,-0.3936,-0.4938,-0.321,-0.143,-0.0475,-0.0337,-0.0539,-0.1079,-0.0544,-0.0276,-0.0426,-0.0433,-0.0295,-0.0,-0.0,-0.0,-0.0,-0.0,0.1099,0.3381,0.3381,0.3377,0.3292,0.4474,0.5023,0.5021,0.5018,0.5018,-2.2101,-2.2073,-2.2044,-2.184,-2.1721,-2.1524,-2.1134,-2.0958,-2.0763,-2.0326,-2.0189,-2.01,-1.9904,-1.9797,-1.9726,-1.9756,-1.9632,-1.9523,-1.9487,-1.9729,-1.9822,-1.9658,-1.9799,-1.9913,-2.0119,-1.9685,-1.9263,-1.8999,-1.8614,-1.829,-1.8084,-1.7767,-1.771,-1.806,-1.7975,-1.7916,-1.7916,-1.7334,-1.6884,-1.6639,-1.5183,-1.435,-1.4001,-1.3149,-1.2632,-1.2457,-1.2802,-1.2816,0.0,-1.2831,-1.2895,-1.284,-1.2834,-1.2842,-1.2842,-1.2621,-1.24,-1.2114,-1.1389,-1.091,-1.039,-0.9243,-0.8131,-0.7276,-0.7345,-0.7582,-0.7757,-0.7159,-0.6896,-0.6791,-0.6641,-0.6563,-0.649,-0.6338,-0.6257,-0.618,-0.618,-0.6103,-0.6028,-0.6106,-0.5634,-0.5323,-0.5335,-0.4003,-0.3256,-0.4029,-0.2495,-0.1077,-0.0482,-0.0204,-0.0202,-0.0607,-0.0,0.0407,0.0414,0.014,-0.0,-0.0,-0.0,-0.0,-0.0,0.1178,0.2907,0.4967,0.4964,0.4557,0.36,0.4698,0.5249,0.5249,0.5249,0.5249,0.0,-2.222,-2.2192,-2.2056,-2.2027,-2.1998,-2.1998,-2.1491,0.0,-2.1023,-2.0413,-1.994,-2.0025,-1.9919,-1.9848,-1.997,-1.9884,-1.9741,-1.9611,-1.9501,-1.9589,-2.0055,-2.037,-2.0433,-2.0027,-1.9811,-1.946,-1.9052,-1.8518,-1.8139,-1.8084,-1.7656,-1.7267,-1.7011,-1.7011,-1.6955,-1.6955,-1.674,-1.6275,-1.5555,-1.4815,-1.4052,-1.3268,-1.2605,-1.212,-1.1824,-1.2131,-1.2136,-1.1956,-1.2284,-1.2415,-1.2422,-1.2316,-1.2255,-1.2255,-1.2051,-1.156,-1.0998,-1.0723,-1.0227,-0.9477,-0.8015,-0.6937,-0.6153,-0.6298,-0.6393,-0.6537,-0.6548,-0.6587,-0.6549,-0.656,-0.6409,-0.6261,-0.6261,-0.6022,-0.5864,-0.5864,-0.5712,-0.564,-0.5799,-0.5718,-0.5254,-0.4166,-0.3456,-0.2413,-0.0836,-0.0963,-0.1155,-0.0984,-0.0343,0.0067,0.0067,0.0674,0.108,0.1082,0.0473,0.0069,0.0073,0.0073,0.0075,0.0078,0.3144,0.4886,0.4964,0.5034,0.5185,0.5413,0.5562,0.5637,0.5637,0.5637,0.5637,-2.2525,0.0,-2.2405,-2.2332,-2.2118,-2.1911,0.0,-2.1655,-2.1475,-2.1258,-2.107,-2.0878,-2.0581,-2.0258,-2.001,-1.9884,-1.9797,-1.9762,-1.969,-1.9523,-1.9589,-2.0055,-2.0274,-2.0326,-2.0167,-2.0109,-1.9798,-1.9223,-1.8946,-1.8572,-1.8139,-1.7975,-1.77,-1.7267,-1.6976,-1.6807,-1.6684,-1.6534,-1.6124,-1.5459,-1.4628,-1.3923,-1.3268,-1.2482,-1.1996,-1.1809,-1.1884,-1.1733,-1.1502,-1.1826,-1.189,-1.1713,-1.1817,-1.184,-1.184,-1.1635,-1.1361,-1.1086,-1.039,-0.992,-0.9231,-0.746,-0.6406,-0.5681,-0.5447,-0.5787,-0.6248,-0.6363,-0.6275,-0.6108,-0.6066,-0.6018,-0.5944,-0.5792,-0.5715,-0.5715,-0.5796,-0.5796,-0.5721,-0.5649,-0.4628,-0.4162,-0.5523,-0.3461,-0.1325,-0.0304,-0.0222,-0.0072,0.0492,0.0754,0.0742,0.0404,0.0539,0.0815,0.1179,0.0764,0.0493,0.0436,0.0445,0.0457,0.0471,0.2434,0.3849,0.4399,0.5098,0.5485,0.5562,0.5562,0.5637,0.5637,0.5637,0.5637,-2.2685,-2.2605,-2.2542,-2.246,-2.2304,-2.2175,-2.2084,-2.1953,-2.1761,-2.1444,-2.1244,-2.1007,-2.0663,-2.0376,-2.0166,-2.0096,-1.9955,-1.9848,-1.9669,-1.9523,-1.9471,-1.9724,-2.0223,-2.0297,-1.9747,-2.01,-2.0055,-1.9158,-1.8946,-1.8614,-1.8139,-1.7975,-1.7656,-1.7099,-1.6874,-1.6761,-1.6694,-1.6488,-1.6202,-1.5836,-1.4746,-1.3974,-1.3563,-1.2474,-1.1872,-1.1685,-1.1685,-1.1553,-1.1317,-1.1489,-1.1496,-1.1325,-1.129,-1.1227,-1.1161,-1.0963,-1.0631,-1.0092,-0.9349,-0.8456,-0.7469,-0.6304,-0.5617,-0.5223,-0.5024,-0.5203,-0.5564,-0.5704,-0.5722,-0.5664,-0.5733,-0.5692,-0.5711,-0.5622,-0.5562,-0.5565,-0.5569,-0.4935,-0.4465,-0.5188,-0.4562,-0.3853,-0.3461,-0.1571,0.0078,0.054,0.0377,0.0443,0.08,0.1066,0.1049,0.084,0.0839,0.0914,0.1212,0.101,0.0877,0.089,0.0902,0.1301,0.204,0.3061,0.4001,0.4859,0.5401,0.5712,0.5712,0.587,0.5948,0.5948,0.5948,0.5948,-2.2816,-2.2738,-2.2649,-2.2569,-2.2542,-2.2525,-2.2525,0.0,-2.2056,-2.1748,-2.1323,-2.0926,-2.0712,-2.0494,-2.0339,-2.0388,-2.0181,-1.9899,-1.9647,-1.9501,-1.9376,-1.9228,-2.0041,-2.0231,-1.9203,-1.99,-2.0016,-1.9146,-1.8827,-1.8506,-1.8139,-1.7865,-1.7479,-1.6864,-1.6807,-1.6807,-1.6761,-1.6545,-1.6316,-1.6077,-1.4805,-1.3965,-1.3606,-1.2343,-1.1677,-1.156,-1.1498,0.0,-1.124,-1.124,-1.1122,-1.0933,-1.0807,-1.0618,-1.0498,-1.0301,-0.9722,-0.8882,-0.8161,-0.6793,-0.5425,-0.5286,-0.5024,-0.4764,-0.4764,-0.4764,-0.4785,-0.4962,-0.5093,-0.53,-0.5368,-0.5417,-0.5463,-0.5502,-0.5395,-0.5257,-0.4943,-0.3602,-0.2741,-0.3932,-0.4171,-0.3222,-0.0393,0.0707,0.1178,0.1257,0.0923,0.0681,0.0681,0.0963,0.1166,0.1166,0.1166,0.1168,0.1173,0.1197,0.1289,0.1446,0.1446,0.2229,0.3923,0.4238,0.4781,0.5715,0.5867,0.5941,0.5941,0.618,0.6338,0.6338,0.6338,0.6338,-2.2893,-2.2868,-2.2816,-2.2712,-2.2712,-2.2738,-2.2685,0.0,-2.2642,-2.2535,-2.1982,-2.146,-2.143,-2.091,-2.046,-2.0423,-2.0181,-1.9935,-1.9726,-1.9611,-1.9413,-1.8936,-1.9427,-1.9559,-1.9086,-1.937,-1.9521,-1.9331,-1.9093,-1.8667,-1.8139,-1.803,-1.77,-1.7011,-1.6864,-1.6761,-1.6627,-1.6488,-1.5768,-1.451,-1.4204,-1.3373,-1.2104,-1.1615,-1.1365,-1.1373,0.0,-1.1059,-1.087,-1.087,-1.0681,-1.0428,-1.0371,-1.0238,-1.011,-1.0047,-0.9524,-0.8608,-0.7632,-0.6658,-0.5807,-0.5807,-0.5352,-0.4764,-0.4694,-0.4625,-0.4631,-0.4453,-0.4751,-0.5157,-0.5087,-0.5126,-0.5136,-0.4941,-0.5024,-0.4545,-0.2821,-0.2195,-0.1646,-0.0471,-0.0235,-0.0079,0.0393,0.0628,0.0864,0.1257,0.1231,0.1136,0.1136,0.1185,0.1166,0.1166,0.1166,0.1177,0.1202,0.1209,0.1528,0.226,0.2341,0.3044,0.4771,0.4851,0.5318,0.6183,0.6261,0.6257,0.6257,0.6261,0.6338,0.6338,0.6338,0.6338,-2.2927,-2.2944,-2.2902,-2.2902,-2.2876,-2.2816,-2.2685,0.0,0.0,-2.2436,-2.2192,-2.1948,-2.1642,-2.1229,-2.0795,-2.0407,-2.0235,-2.0061,-1.9797,-1.9741,-1.9596,-1.9265,-1.9706,-1.9772,-1.9162,-1.9197,-1.9145,-1.8783,-1.8488,-1.8137,-1.7714,-1.7761,-1.7523,-1.6909,-1.6751,-1.6581,-1.6343,-1.6296,-1.571,-1.4756,-1.3786,-1.2948,-1.2158,-1.1545,-1.124,-1.1185,0.0,-1.087,-1.0681,-1.0555,-1.0364,-1.011,-0.9709,-0.9454,-0.9262,-0.8678,-0.7962,-0.7177,-0.6322,-0.5668,-0.515,-0.4882,-0.4556,-0.4225,-0.4159,-0.4025,-0.3825,-0.3763,-0.4201,-0.4608,-0.4456,-0.4454,-0.438,-0.4283,-0.3583,-0.2774,-0.1797,-0.0862,0.0078,0.0864,0.0943,0.0943,0.0943,0.0943,0.1021,0.1257,0.1323,0.1314,0.1236,0.1224,0.1291,0.1291,0.1442,0.1676,0.2002,0.2158,0.2325,0.2508,0.3368,0.4224,0.5002,0.5473,0.5941,0.649,0.649,0.6486,0.6637,0.6637,0.6637,0.6637,0.6637,0.6868,-2.302,-2.2995,-2.297,-2.3052,0.0,0.0,0.0,0.0,0.0,0.0,-2.2358,-2.2258,-2.182,-2.1538,-2.1166,-2.0579,-2.046,-2.0289,-1.994,-1.9869,-1.9762,-1.9523,-1.9855,-1.9792,-1.9072,-1.8946,-1.8656,-1.8163,-1.781,-1.7494,-1.7174,-1.714,-1.6972,-1.6477,-1.6416,-1.6244,-1.595,-1.5823,-1.54,-1.4805,-1.3545,-1.2696,-1.2212,-1.1483,-1.1122,-1.0996,-1.0744,-1.0618,-1.0434,-1.0301,-0.9983,-0.9594,-0.9064,-0.8603,-0.8016,-0.7107,-0.633,-0.5609,-0.4942,-0.455,-0.4225,-0.3825,-0.3692,-0.3692,-0.3692,-0.3426,-0.3226,-0.3226,-0.3629,-0.3984,-0.3792,-0.376,-0.3677,-0.3312,-0.2322,-0.1367,-0.0852,0.0313,0.1335,0.1335,0.1335,0.1335,0.1335,0.1335,0.1335,0.1414,0.1414,0.1492,0.1571,0.1571,0.1571,0.1571,0.1961,0.2506,0.3129,0.3521,0.3521,0.321,0.4613,0.5392,0.5467,0.6096,0.6486,0.6637,0.6637,0.6714,0.6865,0.6865,0.7019,0.7169,0.7169,0.7625,-2.3095,-2.3095,-2.3095,-2.3095,-2.3045,0.0,-2.3217,-2.3217,0.0,-2.2876,-2.259,-2.2341,-2.2192,-2.1849,-2.146,-2.1102,-2.0893,-2.0662,-2.0304,-2.015,-1.9889,-1.9281,-1.9205,-1.8992,-1.8417,-1.8122,-1.7939,-1.7857,-1.7484,-1.7055,-1.6669,-1.6373,-1.5986,-1.5499,-1.5666,-1.5667,-1.5426,-1.4917,-1.4332,-1.3828,-1.3588,-1.2749,-1.1365,-1.0989,-1.0744,-1.0624,-1.0434,-1.0238,-1.0047,-1.0047,-0.946,-0.8619,-0.8554,-0.7757,-0.6445,-0.5734,-0.5074,-0.4544,-0.3818,-0.3489,-0.3293,-0.3226,-0.3226,-0.3226,-0.3226,-0.3226,-0.3226,-0.3226,-0.3228,-0.3295,-0.3234,-0.3368,-0.3157,-0.2183,-0.1973,-0.1512,0.0607,0.116,0.1335,0.1335,0.1335,0.1335,0.1335,0.1335,0.1414,0.1803,0.1882,0.196,0.2354,0.2433,0.2433,0.2433,0.2979,0.3599,0.4217,0.4996,0.5389,0.5389,0.6093,0.656,0.6784,0.6788,0.6865,0.6865,0.6865,0.6861,0.6865,0.6865,0.7318,0.8003,0.8003,0.8461,-2.3336,-2.3383,-2.3412,-2.3458,-2.3412,0.0,0.0,-2.3265,-2.3336,-2.3126,-2.296,-2.2669,-2.2181,-2.1853,-2.154,-2.123,-2.1007,-2.0778,-2.0512,-2.0357,-2.0115,-1.9803,-1.9603,-1.9398,-1.9185,-1.8491,-1.7931,-1.77,-1.6944,-1.6348,-1.5995,-1.569,-1.5403,-1.5143,-1.5163,-1.5042,-1.4774,-1.4015,-1.3345,-1.2814,-1.2643,-1.1973,-1.087,-1.0744,-1.0491,-1.0238,-0.9856,-0.9658,-0.953,-0.9215,-0.8759,-0.8231,-0.7246,-0.626,-0.5335,-0.448,-0.4082,-0.3751,-0.3084,-0.2954,-0.3025,-0.269,-0.2555,-0.2555,-0.2555,-0.2421,-0.2084,-0.1679,-0.1545,-0.1679,-0.2216,-0.2231,-0.1849,-0.0976,-0.0498,0.0073,0.1127,0.1449,0.1697,0.1957,0.2041,0.2041,0.2041,0.2041,0.2119,0.2275,0.2586,0.2899,0.3057,0.3444,0.3675,0.3675,0.4453,0.5074,0.5461,0.6163,0.656,0.656,0.671,0.6788,0.6865,0.6865,0.6942,0.7099,0.7099,0.7176,0.7249,0.7783,0.8165,0.8466,0.8993,0.9669,-2.3522,-2.3571,-2.362,-2.366,0.0,0.0,-2.3324,-2.3394,-2.3504,-2.3277,-2.3133,-2.2876,-2.2271,-2.2101,-2.1928,-2.1495,-2.1293,-2.1071,-2.0763,-2.0597,-2.046,-2.022,-2.001,-1.9818,-1.9588,-1.8727,-1.7987,-1.7544,-1.6478,-1.5719,-1.5472,-1.4963,-1.4643,-1.4501,-1.4336,-1.4146,-1.3955,-1.323,-1.2522,-1.1797,-1.1533,-1.1041,-1.0358,-1.0301,-1.0047,-0.96,-0.9204,-0.9011,-0.8947,-0.8506,-0.7977,-0.7242,-0.5602,-0.4613,-0.3949,-0.3351,-0.3019,-0.2818,-0.235,-0.2338,-0.2523,-0.2147,-0.2007,-0.1929,-0.1676,-0.1412,-0.1076,-0.0336,-0.0134,-0.0268,-0.0738,-0.0804,-0.0539,0.0138,0.0696,0.1204,0.1628,0.188,0.2059,0.2421,0.2511,0.2511,0.2511,0.2666,0.2899,0.3134,0.3602,0.399,0.4224,0.4608,0.4841,0.5074,0.5693,0.624,0.6553,0.7019,0.7334,0.7488,0.733,0.7249,0.7096,0.7096,0.7176,0.7257,0.7257,0.7484,0.7863,0.8399,0.9003,0.9604,1.0126,1.0875,-2.3616,-2.3602,-2.361,-2.361,-2.3714,0.0,-2.3795,-2.3735,-2.3628,-2.3353,-2.3151,-2.2893,-2.2552,-2.2712,-2.2694,-2.1998,-2.1899,-2.1675,-2.0991,-2.0975,-2.0861,-2.0457,-2.0354,-2.0065,-1.9398,-1.8712,-1.8027,-1.7353,-1.6083,-1.5266,-1.5108,-1.4129,-1.3515,-1.3409,-1.3212,-1.3025,-1.287,-1.2609,-1.1894,-1.0699,-1.0322,-1.0013,-0.9767,-0.9576,-0.9204,-0.877,-0.856,-0.8361,-0.8172,-0.8047,-0.7055,-0.5401,-0.3685,-0.2753,-0.2417,-0.2417,-0.2082,-0.1614,-0.1614,-0.1583,-0.1618,-0.1599,-0.1582,-0.1423,-0.0531,-0.0402,-0.0268,0.0603,0.0669,0.067,0.1209,0.0939,0.067,0.1209,0.1372,0.1548,0.2169,0.2375,0.2437,0.2497,0.251,0.2511,0.2511,0.3057,0.3679,0.4611,0.4924,0.5312,0.6086,0.5854,0.5857,0.656,0.6641,0.6868,0.7484,0.7484,0.7714,0.8102,0.8102,0.7949,0.7557,0.7484,0.7484,0.7484,0.7484,0.794,0.8703,0.8699,0.9679,1.1409,1.1409,1.1929,-2.4229,-2.4155,-2.408,-2.4097,-2.4037,-2.4016,-2.4074,-2.3996,0.0,0.0,-2.3353,-2.3091,-2.2704,-2.2598,-2.247,-2.2237,-2.2044,-2.1882,-2.1645,-2.1446,-2.1276,-2.1055,-2.0926,-2.0665,-2.0174,-1.9477,-1.8707,-1.7786,-1.6659,-1.5611,-1.4731,-1.4165,-1.3457,-1.2589,-1.2525,-1.2232,-1.1727,-1.0548,-0.9911,-0.9702,-0.8532,-0.8187,-0.8686,-0.8623,-0.8471,-0.8182,-0.7787,-0.7521,-0.7391,-0.6396,-0.5401,-0.4345,-0.3218,-0.2889,-0.2889,-0.2218,-0.1816,-0.161,-0.158,-0.1626,-0.1417,-0.0444,-0.0126,-0.0,0.063,0.0821,0.0948,0.1641,0.1857,0.2083,0.274,0.2843,0.2748,0.235,0.2432,0.2602,0.2959,0.2966,0.2895,0.3194,0.3488,0.3839,0.4375,0.4766,0.5231,0.6073,0.6619,0.7242,0.7855,0.7855,0.7855,0.8089,0.8093,0.8165,0.8322,0.8322,0.8399,0.8551,0.8551,0.8475,0.8322,0.8322,0.8322,0.8322,0.877,0.9069,0.9296,1.0351,1.1105,1.1632,1.2157,1.2599,-2.4439,-2.4405,-2.4355,-2.4284,-2.421,-2.419,-2.4266,-2.4133,-2.3955,-2.3774,-2.3624,-2.3405,-2.2947,-2.2857,-2.2756,-2.246,-2.2426,-2.2337,-2.2124,-2.1965,-2.179,-2.1598,-2.1399,-2.1181,-2.0942,-1.9958,-1.909,-1.8498,-1.6902,-1.5499,-1.4492,-1.3758,-1.2793,-1.1525,-1.1325,-1.0864,-1.0033,-0.8933,-0.8234,-0.8075,-0.687,-0.6381,-0.6457,-0.7279,-0.7531,-0.7365,-0.7007,-0.6828,-0.656,-0.5153,-0.4287,-0.3756,-0.2551,-0.215,-0.215,-0.1479,-0.1143,-0.0939,-0.0726,-0.0586,-0.0322,0.0703,0.1075,0.1192,0.1841,0.1976,0.1972,0.2699,0.2918,0.3017,0.343,0.3656,0.3656,0.3205,0.3222,0.3383,0.355,0.3684,0.3822,0.4142,0.4587,0.5101,0.5679,0.6069,0.6543,0.7291,0.8003,0.8475,0.8703,0.8703,0.8703,0.8703,0.8703,0.8703,0.8703,0.8703,0.8851,0.9306,0.9306,0.9458,0.9906,0.9155,0.8851,0.9074,0.9448,0.9895,1.0426,1.1254,1.1929,1.2305,1.2826,1.3046,-2.4439,-2.4474,-2.4493,-2.432,-2.4302,-2.4339,-2.4393,-2.421,-2.4018,-2.3958,-2.3937,-2.3756,-2.3282,-2.3369,-2.3341,-2.2782,-2.2902,-2.2935,-2.2556,-2.2502,-2.2378,-2.2124,-2.1816,-2.1672,-2.1685,-2.036,-1.9465,-1.9396,-1.7137,-1.5276,-1.416,-1.2908,-1.1598,-1.0289,-0.982,-0.9082,-0.8081,-0.7564,-0.6876,-0.6018,-0.542,-0.4619,-0.3787,-0.5569,-0.628,-0.6159,-0.6095,-0.5819,-0.5362,-0.3951,-0.3422,-0.3228,-0.1613,-0.0806,-0.0538,-0.0336,-0.0,0.0336,0.0871,0.125,0.1551,0.2049,0.2222,0.2314,0.3101,0.3129,0.2981,0.3677,0.3788,0.3651,0.3551,0.3719,0.3903,0.3977,0.3941,0.3889,0.392,0.4505,0.4966,0.5089,0.5694,0.6255,0.6555,0.7098,0.7677,0.8401,0.8993,0.9241,0.8856,0.8775,0.8775,0.8775,0.8856,0.8851,0.8927,0.8927,0.9306,1.0363,1.0363,1.0738,1.1632,0.9981,0.9226,0.9744,0.982,1.0501,1.1781,1.1855,1.2305,1.32,1.32,1.3346,-2.5006,-2.4955,-2.4883,-2.4845,-2.4718,-2.4591,-2.4425,-2.4426,-2.4445,-2.432,-2.4155,-2.402,-2.3903,-2.3762,-2.3599,-2.3468,-2.3414,-2.3364,-2.3277,-2.3177,-2.3032,-2.2805,-2.278,-2.2686,-2.2488,-2.1915,-2.1144,-2.016,-1.9159,-1.6653,-1.2212,-1.1065,-1.0143,-0.9306,-0.8193,-0.7142,-0.6201,-0.591,-0.5366,-0.4641,-0.3996,-0.3522,-0.3107,-0.3779,-0.3822,-0.3369,-0.3333,-0.2898,-0.2072,-0.149,-0.1052,-0.0739,-0.0067,0.0269,0.0403,0.0672,0.1545,0.2544,0.262,0.3496,0.4437,0.4415,0.4433,0.4411,0.4377,0.4258,0.4128,0.4288,0.4353,0.4365,0.4336,0.491,0.5462,0.546,0.4913,0.4326,0.4227,0.4835,0.5459,0.5494,0.5971,0.6579,0.7334,0.7704,0.8212,0.917,0.9579,0.9771,0.969,0.9614,0.9614,0.9614,0.9765,1.0137,1.0732,1.0657,1.095,1.1755,1.1545,1.1484,1.1706,1.1254,1.1105,1.1254,1.17,1.2077,1.2378,1.29,1.3193,1.3419,1.3419,1.3492,-2.4994,-2.4955,-2.4942,-2.4842,-2.4775,-2.4704,-2.4561,-2.4629,-2.4692,-2.4607,-2.4459,-2.432,-2.4266,-2.4136,-2.3985,-2.3846,-2.3806,-2.3783,-2.3735,-2.3649,-2.3544,-2.3424,-2.3379,-2.3293,-2.3193,-2.0456,-1.8435,-1.7827,-1.5649,-1.2894,-0.9627,-0.9496,-0.889,-0.7586,-0.6201,-0.5379,-0.5218,-0.4846,-0.4177,-0.3224,-0.2901,-0.2571,-0.2128,-0.2386,-0.2095,-0.138,-0.072,-0.0183,0.0314,0.0503,0.0961,0.1515,0.1384,0.166,0.2083,0.2218,0.2753,0.3478,0.3757,0.4395,0.511,0.5283,0.5318,0.5318,0.5188,0.5061,0.4921,0.4849,0.5067,0.5357,0.5282,0.5876,0.6446,0.6383,0.6002,0.5598,0.5388,0.6069,0.6685,0.66,0.7145,0.7796,0.8378,0.8703,0.9074,0.9752,0.9895,1.0016,1.0201,1.0218,1.0293,1.0738,1.0887,1.1254,1.2063,1.199,1.2278,1.2938,1.2792,1.2799,1.3098,1.3098,1.2879,1.2439,1.2879,1.3251,1.355,1.3848,1.3909,1.3757,1.3757,1.3841,-2.4883,-2.4896,-2.4955,-2.4749,-2.4783,-2.4861,-2.476,-2.4768,-2.4823,-2.4823,-2.4723,-2.4594,-2.4508,-2.4491,-2.4441,-2.4211,-2.4192,-2.4174,-2.4116,-2.404,-2.4002,-2.4003,-2.3846,-2.3746,-2.3848,-1.866,-1.4715,-1.3424,-1.0109,-0.7473,-0.6056,-0.6945,-0.6735,-0.4988,-0.3975,-0.3542,-0.3685,-0.3299,-0.2685,-0.1736,-0.1679,-0.1399,-0.0897,-0.095,-0.0624,0.0058,0.1285,0.1903,0.1894,0.2016,0.249,0.3138,0.2622,0.2929,0.3735,0.3735,0.3872,0.4143,0.4677,0.4945,0.5213,0.5547,0.5683,0.5683,0.5683,0.5686,0.5661,0.5528,0.599,0.6513,0.6354,0.6913,0.739,0.7215,0.7312,0.7311,0.6746,0.7429,0.8047,0.7861,0.846,0.9079,0.9291,0.9536,0.9706,0.9916,1.0018,1.0149,1.0427,1.0559,1.0962,1.1632,1.1855,1.2285,1.3077,1.3084,1.331,1.389,1.389,1.4114,1.4569,1.4641,1.4338,1.3528,1.3745,1.4091,1.4474,1.4474,1.4371,1.4021,1.4085,1.4299,-2.5233,-2.5322,-2.536,-2.5176,-2.5126,-2.5107,-2.4915,-2.4874,-2.4888,-2.4888,-2.4837,-2.4794,-2.4832,-2.4874,-2.4907,-2.4879,-2.4734,-2.4607,-2.4604,-2.4444,-2.4338,-2.4422,-2.4284,-2.4284,-2.4543,-1.975,-1.3852,-0.7107,-0.6079,-0.4139,-0.0383,-0.1051,-0.1388,-0.1055,-0.1726,-0.1115,0.0893,0.0335,-0.0,0.0056,0.0335,0.0503,0.0615,0.1115,0.1231,0.1016,0.1805,0.2183,0.225,0.2541,0.2887,0.3213,0.3151,0.3645,0.4379,0.4379,0.4906,0.5606,0.5672,0.6071,0.6408,0.621,0.6145,0.6145,0.6145,0.6404,0.6724,0.6698,0.7205,0.7777,0.7752,0.8249,0.8758,0.8695,0.9145,0.9133,0.7612,0.7955,0.8567,0.8533,0.8788,0.9028,0.9062,0.9274,0.9451,0.9485,0.9862,1.0086,1.012,1.0972,1.1558,1.1706,1.2505,1.3302,1.4019,1.3962,1.4186,1.4982,1.4705,1.4497,1.4569,1.4919,1.5054,1.4911,1.4633,1.4411,1.418,1.418,1.3937,1.3613,1.3974,1.4299,-2.5322,-2.5284,-2.5264,-2.5212,-2.5233,-2.5224,-2.5103,-2.5056,-2.5075,-2.5068,-2.5006,-2.498,-2.5019,-2.5032,-2.5032,-2.4961,-2.4879,-2.4794,-2.4719,-2.4645,-2.4663,-2.4716,-2.4716,-2.4746,-2.4847,-1.7657,-1.1626,-0.836,-0.3066,0.0787,0.2504,0.2237,0.1566,0.039,0.039,0.0669,0.1282,0.1061,0.1285,0.1902,0.2068,0.2402,0.291,0.3183,0.285,0.2069,0.2348,0.2707,0.3088,0.3532,0.3771,0.3884,0.4237,0.474,0.5366,0.5366,0.5845,0.6574,0.6574,0.6841,0.7129,0.6999,0.7129,0.7321,0.7321,0.7707,0.8086,0.8086,0.8603,0.9116,0.9116,0.957,0.9964,0.9901,1.004,0.9914,0.9036,0.9152,0.943,0.943,0.9521,0.9652,1.0078,1.0245,1.0438,1.0987,1.1452,1.179,1.1952,1.2597,1.315,1.36,1.4034,1.4609,1.5251,1.5259,1.5275,1.5505,1.5497,1.5426,1.5426,1.57,1.5842,1.5842,1.5434,1.511,1.4728,1.4728,1.4438,1.3834,1.4758,1.551,-2.5365,-2.5283,-2.5226,-2.5274,-2.5293,-2.5303,-2.5243,-2.522,-2.5198,-2.5201,-2.5176,-2.516,-2.5141,-2.5141,-2.513,-2.5019,-2.5006,-2.4968,-2.4837,-2.4856,-2.4898,-2.4966,-2.4961,-2.4458,-2.3218,-1.5065,-0.9451,-0.8531,-0.053,0.4138,0.3866,0.3875,0.3195,0.1675,0.2233,0.2232,0.1615,0.1564,0.2069,0.3074,0.3186,0.3635,0.4373,0.4695,0.4353,0.3508,0.3342,0.3572,0.3968,0.456,0.4849,0.5019,0.53,0.5814,0.6342,0.6338,0.6708,0.7259,0.7259,0.7458,0.7757,0.7698,0.7991,0.842,0.842,0.8801,0.9244,0.9244,0.9761,1.0275,1.0275,1.0604,1.087,1.0688,1.0561,1.0428,1.0047,0.9983,1.0047,1.0231,1.0225,1.0471,1.1142,1.1267,1.1464,1.2213,1.2679,1.3051,1.3294,1.3901,1.453,1.5125,1.5346,1.563,1.6132,1.6132,1.607,1.5938,1.607,1.6202,1.6403,1.6542,1.6612,1.6612,1.6542,1.6078,1.535,1.5373,1.5164,1.4674,1.5769,1.6843,-2.5486,-2.5532,-2.5566,-2.549,-2.5447,-2.5372,-2.5313,-2.525,-2.5198,-2.5198,-2.525,-2.5292,-2.5293,-2.5293,-2.5293,-2.5274,-2.5274,-2.5243,-2.5187,-2.5134,-2.5103,-2.5176,-2.4955,-2.2994,-1.8339,-1.2871,-0.7899,-0.3762,0.1488,0.4242,0.3638,0.3641,0.3638,0.3627,0.3749,0.3697,0.3471,0.2914,0.28,0.313,0.3405,0.3735,0.4064,0.5222,0.5719,0.5605,0.5164,0.4948,0.4897,0.5601,0.6154,0.644,0.6223,0.6638,0.7353,0.7337,0.7486,0.7693,0.7693,0.8078,0.8516,0.8156,0.8491,0.893,0.893,0.9442,0.9958,0.9958,1.0471,1.1059,1.1059,1.1059,1.1059,1.087,1.0933,1.087,1.0174,0.9983,1.0168,1.0836,1.0954,1.1142,1.1826,1.195,1.195,1.2035,1.26,1.3035,1.305,1.4266,1.5125,1.5204,1.585,1.6272,1.6272,1.6272,1.6272,1.6272,1.6272,1.6612,1.7267,1.7335,1.7335,1.7335,1.8027,1.7485,1.5757,1.5946,1.6119,1.6198,1.6858,1.7875,-2.5566,-2.5585,-2.5586,-2.5574,-2.5552,-2.5515,-2.5492,-2.5434,-2.5391,-2.5387,-2.5374,-2.5367,-2.5369,-2.536,-2.5332,-2.5252,-2.5252,-2.5212,-2.516,-2.5122,-2.5138,-2.525,-2.5222,-2.4503,-2.2741,-1.4978,-0.9494,-0.8155,-0.0433,0.4079,0.3858,0.3858,0.3858,0.391,0.4135,0.4245,0.4187,0.3965,0.4125,0.4725,0.4622,0.4736,0.5007,0.523,0.5504,0.5828,0.6145,0.6145,0.6041,0.6686,0.6961,0.6972,0.7192,0.7356,0.7439,0.7482,0.7856,0.8354,0.8354,0.8811,0.9479,0.9605,0.9971,1.0452,1.0698,1.1212,1.1663,1.202,1.2205,1.2397,1.2687,1.2328,1.1841,1.1593,1.1965,1.2282,1.1958,1.1841,1.1903,1.2143,1.2074,1.2197,1.2818,1.2948,1.313,1.3571,1.4271,1.4754,1.4754,1.5633,1.6272,1.6272,1.6551,1.6621,1.6473,1.6473,1.6403,1.6342,1.689,1.7295,1.756,1.8162,1.8432,1.8432,1.87,1.8022,1.6466,1.7019,1.7179,1.6964,1.803,1.9147,-2.5597,-2.562,-2.5626,-2.5629,-2.5601,-2.5574,-2.557,-2.5517,-2.5479,-2.5466,-2.5449,-2.5426,-2.5421,-2.5445,-2.5437,-2.5313,-2.5312,-2.5303,-2.5203,-2.5215,-2.5264,-2.5322,-2.5351,-2.4707,-2.3015,-1.5201,-0.9701,-0.8386,-0.0621,0.4079,0.4187,0.4079,0.4135,0.4245,0.457,0.4732,0.4677,0.4842,0.5226,0.5714,0.5504,0.5563,0.5782,0.5941,0.61,0.6426,0.7235,0.7337,0.6961,0.7599,0.7717,0.7568,0.7949,0.7949,0.7735,0.7949,0.8321,0.8738,0.8956,0.9473,1.0158,1.043,1.0938,1.1569,1.1964,1.2425,1.2903,1.3381,1.3433,1.3425,1.3717,1.3287,1.2749,1.2679,1.3053,1.3494,1.3554,1.3191,1.2948,1.3191,1.3122,1.3243,1.3872,1.4001,1.4121,1.4497,1.5237,1.5753,1.5689,1.6596,1.7235,1.7235,1.7442,1.7569,1.7423,1.7423,1.7354,1.7226,1.7765,1.824,1.8509,1.9034,1.9375,1.9375,1.9639,1.9141,1.7925,1.8219,1.8321,1.8291,1.9399,2.0564,0.0,0.0,0.0,-2.5697,-2.5605,-2.5502,-2.5503,-2.5451,-2.5409,-2.541,-2.5456,-2.5507,-2.5503,-2.5564,-2.5574,-2.5512,-2.5556,-2.555,-2.5422,-2.5459,-2.5478,-2.5416,-2.5351,-2.3341,-1.8322,-1.3149,-0.8246,-0.3652,0.1371,0.4301,0.4519,0.4356,0.4411,0.4743,0.512,0.5277,0.516,0.5605,0.5887,0.6055,0.6055,0.6105,0.6317,0.7289,0.767,0.7622,0.858,0.8461,0.7652,0.8355,0.8573,0.8474,0.8474,0.8374,0.8321,0.885,0.8942,0.8935,0.9458,1.003,1.0562,1.057,1.1248,1.2097,1.2613,1.3,1.3425,1.3897,1.4025,1.4025,1.4025,1.3897,1.3837,1.3965,1.4264,1.451,1.4706,1.3914,1.3304,1.3965,1.4085,1.4273,1.4961,1.5029,1.4961,1.4775,1.5414,1.5882,1.5753,1.7111,1.8027,1.8027,1.8633,1.9044,1.9044,1.9044,1.9044,1.9044,1.9044,1.9375,2.0107,2.0172,2.0172,2.0172,2.0828,2.0828,2.0172,1.9626,1.9648,2.0172,2.0926,2.2007,-2.5644,0.0,0.0,0.0,0.0,0.0,-2.5566,-2.5566,-2.5544,-2.5537,-2.5551,-2.557,-2.5577,-2.5593,-2.5593,-2.558,-2.5561,-2.5499,-2.5422,-2.5414,-2.5445,-2.5468,-2.5499,-2.3686,-1.9039,-1.3677,-0.8636,-0.4278,0.1317,0.468,0.4904,0.5496,0.5714,0.5504,0.5878,0.6199,0.6416,0.6529,0.6966,0.7723,0.7503,0.7492,0.7747,0.8205,0.8528,0.8764,0.9429,0.9791,0.9887,0.9496,0.9451,0.9703,0.9703,0.9599,0.9503,0.9658,0.9925,1.0285,1.0438,1.0861,1.1456,1.2078,1.2475,1.2815,1.3423,1.3905,1.4297,1.4601,1.4879,1.4932,1.4737,1.4991,1.5177,1.4737,1.5429,1.613,1.6104,1.613,1.6053,1.5623,1.5449,1.5565,1.613,1.5921,1.5642,1.5584,1.6315,1.6858,1.6786,1.8121,1.9079,1.9079,1.9278,1.9344,1.9344,1.9344,1.9344,1.9344,1.9868,2.0268,2.0473,2.0955,2.1233,2.1233,2.1434,2.1434,2.1233,2.0894,2.0756,2.0914,2.185,2.2685,0.0,0.0,0.0,0.0,0.0,0.0,-2.5547,-2.5553,-2.5579,-2.5583,-2.5598,-2.5598,-2.5597,-2.5611,-2.5648,-2.5634,-2.5616,-2.5565,-2.5479,-2.5479,-2.5485,-2.5492,-2.5536,-2.3698,-1.8968,-1.3764,-0.8689,-0.391,0.1568,0.4952,0.5504,0.615,0.6421,0.6258,0.6637,0.7015,0.7385,0.7599,0.8084,0.8837,0.881,0.8849,0.8947,0.9445,0.971,0.9835,1.0289,1.0754,1.1082,1.0635,1.0423,1.0364,1.0364,1.0407,1.0501,1.0525,1.083,1.1225,1.1434,1.1692,1.2085,1.2876,1.3219,1.3455,1.4019,1.445,1.48,1.51,1.5325,1.5585,1.5793,1.614,1.6389,1.628,1.6733,1.7268,1.7168,1.7324,1.7324,1.6652,1.6492,1.6539,1.6856,1.6641,1.6425,1.6379,1.7147,1.7719,1.7575,1.8945,1.9933,1.9933,2.0204,2.0409,2.0409,2.0409,2.0409,2.0409,2.0805,2.1071,2.1071,2.1486,2.1812,2.2099,2.2099,2.2207,2.2423,2.1717,2.1644,2.2073,2.2887,2.3479,0.0,0.0,0.0,0.0,-2.5309,0.0,-2.5422,-2.5431,-2.5444,-2.5508,-2.5545,-2.5546,-2.5547,-2.5605,-2.5664,-2.5664,-2.5679,-2.5651,-2.562,-2.561,-2.5571,-2.5515,-2.4993,-2.2707,-1.7759,-1.2815,-0.7684,-0.2319,0.225,0.5234,0.6263,0.6588,0.6799,0.6961,0.7456,0.7883,0.8184,0.8718,0.919,0.9562,0.9997,1.0136,1.0084,1.0855,1.1057,1.0788,1.1258,1.1633,1.185,1.185,1.1484,1.0864,1.0864,1.1149,1.1531,1.1592,1.1774,1.2122,1.2444,1.256,1.2657,1.316,1.3567,1.3941,1.4437,1.4813,1.5194,1.5464,1.5733,1.6146,1.7016,1.7269,1.7479,1.7984,1.8081,1.8027,1.8027,1.7907,1.7743,1.7479,1.7368,1.7313,1.7368,1.7368,1.7279,1.7233,1.7958,1.8473,1.8373,1.9747,2.0794,2.0794,2.1348,2.1761,2.1761,2.1761,2.1761,2.1761,2.1761,2.1761,2.1761,2.1812,2.2099,2.2665,2.2713,2.3046,2.3591,2.236,2.2374,2.3431,2.3893,2.4331,0.0,0.0,0.0,-2.5075,-2.5034,0.0,-2.5081,-2.5004,-2.4965,-2.5031,-2.5163,-2.5251,-2.5205,-2.5331,-2.5459,-2.5459,-2.5503,-2.5546,-2.5598,-2.5595,-2.559,-2.5511,-2.1833,-1.7582,-1.3206,-0.7671,-0.2517,0.1893,0.4213,0.5891,0.6864,0.7396,0.761,0.7563,0.8514,0.8942,0.8844,0.9651,1.0312,1.0712,1.1107,1.1408,1.1607,1.2187,1.2246,1.194,1.2871,1.3266,1.3218,1.3552,1.3294,1.2706,1.2706,1.2996,1.3474,1.3484,1.3532,1.3569,1.3674,1.3627,1.3627,1.4071,1.4276,1.441,1.4947,1.5438,1.5927,1.6402,1.6871,1.7283,1.7479,1.7878,1.8244,1.8232,1.862,1.891,1.8685,1.8951,1.9174,1.9028,1.8483,1.8213,1.8602,1.8267,1.8066,1.8475,1.9056,1.9602,1.9988,2.1152,2.1862,2.1862,2.1999,2.2073,2.2073,2.2073,2.2073,2.2073,2.2073,2.2073,2.2073,2.258,2.2847,2.3027,2.3492,2.4012,2.4667,2.3101,2.3156,2.4768,2.4866,2.5456,-2.416,-2.4284,-2.4372,-2.4429,-2.4388,0.0,0.0,-2.4655,-2.465,-2.482,-2.4919,-2.4979,-2.4905,-2.5033,-2.5181,-2.5248,-2.5362,-2.5475,-2.5547,-2.5582,-2.559,-2.5557,-2.3275,-1.8893,-1.1737,-0.8449,-0.3639,0.3938,0.5769,0.6804,0.745,0.8084,0.8508,0.8666,0.9636,1.0254,1.0415,1.1057,1.1548,1.1913,1.2316,1.2511,1.2511,1.3266,1.3467,1.3266,1.4025,1.4212,1.4061,1.4247,1.4247,1.4118,1.3836,1.4025,1.4433,1.4411,1.4595,1.4778,1.4732,1.4675,1.4675,1.504,1.5153,1.5198,1.5635,1.5813,1.6031,1.6527,1.6773,1.7041,1.7862,1.8247,1.8626,1.9141,1.967,2.0029,1.9825,1.9991,2.0156,1.9914,1.9396,1.8975,1.9146,1.8934,1.8941,1.9464,2.0246,2.0846,2.0997,2.2055,2.258,2.2247,2.2469,2.2641,2.2641,2.2932,2.3113,2.3113,2.3113,2.3113,2.3113,2.3386,2.3682,2.4047,2.466,2.5215,2.5841,2.5001,2.5034,2.5904,2.6184,2.6585,-2.3386,-2.3462,-2.3545,-2.3699,-2.3678,-2.3721,0.0,0.0,0.0,-2.4459,-2.4516,-2.4535,-2.4507,-2.4625,-2.4762,-2.4941,-2.5147,-2.5303,-2.5383,-2.5497,-2.5574,-2.5609,-2.3956,-1.9598,-1.1412,-0.8838,-0.3911,0.5222,0.6907,0.7658,0.8137,0.8771,0.9347,0.9917,1.0746,1.149,1.2043,1.257,1.2918,1.3092,1.3532,1.3589,1.3341,1.4247,1.4582,1.4479,1.5062,1.5096,1.4812,1.4982,1.5231,1.5322,1.4628,1.472,1.5209,1.5174,1.5475,1.5896,1.5796,1.574,1.5752,1.5932,1.6044,1.6088,1.6275,1.6207,1.6137,1.6622,1.6669,1.6927,1.8482,1.8918,1.9293,2.0267,2.0845,2.1126,2.0979,2.0944,2.0894,2.066,2.0258,1.985,1.9617,1.9565,1.9828,2.0594,2.147,2.2048,2.2126,2.2989,2.3314,2.2702,2.31,2.3374,2.3374,2.3846,2.4079,2.4079,2.4079,2.4079,2.4079,2.4195,2.4553,2.523,2.5791,2.6394,2.6963,2.7055,2.7059,2.705,2.7525,2.7657,-2.2557,-2.2768,-2.2797,-2.3111,-2.3035,-2.3005,-2.3343,0.0,-2.3343,-2.337,0.0,-2.3614,-2.3773,0.0,0.0,-2.4428,-2.4695,-2.4917,-2.5039,-2.5262,-2.5468,-2.5587,-1.8065,-1.2255,-1.0731,-0.2055,0.4463,0.694,0.723,0.7871,0.9145,0.9309,0.9858,1.0965,1.1557,1.2229,1.2964,1.381,1.4215,1.4157,1.4789,1.4892,1.4514,1.5241,1.5496,1.5419,1.6311,1.6366,1.5971,1.6828,1.6883,1.6411,1.5412,1.5546,1.6337,1.6293,1.6595,1.7018,1.7018,1.6921,1.6811,1.6866,1.6866,1.6866,1.6909,1.6964,1.7115,1.7542,1.8011,1.8688,1.9816,2.0498,2.1034,2.1566,2.1752,2.1738,2.1615,2.1534,2.1513,2.1465,2.1321,2.0979,2.0232,2.008,2.0643,2.2194,2.2525,2.3016,2.4059,2.4302,2.4355,2.4239,2.4297,2.4355,2.4355,2.4399,2.4469,2.4469,2.4469,2.4469,2.4469,2.4824,2.5412,2.6111,2.6497,2.7073,2.7834,2.826,2.8436,2.8268,2.8336,2.8712,-2.1095,-2.0415,-1.9941,-2.1742,-2.1147,-2.0515,-2.2082,-2.2407,-2.239,-2.2435,0.0,0.0,0.0,0.0,0.0,0.0,-2.4238,-2.4544,-2.4994,-2.5189,-2.4392,-2.2,-1.7822,-1.278,-0.6782,0.1384,0.6563,0.7197,0.8423,0.9467,1.0332,1.0956,1.1648,1.2503,1.3375,1.3986,1.4426,1.5129,1.5344,1.5062,1.5632,1.5664,1.533,1.6151,1.6494,1.6464,1.7149,1.7258,1.7063,1.7449,1.7449,1.7146,1.6786,1.6769,1.6934,1.7186,1.7393,1.7557,1.7557,1.7503,1.7449,1.7338,1.7393,1.7557,1.7693,1.776,1.7855,1.8161,1.842,1.8837,2.0006,2.0498,2.0904,2.1811,2.2267,2.2452,2.23,2.2267,2.2221,2.2128,2.1799,2.1513,2.1452,2.1444,2.1765,2.2829,2.3564,2.419,2.459,2.4924,2.498,2.4526,2.4811,2.4993,2.4993,2.5342,2.5522,2.5522,2.5522,2.5522,2.5522,2.5756,2.5988,2.6286,2.713,2.7769,2.8111,2.9047,2.9459,2.9435,2.9247,2.9324,-1.8462,-1.7664,-1.7194,-1.9989,-1.9478,-1.8767,-2.0639,-2.1081,-2.1142,-2.1262,-2.1486,0.0,0.0,0.0,0.0,0.0,0.0,-2.4014,-2.4655,-2.3809,-2.2089,-1.9244,-1.5949,-1.0411,-0.147,0.4235,0.7564,0.8168,0.9746,1.099,1.1661,1.2473,1.3205,1.3846,1.4835,1.552,1.5903,1.6429,1.6514,1.6244,1.6646,1.6634,1.6311,1.7246,1.7666,1.7706,1.821,1.838,1.8224,1.8341,1.8249,1.8039,1.8313,1.821,1.7947,1.7948,1.7988,1.8108,1.8108,1.8147,1.8226,1.8068,1.8135,1.8268,1.8475,1.8436,1.8397,1.8745,1.8769,1.9016,2.0353,2.0683,2.0998,2.2198,2.283,2.3068,2.2965,2.3009,2.3054,2.2965,2.2651,2.2558,2.2942,2.2746,2.277,2.3506,2.4531,2.5254,2.5246,2.5673,2.5728,2.5217,2.5508,2.5797,2.5797,2.6218,2.6447,2.6447,2.6447,2.6486,2.663,2.6578,2.6756,2.7141,2.7961,2.8554,2.8799,2.9688,3.0111,3.0111,2.9865,2.9741,-1.4198,-1.4629,-1.5155,-1.7969,-1.8521,-1.8573,-1.9167,-1.9275,-1.9396,-1.9702,-1.9732,-1.9767,-2.0002,0.0,0.0,0.0,0.0,0.0,0.0,-2.0438,-1.817,-1.8814,-0.9829,-0.1211,0.4828,0.7147,0.8919,1.057,1.1223,1.2024,1.3072,1.347,1.4054,1.4812,1.5584,1.6396,1.7216,1.7626,1.7853,1.7813,1.8106,1.804,1.7773,1.8688,1.9118,1.9169,1.9844,1.9899,1.9585,1.9969,1.9814,1.9375,1.9859,1.9929,1.9671,1.8664,1.8539,1.886,1.886,1.9064,1.9339,1.9339,1.9213,1.9064,1.9064,1.8884,1.8779,1.9244,1.9281,1.9589,2.1306,2.1704,2.1983,2.3253,2.3551,2.3551,2.3551,2.3809,2.4063,2.4036,2.4297,2.4581,2.4771,2.3851,2.3455,2.4586,2.5321,2.6025,2.664,2.6727,2.6727,2.6727,2.6727,2.6779,2.6779,2.6779,2.6779,2.6779,2.6779,2.7011,2.7464,2.7348,2.79,2.9273,2.9077,2.9418,3.0223,3.0129,3.0111,3.0111,3.0111,3.005,-1.073,-0.9557,-0.8981,-1.2925,-1.3195,-1.3238,-1.6011,-1.746,-1.8121,-1.7846,-1.7855,-1.7862,-1.7534,0.0,0.0,0.0,0.0,0.0,0.0,-1.7034,-1.1892,-0.7862,-0.2418,0.2343,0.5788,0.7647,0.9344,1.1154,1.2561,0.0,1.463,1.4937,1.5564,1.66,1.6841,1.7436,1.843,1.8569,1.8679,1.8809,1.9214,1.9339,1.9148,1.9982,2.0286,2.0215,2.0485,2.0569,2.0471,2.0467,2.0452,2.0423,2.0716,2.0684,2.0387,1.9656,1.9391,1.942,1.9288,1.9302,1.9413,1.9413,1.9493,1.9666,1.9844,1.9939,2.0062,2.0158,2.064,2.1323,2.2105,2.2807,2.3483,2.4349,2.4297,2.412,2.442,2.4354,2.4328,2.4599,2.4664,2.4867,2.5388,2.5463,2.5621,2.6156,2.7091,2.7753,2.7913,2.763,2.7378,2.7276,2.724,2.724,2.724,2.758,2.778,2.778,2.778,2.7864,2.7997,2.7997,2.8415,2.9354,2.9709,3.0221,3.1013,3.1434,3.1595,3.1595,3.1595,3.1306,-0.6756,-0.5433,-0.4694,-0.8509,-0.8576,-0.859,-1.1827,-1.3225,-1.376,-1.3466,-1.3684,-1.3542,-1.229,0.0,0.0,0.0,0.0,0.0,0.0,-1.1655,-0.6641,0.1884,0.3554,0.5101,0.7918,0.9567,1.1195,1.2983,1.4507,1.57,1.6443,1.6621,1.7136,1.8051,1.8171,1.8646,1.9561,1.9718,1.9897,2.0113,2.0409,2.0539,2.0475,2.1021,2.1225,2.1101,2.1241,2.1303,2.1272,2.1133,2.1164,2.1303,2.1411,2.1397,2.1148,2.0536,2.023,2.0124,2.0104,2.0085,2.0085,2.0085,2.0227,2.0449,2.0616,2.0781,2.0958,2.118,2.1661,2.2306,2.3036,2.366,2.4281,2.4869,2.4784,2.4599,2.4863,2.4799,2.4784,2.5059,2.5406,2.579,2.6331,2.7057,2.7506,2.7288,2.8093,2.8685,2.8606,2.8288,2.803,2.7947,2.7913,2.7913,2.7913,2.824,2.8448,2.8352,2.8352,2.8448,2.8591,2.8591,2.9013,2.9909,3.0335,3.0969,3.1669,3.2168,3.2398,3.2382,3.2602,3.2336]},{"header":{"parameterUnit":"m.s-1","parameterCategory":1,"la1":30.6,"la2":29.2853,"lo1":-89.7004,"lo2":-87.6739,"dy":0.0162,"dx":0.0183,"nx":112,"ny":82,"refTime":"2024-03-16T06:00:00:Z","depth":0,"parameterNumber":3,"parameterNumberName":"V-component_of_WINDS"},"data":[0.0,0.0,0.0,0.0,0.0,0.0,0.0,0.0,0.0,0.0,0.0,0.0,0.0,0.0,0.0,0.0,0.0,0.0,0.0,0.0,0.0,0.0,0.0,0.0,0.0,0.0,0.0,0.0,0.0,0.0,0.0,0.0,0.0,0.0,0.0,0.0,0.0,0.0,0.0,0.0,0.0,0.0,0.0,0.0,0.0,0.0,0.0,0.0,0.0,0.0,0.0,0.0,0.0,0.0,0.0,0.0,0.0,0.0,0.0,0.0,0.0,0.0,0.0,0.0,0.0,0.0,0.0,0.0,0.0,0.0,0.0,0.0,0.0,0.0,0.0,0.0,0.0,0.0,0.0,0.0,0.0,0.0,0.0,0.0,0.0,0.0,0.0,0.0,0.0,0.0,-3.2916,-3.2916,-3.2277,-3.1854,-3.1746,-3.1217,-3.111,-3.1693,0.0,0.0,0.0,0.0,0.0,0.0,0.0,0.0,0.0,0.0,0.0,0.0,0.0,0.0,0.0,0.0,0.0,0.0,0.0,0.0,0.0,0.0,0.0,0.0,0.0,0.0,0.0,0.0,0.0,0.0,0.0,0.0,0.0,0.0,0.0,0.0,0.0,0.0,0.0,0.0,0.0,0.0,0.0,0.0,0.0,0.0,0.0,0.0,0.0,0.0,0.0,0.0,0.0,0.0,0.0,0.0,0.0,0.0,0.0,0.0,0.0,0.0,0.0,0.0,0.0,0.0,0.0,0.0,0.0,0.0,0.0,0.0,0.0,0.0,0.0,0.0,0.0,0.0,0.0,0.0,0.0,0.0,0.0,0.0,0.0,0.0,0.0,0.0,0.0,0.0,0.0,0.0,0.0,0.0,0.0,0.0,0.0,0.0,0.0,0.0,0.0,0.0,0.0,0.0,-3.2916,-3.2916,-3.2809,-3.2706,-3.2674,-3.2599,-3.2581,-3.2688,0.0,0.0,0.0,0.0,0.0,0.0,0.0,0.0,0.0,0.0,0.0,0.0,0.0,0.0,0.0,0.0,0.0,0.0,0.0,0.0,0.0,0.0,0.0,0.0,0.0,0.0,0.0,0.0,0.0,0.0,0.0,0.0,0.0,0.0,0.0,0.0,0.0,0.0,0.0,0.0,0.0,0.0,0.0,0.0,0.0,0.0,0.0,0.0,0.0,0.0,0.0,0.0,0.0,0.0,0.0,0.0,0.0,0.0,0.0,0.0,0.0,0.0,0.0,0.0,0.0,0.0,0.0,0.0,0.0,0.0,0.0,0.0,0.0,0.0,0.0,0.0,0.0,0.0,0.0,0.0,0.0,0.0,0.0,0.0,0.0,0.0,0.0,0.0,0.0,0.0,0.0,0.0,0.0,0.0,0.0,0.0,0.0,0.0,0.0,0.0,0.0,0.0,0.0,-3.2916,-3.2916,-3.2916,-3.2916,-3.2916,-3.2916,-3.2916,-3.2916,-3.2916,-3.2545,0.0,0.0,0.0,0.0,0.0,0.0,0.0,0.0,0.0,0.0,0.0,0.0,0.0,0.0,0.0,0.0,0.0,0.0,0.0,0.0,0.0,0.0,0.0,0.0,0.0,0.0,0.0,0.0,0.0,0.0,0.0,0.0,0.0,0.0,0.0,0.0,0.0,0.0,0.0,0.0,0.0,0.0,0.0,0.0,0.0,0.0,0.0,0.0,0.0,0.0,0.0,0.0,0.0,0.0,0.0,0.0,0.0,0.0,0.0,0.0,0.0,0.0,0.0,0.0,0.0,0.0,0.0,0.0,0.0,0.0,0.0,0.0,0.0,0.0,0.0,0.0,0.0,0.0,0.0,0.0,0.0,0.0,0.0,0.0,0.0,0.0,0.0,0.0,0.0,0.0,0.0,0.0,0.0,0.0,0.0,0.0,0.0,0.0,0.0,0.0,0.0,0.0,-3.2916,-3.2916,-3.2916,-3.2916,-3.2916,-3.2916,-3.2916,-3.2916,-3.2916,-3.2916,0.0,0.0,0.0,0.0,0.0,0.0,0.0,0.0,0.0,0.0,0.0,0.0,0.0,0.0,0.0,0.0,0.0,0.0,0.0,0.0,0.0,0.0,0.0,0.0,0.0,0.0,0.0,0.0,0.0,0.0,0.0,0.0,0.0,0.0,0.0,0.0,0.0,0.0,0.0,0.0,0.0,0.0,0.0,0.0,0.0,0.0,0.0,0.0,0.0,0.0,0.0,0.0,0.0,0.0,0.0,0.0,0.0,0.0,0.0,0.0,0.0,0.0,0.0,0.0,0.0,0.0,0.0,0.0,0.0,0.0,0.0,0.0,0.0,0.0,0.0,0.0,0.0,0.0,0.0,0.0,0.0,0.0,0.0,0.0,0.0,0.0,0.0,0.0,0.0,0.0,0.0,0.0,0.0,0.0,0.0,0.0,0.0,0.0,0.0,0.0,0.0,0.0,-3.2916,-3.2916,-3.2916,-3.2916,-3.2916,-3.2916,-3.2916,-3.2916,-3.2916,-3.2916,0.0,0.0,0.0,0.0,0.0,0.0,0.0,0.0,0.0,0.0,0.0,0.0,0.0,0.0,0.0,0.0,0.0,0.0,0.0,0.0,0.0,0.0,0.0,0.0,0.0,0.0,0.0,0.0,0.0,0.0,0.0,0.0,0.0,0.0,0.0,0.0,0.0,0.0,0.0,0.0,0.0,0.0,0.0,0.0,0.0,0.0,0.0,0.0,0.0,0.0,0.0,0.0,0.0,0.0,0.0,0.0,0.0,0.0,0.0,0.0,0.0,0.0,0.0,0.0,0.0,0.0,0.0,0.0,0.0,0.0,0.0,0.0,0.0,0.0,0.0,0.0,0.0,0.0,0.0,0.0,0.0,0.0,0.0,0.0,0.0,0.0,0.0,0.0,0.0,0.0,0.0,0.0,0.0,0.0,0.0,0.0,0.0,0.0,0.0,0.0,0.0,0.0,-3.2916,-3.2916,-3.2916,-3.2916,-3.2916,-3.2916,-3.2916,-3.293,-3.3086,0.0,0.0,0.0,0.0,0.0,0.0,0.0,0.0,0.0,0.0,0.0,0.0,0.0,0.0,0.0,0.0,0.0,0.0,0.0,0.0,0.0,0.0,0.0,0.0,0.0,0.0,0.0,0.0,0.0,0.0,0.0,0.0,0.0,0.0,0.0,0.0,0.0,0.0,0.0,0.0,0.0,0.0,0.0,0.0,0.0,0.0,0.0,0.0,0.0,0.0,0.0,0.0,0.0,0.0,0.0,0.0,0.0,0.0,0.0,0.0,0.0,0.0,0.0,0.0,0.0,0.0,0.0,0.0,0.0,0.0,0.0,0.0,0.0,0.0,0.0,0.0,0.0,0.0,0.0,0.0,0.0,0.0,0.0,0.0,0.0,0.0,0.0,0.0,0.0,0.0,0.0,0.0,0.0,0.0,0.0,0.0,0.0,0.0,0.0,0.0,0.0,0.0,-3.3086,-3.3055,-3.3024,-3.3117,-3.3055,-3.2993,-3.2993,-3.2948,-3.2993,-3.319,0.0,0.0,0.0,0.0,0.0,0.0,0.0,0.0,0.0,0.0,0.0,0.0,0.0,0.0,0.0,0.0,0.0,0.0,0.0,0.0,0.0,0.0,0.0,0.0,0.0,0.0,0.0,0.0,0.0,0.0,0.0,0.0,0.0,0.0,0.0,0.0,0.0,0.0,0.0,0.0,0.0,0.0,0.0,0.0,0.0,0.0,0.0,0.0,0.0,0.0,0.0,0.0,0.0,0.0,0.0,0.0,0.0,0.0,0.0,0.0,0.0,0.0,0.0,0.0,0.0,0.0,0.0,0.0,0.0,0.0,0.0,0.0,0.0,0.0,0.0,0.0,0.0,0.0,0.0,0.0,0.0,0.0,0.0,0.0,0.0,0.0,0.0,0.0,0.0,0.0,0.0,0.0,0.0,0.0,0.0,0.0,0.0,0.0,0.0,0.0,0.0,0.0,-3.353,-3.3386,-3.3309,-3.3559,-3.3368,-3.322,-3.322,-3.3024,-3.2993,0.0,0.0,0.0,0.0,0.0,0.0,0.0,0.0,0.0,0.0,0.0,0.0,0.0,0.0,0.0,0.0,0.0,0.0,0.0,0.0,0.0,0.0,0.0,0.0,0.0,0.0,0.0,0.0,0.0,0.0,0.0,0.0,0.0,0.0,0.0,0.0,0.0,0.0,0.0,0.0,0.0,0.0,0.0,0.0,0.0,0.0,0.0,0.0,0.0,0.0,0.0,0.0,0.0,0.0,0.0,0.0,0.0,0.0,0.0,0.0,0.0,0.0,0.0,0.0,0.0,0.0,0.0,0.0,0.0,0.0,0.0,0.0,0.0,0.0,0.0,0.0,0.0,0.0,0.0,0.0,0.0,0.0,0.0,0.0,0.0,0.0,0.0,0.0,0.0,0.0,0.0,0.0,0.0,0.0,0.0,0.0,0.0,0.0,0.0,0.0,0.0,0.0,0.0,-3.3587,-3.3578,-3.356,-3.3605,-3.353,-3.3512,-3.3542,-3.3368,-3.3473,-3.3935,0.0,0.0,0.0,0.0,0.0,0.0,0.0,0.0,0.0,0.0,0.0,0.0,0.0,0.0,0.0,0.0,0.0,0.0,0.0,0.0,0.0,0.0,0.0,0.0,0.0,0.0,0.0,0.0,0.0,0.0,0.0,0.0,0.0,0.0,0.0,0.0,0.0,0.0,0.0,0.0,0.0,0.0,0.0,0.0,0.0,0.0,0.0,0.0,0.0,0.0,0.0,0.0,0.0,0.0,0.0,0.0,0.0,0.0,0.0,0.0,0.0,0.0,0.0,0.0,0.0,0.0,0.0,0.0,0.0,0.0,0.0,0.0,0.0,0.0,0.0,0.0,0.0,0.0,0.0,0.0,0.0,0.0,0.0,0.0,0.0,0.0,0.0,0.0,0.0,0.0,0.0,0.0,0.0,0.0,0.0,0.0,0.0,0.0,0.0,0.0,0.0,0.0,-3.3998,-3.3961,-3.3961,-3.3998,-3.3921,-3.3921,-3.3943,-3.3725,-3.3797,-3.4269,0.0,0.0,0.0,0.0,0.0,0.0,0.0,0.0,0.0,0.0,0.0,0.0,0.0,0.0,0.0,0.0,0.0,0.0,0.0,0.0,0.0,0.0,0.0,0.0,0.0,0.0,0.0,0.0,0.0,0.0,0.0,0.0,0.0,0.0,0.0,0.0,0.0,0.0,0.0,0.0,0.0,0.0,0.0,0.0,0.0,0.0,0.0,0.0,0.0,0.0,0.0,0.0,0.0,0.0,0.0,0.0,0.0,0.0,0.0,0.0,0.0,0.0,0.0,0.0,0.0,0.0,0.0,0.0,0.0,0.0,0.0,0.0,0.0,0.0,0.0,0.0,0.0,0.0,0.0,0.0,0.0,0.0,0.0,0.0,0.0,0.0,0.0,0.0,0.0,0.0,0.0,0.0,0.0,0.0,0.0,0.0,0.0,0.0,0.0,0.0,0.0,0.0,-3.4539,-3.445,-3.4427,-3.4583,-3.445,-3.434,-3.434,-3.4093,-3.4068,-3.434,0.0,0.0,0.0,0.0,0.0,0.0,0.0,0.0,0.0,0.0,0.0,0.0,0.0,0.0,0.0,0.0,0.0,0.0,0.0,0.0,0.0,0.0,0.0,0.0,0.0,0.0,0.0,0.0,0.0,0.0,0.0,0.0,0.0,0.0,0.0,0.0,0.0,0.0,0.0,0.0,0.0,0.0,0.0,0.0,0.0,0.0,0.0,0.0,0.0,0.0,0.0,0.0,0.0,0.0,0.0,0.0,0.0,0.0,0.0,0.0,-2.7299,-2.7299,0.0,0.0,0.0,0.0,0.0,0.0,0.0,0.0,0.0,0.0,0.0,0.0,0.0,0.0,0.0,0.0,0.0,0.0,0.0,0.0,0.0,0.0,0.0,0.0,0.0,0.0,0.0,0.0,0.0,0.0,0.0,0.0,0.0,0.0,0.0,0.0,0.0,0.0,0.0,0.0,-3.4583,-3.4645,-3.4666,-3.4623,-3.4561,-3.458,-3.4687,-3.4454,-3.4435,-3.4752,-3.4607,0.0,0.0,0.0,0.0,0.0,0.0,0.0,0.0,0.0,0.0,0.0,0.0,0.0,0.0,0.0,0.0,0.0,0.0,0.0,0.0,0.0,0.0,0.0,0.0,0.0,0.0,0.0,0.0,0.0,0.0,0.0,0.0,0.0,0.0,0.0,0.0,0.0,0.0,0.0,0.0,0.0,0.0,0.0,0.0,0.0,0.0,0.0,0.0,0.0,0.0,0.0,0.0,0.0,0.0,0.0,0.0,0.0,0.0,0.0,-2.7299,-2.7299,0.0,0.0,0.0,0.0,0.0,0.0,0.0,0.0,0.0,0.0,0.0,0.0,0.0,0.0,0.0,0.0,0.0,0.0,0.0,0.0,0.0,0.0,0.0,0.0,0.0,0.0,0.0,0.0,0.0,0.0,0.0,0.0,0.0,0.0,0.0,0.0,0.0,0.0,0.0,0.0,-3.4751,-3.4791,-3.483,-3.4751,-3.4751,-3.4771,-3.4849,-3.473,-3.4711,-3.4889,-3.4811,0.0,0.0,0.0,0.0,0.0,0.0,0.0,0.0,0.0,0.0,0.0,0.0,0.0,0.0,0.0,0.0,0.0,0.0,0.0,0.0,0.0,0.0,0.0,0.0,0.0,0.0,0.0,0.0,0.0,0.0,0.0,0.0,0.0,0.0,0.0,0.0,0.0,0.0,0.0,0.0,0.0,0.0,0.0,0.0,0.0,0.0,0.0,0.0,0.0,0.0,0.0,0.0,0.0,-2.7299,-2.7299,-2.7299,-2.7299,-2.7299,-2.7299,-2.7299,-2.7299,-2.7299,-2.733,0.0,0.0,0.0,0.0,0.0,0.0,0.0,0.0,0.0,0.0,0.0,0.0,0.0,0.0,0.0,0.0,0.0,0.0,0.0,0.0,0.0,0.0,-2.9827,0.0,-3.0513,-3.1165,-3.1266,0.0,0.0,0.0,0.0,0.0,0.0,0.0,0.0,0.0,0.0,0.0,-3.4908,-3.4908,-3.4908,-3.4908,-3.4908,-3.4908,-3.4908,-3.4908,-3.4908,-3.4908,-3.4908,-3.4908,0.0,0.0,0.0,0.0,0.0,0.0,0.0,0.0,0.0,0.0,0.0,0.0,0.0,0.0,0.0,0.0,0.0,0.0,0.0,0.0,0.0,0.0,0.0,0.0,0.0,0.0,0.0,0.0,0.0,0.0,0.0,0.0,-2.6023,-2.6158,0.0,0.0,0.0,0.0,0.0,0.0,0.0,0.0,0.0,0.0,0.0,0.0,0.0,-2.7201,-2.7103,-2.7233,-2.7282,-2.7299,-2.7299,-2.7299,-2.7299,-2.7299,-2.7299,-2.7299,-2.7299,0.0,-2.733,-2.7421,0.0,0.0,0.0,0.0,0.0,0.0,0.0,0.0,0.0,0.0,0.0,0.0,0.0,0.0,0.0,0.0,0.0,0.0,0.0,0.0,0.0,0.0,-3.0812,-3.0812,-3.1455,-3.2035,-3.2035,-3.2097,-3.249,-3.3729,-3.3726,-3.3698,0.0,0.0,0.0,0.0,0.0,0.0,-3.4908,-3.4908,-3.4908,-3.4908,-3.4908,-3.4908,-3.4908,-3.4908,-3.4908,-3.4908,-3.4908,-3.4908,-3.4908,-3.4945,0.0,0.0,0.0,0.0,0.0,0.0,0.0,0.0,0.0,0.0,0.0,0.0,0.0,0.0,0.0,0.0,0.0,0.0,0.0,0.0,0.0,0.0,0.0,0.0,0.0,0.0,0.0,0.0,0.0,-2.6132,-2.6262,-2.6436,-2.6572,-2.6708,0.0,0.0,0.0,0.0,0.0,0.0,0.0,0.0,0.0,-2.7055,-2.7218,-2.7282,-2.7201,-2.7282,-2.7299,-2.7299,-2.7299,-2.7523,-2.792,-2.792,-2.8144,-2.8541,-2.8541,-2.8606,-2.865,-2.7813,-2.7617,-2.7795,0.0,0.0,0.0,0.0,-2.8154,-2.8182,-2.8182,-2.8513,-2.8887,-2.8887,0.0,0.0,0.0,0.0,0.0,0.0,0.0,-3.0736,0.0,0.0,-3.1617,-3.1673,-3.2288,-3.2925,-3.3076,-3.3076,-3.3223,-3.3787,-3.3868,-3.3998,-3.4517,-3.4586,0.0,0.0,0.0,-3.4908,-3.4908,-3.4908,-3.4908,-3.4908,-3.4908,-3.4908,-3.4908,-3.4908,-3.4908,-3.4908,-3.4908,-3.4927,-3.4945,-3.4964,-3.5001,0.0,0.0,0.0,0.0,0.0,0.0,0.0,0.0,0.0,0.0,0.0,0.0,0.0,0.0,0.0,0.0,0.0,0.0,0.0,0.0,0.0,0.0,0.0,0.0,0.0,0.0,0.0,0.0,-2.6453,-2.64,-2.6708,-2.6792,-2.6825,0.0,0.0,0.0,0.0,0.0,0.0,-2.7152,-2.725,-2.725,-2.7152,-2.725,-2.7385,-2.7575,-2.7575,-2.7678,-2.7851,-2.7851,-2.8144,-2.8678,-2.8745,-2.9056,-2.9574,-2.9642,-2.9776,-2.9834,-2.8617,-2.8315,-2.8599,-2.8628,-2.8713,-2.877,-2.877,-2.877,-2.877,-2.877,-2.9191,-2.969,-2.969,-3.0266,-3.0998,-3.0998,0.0,0.0,0.0,0.0,-3.1423,-3.1347,-3.1918,-3.2545,-3.2666,-3.3168,-3.3643,-3.3842,-3.3895,-3.3895,-3.3895,-3.4074,-3.4293,-3.4539,-3.473,0.0,-3.4889,-3.4908,-3.4908,-3.4908,-3.4908,-3.4908,-3.4908,-3.4908,-3.4908,-3.4908,-3.4908,-3.4908,-3.4908,-3.4927,-3.4945,-3.5001,-3.502,-3.5075,-3.5092,0.0,0.0,0.0,0.0,0.0,0.0,0.0,0.0,0.0,0.0,0.0,0.0,0.0,0.0,0.0,0.0,0.0,0.0,0.0,0.0,0.0,0.0,0.0,0.0,0.0,0.0,0.0,0.0,0.0,-2.6842,-2.6691,0.0,0.0,0.0,0.0,-2.7282,-2.7184,-2.7152,-2.7282,-2.7299,-2.7299,-2.7282,-2.7299,-2.7627,-2.8334,-2.8334,-2.8696,-2.9403,-2.9403,-2.942,-2.9455,-2.964,-2.9756,-2.9809,-2.9989,-3.0149,-3.0238,-2.9976,-2.999,-3.0211,-3.0327,-3.0386,-3.0386,-3.0386,-3.0386,-3.0386,-3.0386,-3.0422,-3.044,-3.044,-3.1035,-3.1769,-3.1912,-3.2415,0.0,0.0,-3.2588,-3.3074,-3.2619,-3.3101,-3.3787,-3.4043,-3.4136,-3.4173,-3.4173,-3.4173,-3.4173,-3.4173,-3.4197,-3.4293,-3.4539,0.0,-3.4668,-3.4889,-3.4908,-3.4908,-3.4908,-3.4908,-3.4908,-3.4908,-3.4908,-3.4908,-3.4908,-3.4908,-3.4908,-3.4908,-3.4945,-3.5001,-3.5001,-3.5129,-3.5164,-3.5092,-3.5164,0.0,0.0,0.0,0.0,0.0,0.0,0.0,0.0,0.0,0.0,0.0,0.0,0.0,0.0,0.0,0.0,0.0,0.0,0.0,0.0,0.0,0.0,0.0,0.0,0.0,0.0,0.0,0.0,-2.6942,-2.6908,0.0,-2.7103,-2.7103,-2.7152,-2.7282,-2.725,-2.725,-2.7299,-2.7747,-2.8006,-2.8006,-2.8472,-2.8834,-2.911,-2.911,-2.9248,-2.9506,-2.9506,-2.9782,-3.0265,-3.0438,-3.0802,-3.1289,-3.1461,-3.161,-3.1774,-3.1691,-3.1172,-3.0421,-3.0481,-3.0511,-3.0511,-3.0511,-3.0511,-3.0511,-3.0511,-3.085,-3.138,-3.199,-3.2391,-3.2655,-3.2841,-3.3069,-3.3232,-3.299,-3.3273,-3.3588,-3.3413,-3.37,-3.4074,-3.4173,-3.4197,-3.4245,-3.4427,-3.4473,-3.4517,-3.4628,-3.4542,-3.4495,-3.4583,-3.471,-3.4831,-3.4889,-3.4908,-3.4908,-3.4908,-3.4908,-3.4908,-3.4908,-3.4908,-3.4927,-3.4945,-3.4964,-3.4983,-3.502,-3.5057,-3.5075,-3.5129,-3.5164,-3.5181,-3.516,-3.5196,-3.5196,0.0,0.0,0.0,0.0,0.0,0.0,0.0,0.0,0.0,0.0,0.0,0.0,0.0,0.0,0.0,0.0,0.0,0.0,0.0,0.0,0.0,0.0,0.0,0.0,0.0,-2.6607,-2.694,-2.6825,-2.7023,-2.7184,-2.7184,-2.7184,-2.7201,-2.7282,-2.7523,-2.7661,-2.7661,-2.8368,-2.8765,-2.8765,-2.9248,-2.9644,-2.9903,-2.9903,-3.0024,-3.0282,-3.0282,-3.0558,-3.1094,-3.129,-3.1655,-3.2161,-3.2386,-3.2573,-3.2705,-3.2705,-3.2147,-3.1314,-3.1314,-3.1314,-3.1314,-3.1314,-3.1314,-3.1314,-3.1314,-3.1684,-3.225,-3.2893,-3.3117,-3.3214,-3.3364,-3.3393,-3.3393,-3.3393,-3.352,-3.3698,-3.3895,-3.4074,-3.4245,-3.439,-3.4435,-3.448,-3.4668,-3.471,-3.4751,-3.4908,-3.4811,-3.471,-3.471,-3.4811,-3.4908,-3.4908,-3.4908,-3.4908,-3.4908,-3.4908,-3.4908,-3.4927,-3.4927,-3.4945,-3.502,-3.502,-3.502,-3.5111,-3.5092,-3.5129,-3.52,-3.5198,-3.5196,-3.5209,-3.5209,-3.5209,-3.5209,0.0,0.0,0.0,0.0,0.0,0.0,0.0,0.0,0.0,0.0,0.0,0.0,0.0,0.0,0.0,0.0,0.0,0.0,0.0,0.0,0.0,0.0,0.0,-2.5753,-2.6332,-2.6624,-2.6453,-2.6925,-2.7282,-2.7282,-2.7316,-2.7333,-2.7333,-2.8023,-2.8437,-2.8437,-2.9144,-2.9541,-2.9541,-2.9558,-2.9955,-3.0713,-3.0713,-3.1093,-3.18,-3.18,-3.18,-3.1837,-3.2161,-3.2318,-3.2318,-3.2737,-3.2916,-3.2916,-3.2916,-3.2916,-3.2916,-3.2916,-3.2916,-3.2916,-3.2916,-3.2916,-3.2916,-3.2916,-3.2948,-3.3011,-3.3086,-3.3214,-3.3292,-3.3382,-3.3393,-3.3393,-3.3393,-3.3393,-3.3549,-3.4074,-3.4221,-3.434,-3.4792,-3.4908,-3.4908,-3.4908,-3.4908,-3.4927,-3.5001,-3.4945,-3.4908,-3.4908,-3.4908,-3.4908,-3.4908,-3.4908,0.0,-3.4908,-3.4908,-3.4927,-3.5001,-3.5001,-3.502,-3.5092,-3.5038,-3.502,-3.5092,-3.5092,-3.5129,-3.52,-3.5196,-3.5209,-3.5209,-3.5209,-3.5209,-3.5209,0.0,0.0,0.0,0.0,0.0,0.0,0.0,0.0,0.0,0.0,0.0,0.0,0.0,0.0,0.0,0.0,0.0,0.0,0.0,0.0,0.0,-2.473,-2.5415,-2.5766,-2.6175,-2.6521,-2.6674,-2.6825,-2.694,-2.694,-2.765,-2.8092,-2.8092,-2.8782,-2.9213,-2.9213,-2.9937,-3.0368,-3.0368,-3.0886,-3.1265,-3.1489,-3.1489,-3.1666,-3.2001,-3.2001,-3.2073,-3.2161,-3.2386,-3.2521,-3.2521,-3.277,-3.2916,-3.2916,-3.2916,-3.2916,-3.2916,-3.2916,-3.2916,-3.2916,-3.2916,-3.2916,-3.2916,-3.2948,-3.2979,-3.3028,-3.3183,-3.3262,-3.3292,-3.3382,-3.3393,-3.3393,-3.3393,-3.3671,-3.4023,-3.4173,-3.4458,-3.4752,-3.487,-3.4908,-3.4908,-3.4908,-3.4945,-3.4983,-3.5001,-3.502,-3.5057,-3.5057,-3.5057,-3.5057,-3.5057,-3.5057,-3.5057,-3.5057,-3.5057,-3.502,-3.5001,-3.5038,-3.5075,-3.5092,-3.5129,-3.5145,-3.516,-3.5176,-3.5176,-3.5212,-3.5193,-3.5209,-3.5209,-3.5209,-3.5209,0.0,0.0,0.0,0.0,0.0,0.0,0.0,0.0,0.0,0.0,0.0,0.0,0.0,0.0,0.0,0.0,0.0,0.0,0.0,0.0,0.0,0.0,-2.5061,-2.5508,-2.5742,-2.6049,-2.6314,-2.6488,-2.6674,-2.6977,-2.745,-2.8028,-2.8523,-2.8834,-2.9575,-3.0006,-3.0006,-3.0731,-3.1145,-3.1145,-3.1576,-3.18,-3.18,-3.18,-3.1873,-3.1982,-3.235,-3.2615,-3.2721,-3.3335,-3.3597,-3.3597,-3.3799,-3.3847,-3.3847,-3.3847,-3.3847,0.0,0.0,0.0,0.0,0.0,-3.2916,-3.2916,-3.2997,-3.3011,-3.3073,-3.3232,-3.3322,-3.3352,-3.3382,-3.3393,-3.3393,-3.3393,-3.3615,-3.3921,-3.4148,-3.439,-3.467,-3.4851,-3.4908,-3.4908,-3.4908,-3.4945,-3.5001,-3.5057,-3.5092,0.0,-3.5145,-3.511,-3.5092,-3.5092,-3.5092,-3.5092,-3.5092,-3.5092,-3.5092,-3.5075,-3.5129,-3.5147,-3.5145,-3.5181,0.0,0.0,0.0,-3.5212,-3.5209,-3.5209,0.0,0.0,0.0,-3.5209,-3.5209,0.0,0.0,0.0,-3.5059,-3.507,0.0,0.0,0.0,0.0,0.0,0.0,0.0,0.0,0.0,0.0,0.0,0.0,0.0,0.0,0.0,0.0,-2.5371,-2.5637,-2.568,-2.5828,-2.601,-2.6104,-2.6537,-2.7216,-2.8184,-2.8474,-2.8886,-2.9506,-3.0368,-3.0817,-3.0817,-3.1438,0.0,0.0,0.0,-3.18,-3.18,-3.18,-3.1834,-3.1958,-3.2837,-3.3276,-3.3417,-3.4499,-3.5013,-3.5013,-3.5153,-3.5204,-3.5204,-3.5204,-3.5204,-3.5061,-3.3687,-3.3184,-3.3134,-3.3094,-3.3041,-3.3041,-3.3015,0.0,0.0,-3.3262,-3.3352,-3.3393,-3.3393,-3.3393,-3.3393,-3.3393,-3.3422,-3.3549,-3.4074,-3.4221,-3.4363,-3.4792,-3.4908,-3.4908,-3.4908,-3.4945,-3.502,-3.5092,-3.5147,-3.5198,-3.5193,-3.5143,-3.511,-3.511,-3.511,-3.511,-3.511,-3.511,-3.5127,-3.52,0.0,0.0,-3.5193,-3.5215,-3.5198,-3.5209,-3.5196,-3.5198,-3.5209,-3.5209,-3.5209,-3.5209,-3.5209,-3.5209,-3.5209,-3.5277,-3.5289,-3.5315,-3.5315,-3.5345,0.0,0.0,0.0,0.0,0.0,0.0,0.0,0.0,0.0,0.0,0.0,0.0,0.0,0.0,0.0,-2.5239,-2.554,-2.5616,-2.56,-2.5637,-2.5844,-2.6314,-2.674,-2.7208,-2.7631,-2.8979,-2.9907,-3.0043,-3.0999,-3.1576,-3.1576,-3.1714,-3.18,-3.18,-3.18,-3.18,-3.18,-3.18,-3.2167,-3.2941,-3.3263,0.0,-3.4588,-3.4959,-3.5153,-3.5153,-3.5187,-3.5204,-3.5204,-3.5204,-3.5204,-3.5186,-3.4882,-3.4757,-3.4686,-3.4097,-3.3898,-3.3856,-3.3288,-3.3183,-3.3292,-3.3334,-3.3411,-3.3393,-3.3393,-3.3393,0.0,-3.3393,-3.3549,-3.3807,-3.4124,-3.4363,-3.4583,-3.4831,-3.4908,-3.4908,-3.4908,-3.4945,-3.502,-3.5092,-3.5147,-3.5198,-3.5193,-3.5193,-3.5176,-3.5176,-3.5176,-3.5176,-3.5176,-3.5176,-3.5196,-3.52,-3.5196,-3.5196,-3.5198,-3.5196,-3.5193,-3.5209,-3.5193,-3.5193,-3.5209,-3.5209,-3.5209,-3.5209,-3.5209,-3.5226,-3.5277,-3.5304,-3.5335,-3.5379,-3.5379,-3.5443,0.0,0.0,0.0,0.0,0.0,0.0,0.0,0.0,0.0,0.0,0.0,-2.2266,-2.3144,0.0,-2.45,-2.5335,-2.554,-2.5616,-2.5616,-2.5616,-2.5749,-2.6137,-2.6726,-2.7358,-2.8005,-2.9343,-3.036,-3.0717,-3.1411,-3.18,-3.18,-3.18,-3.18,-3.18,-3.18,-3.18,-3.18,-3.2162,-3.2654,-3.3204,-3.4193,-3.4939,-3.5509,-3.615,-3.6399,-3.6399,-3.6399,-3.6399,-3.6399,-3.6399,-3.6399,-3.6399,-3.6399,-3.5917,-3.5168,-3.4793,-3.4702,-3.4748,-3.4433,-3.4119,-3.3906,-3.3979,-3.3737,-3.3393,-3.3393,-3.3393,-3.3393,-3.3393,-3.3605,-3.3868,-3.4124,-3.4386,-3.4647,-3.4851,-3.4908,-3.4908,-3.4945,-3.5001,-3.5075,-3.5147,-3.5181,-3.5196,-3.5209,-3.5209,-3.5209,-3.5209,-3.5209,-3.5209,-3.5209,-3.5209,-3.5193,-3.5196,-3.5193,-3.5193,-3.5196,-3.5193,-3.5209,-3.5209,-3.5209,-3.5209,-3.5209,-3.5209,-3.5209,-3.5209,-3.5226,-3.5261,-3.5312,-3.5369,-3.5418,-3.5445,-3.5519,-3.5566,0.0,0.0,0.0,0.0,0.0,0.0,0.0,-2.0273,-2.0595,-2.0728,-2.184,-2.2865,-2.3028,-2.4185,-2.5134,-2.5224,-2.541,-2.554,-2.5502,-2.554,-2.5675,-2.5828,-2.6557,-2.7432,-2.8431,-2.9412,-3.0306,-3.1033,-3.1428,-3.1596,-3.1596,-3.1671,-3.1709,-3.1709,-3.1763,-3.18,-3.18,-3.2524,-3.3049,-3.341,-3.5034,-3.5978,-3.6304,-3.7201,-3.7577,-3.7577,-3.7577,-3.7577,-3.7577,-3.7577,-3.7577,-3.7577,-3.7577,-3.6809,-3.565,-3.5489,-3.554,-3.5641,-3.5547,-3.5177,-3.4731,-3.463,-3.4172,-3.361,-3.3447,-3.3393,-3.3393,-3.3393,-3.3605,-3.3868,-3.4124,-3.4386,-3.4647,-3.487,-3.4927,-3.4945,-3.5001,-3.5075,-3.5129,-3.52,-3.5215,-3.5193,-3.5209,-3.5209,-3.5209,-3.5209,-3.5209,-3.5209,-3.5209,-3.5209,-3.5209,-3.5209,-3.5209,-3.5209,-3.5209,-3.5209,-3.5209,-3.5209,-3.5209,-3.5209,-3.5226,-3.5226,-3.5226,-3.5207,-3.5258,-3.5304,-3.535,-3.5451,-3.5516,-3.553,-3.5676,-3.5704,-1.9101,-1.9078,-1.9107,-1.913,-1.9362,-1.9588,0.0,-2.0204,-2.0728,-2.0561,-2.1545,-2.2567,-2.2877,-2.3697,-2.4467,-2.495,-2.5217,-2.5256,-2.5084,-2.5371,-2.5524,-2.541,-2.6209,-2.7101,-2.8069,-2.8907,-2.9674,-3.0369,-3.0707,-3.0925,-3.0925,-3.1201,-3.1334,-3.1334,-3.1634,-3.18,-3.18,-3.2524,-3.3266,-3.3995,-3.522,-3.6201,-3.6925,-3.7394,-3.7577,-3.7577,-3.7577,-3.7577,-3.7577,-3.7577,-3.7577,-3.7577,-3.7577,-3.747,-3.722,-3.6524,-3.6379,-3.6445,-3.5759,-3.557,-3.5535,-3.4842,-3.4552,-3.4335,-3.3628,-3.3393,-3.3393,-3.3393,-3.3605,-3.3868,-3.4124,-3.4386,-3.4687,-3.4946,-3.5001,-3.5001,-3.5075,-3.5092,-3.5129,-3.52,-3.52,-3.5198,-3.5193,-3.5209,-3.5209,-3.5209,-3.5209,-3.5209,-3.5209,-3.5209,-3.5209,-3.5209,-3.5209,-3.5209,-3.5209,-3.5209,-3.5209,-3.5209,-3.5209,-3.5226,-3.5277,-3.5277,-3.5293,-3.53,-3.53,-3.535,-3.5469,-3.5492,-3.5551,-3.5685,-3.5827,-3.5878,-1.9101,-1.9078,-1.904,-1.8927,-1.904,-1.9191,-1.9078,-1.9566,-2.0015,-1.9874,-2.1264,-2.2497,-2.2434,-2.3667,-2.4696,-2.4759,-2.4966,-2.5139,-2.5162,-2.5217,-2.5256,-2.5294,-2.5644,-2.6412,-2.7736,-2.8763,-2.9593,-3.0243,-3.0625,-3.0804,-3.0804,-3.0925,-3.1004,-3.1004,-3.1334,-3.1428,-3.1218,-3.2818,-3.377,-3.4181,-3.5766,-3.6808,-3.7354,-3.7503,-3.7577,-3.7577,-3.7577,-3.7577,-3.7577,-3.7577,-3.7577,-3.7577,-3.7577,-3.7577,-3.7577,-3.7274,-3.7273,-3.7359,-3.7068,-3.6754,-3.6435,-3.6109,-3.5367,-3.4552,-3.4208,-3.3773,-3.3422,-3.3605,-3.3834,-3.4099,-3.4363,-3.4586,-3.4811,-3.4908,-3.4945,-3.4964,-3.5075,-3.5092,-3.511,-3.5179,-3.5196,-3.5212,-3.5209,-3.5209,-3.5209,-3.5209,-3.5209,-3.5209,-3.5209,-3.5209,-3.5209,-3.5209,-3.5209,-3.5209,-3.5209,-3.5209,-3.5209,-3.5209,-3.5245,-3.5277,-3.5312,-3.5289,-3.5345,-3.5405,-3.5432,-3.5469,-3.5621,-3.5696,-3.5753,-3.5827,-3.5909,-3.5951,-1.9078,-1.904,-1.8988,-1.8822,-1.8874,-1.8903,-1.875,-1.9101,-1.9442,-1.9347,-2.097,-2.2331,-2.2079,-2.3537,-2.471,-2.4549,-2.471,-2.4926,-2.5005,-2.5005,-2.5045,-2.5084,-2.5162,-2.5758,-2.7163,-2.8249,-2.9132,-2.9753,-3.0294,-3.0559,-3.0559,-3.0642,-3.0666,-3.0666,-3.1004,-3.1044,-3.0804,-3.2889,-3.4002,-3.4068,-3.6059,-3.7126,-3.7429,-3.754,-3.7577,-3.7577,-3.7577,-3.7577,-3.7577,-3.7577,-3.7577,-3.7577,-3.7577,-3.7452,-3.7292,-3.7399,-3.7613,-3.7846,-3.7933,-3.7675,-3.7235,-3.7051,-3.62,-3.5186,-3.4733,-3.425,-3.384,-3.3808,-3.4049,-3.434,-3.4539,-3.4751,-3.4889,-3.4927,-3.4945,-3.5001,-3.5092,-3.5127,-3.5126,-3.5193,-3.5209,-3.5209,-3.5209,-3.5209,-3.5209,-3.5209,-3.5209,-3.5209,-3.5209,-3.5209,-3.5209,-3.5209,-3.5209,-3.5209,-3.5209,-3.5209,-3.5226,-3.5226,-3.5258,-3.5308,-3.5324,-3.536,-3.5405,-3.5519,-3.5557,-3.5621,-3.5749,-3.584,-3.5919,-3.5934,-3.5981,-3.5991,-1.8993,-1.8927,-1.8822,-1.8784,-1.8784,-1.8798,-1.8711,-1.9064,-1.9332,-1.9139,-2.0616,-2.1903,-2.1925,-2.3138,-2.4162,-2.4302,-2.4467,-2.4549,-2.4359,-2.4726,-2.4926,-2.463,-2.4846,-2.5354,-2.6254,-2.7195,-2.7962,-2.8533,-2.9399,-2.9902,-2.9902,-3.0156,-3.0309,-3.0309,-3.0625,-3.0788,-3.0804,-3.2669,-3.3639,-3.3656,-3.5919,-3.7027,-3.7009,-3.7429,-3.7577,-3.7577,-3.7577,-3.7577,-3.7577,-3.7577,-3.7577,-3.7577,-3.7577,-3.7113,-3.647,-3.6662,-3.7146,-3.7703,-3.7864,-3.7933,-3.7855,-3.7214,-3.6961,-3.6616,-3.5077,-3.4761,-3.4789,-3.4027,-3.4173,-3.4602,-3.4602,-3.4751,-3.4927,-3.4983,-3.5057,-3.511,-3.5183,-3.5196,-3.5209,-3.5209,-3.5209,-3.5209,-3.5209,-3.5209,-3.5209,-3.5209,-3.5209,-3.5209,-3.5209,-3.5209,-3.5209,-3.5209,-3.5209,-3.5209,-3.5209,-3.5261,-3.5312,-3.5312,-3.5304,-3.533,-3.5379,-3.547,-3.5535,-3.5607,-3.5669,-3.5753,-3.5889,-3.5908,-3.5934,-3.5991,-3.5991,-3.5991,-1.8993,-1.8993,-1.8927,-1.8822,-1.8784,-1.876,-1.8581,-1.8736,-1.8889,-1.8736,-2.0103,-2.13,-2.1234,-2.2503,-2.3566,-2.361,-2.3882,-2.4078,-2.4162,-2.4385,-2.4549,-2.4589,-2.4846,-2.5005,-2.4983,-2.6506,-2.783,-2.8656,-2.9453,-2.9918,-2.9918,-2.9989,-3.0017,-3.0017,-3.0309,-3.0393,-3.0215,-3.1767,-3.2906,-3.3693,-3.6218,-3.7392,-3.7392,-3.754,-3.7577,-3.7577,-3.7577,-3.7577,-3.7577,-3.7577,-3.7273,-3.6792,-3.6792,-3.6363,-3.5753,-3.5821,-3.6016,-3.6265,-3.6435,-3.6533,-3.6512,-3.629,-3.5838,-3.5313,-3.4769,-3.4286,-3.3923,-3.3826,-3.3921,-3.4148,-3.4517,-3.4649,-3.4753,-3.4945,-3.5057,-3.5129,-3.5183,-3.5198,-3.5196,-3.5193,-3.5209,-3.5209,-3.5209,-3.5209,-3.5209,-3.5209,-3.5209,-3.5209,-3.5209,-3.5209,-3.5209,-3.5209,-3.5226,-3.5261,-3.5261,-3.5289,-3.5304,-3.5304,-3.5391,-3.5451,-3.547,-3.557,-3.5696,-3.5799,-3.5827,-3.5889,-3.5974,-3.5974,-3.5981,-3.5991,-3.5991,-3.5991,-1.8879,-1.8879,-1.8788,-1.876,-1.8721,-1.8644,-1.8517,-1.8556,-1.8595,-1.8517,-1.9746,-2.0809,-2.0864,-2.2091,-2.3127,-2.3275,-2.3494,-2.3696,-2.3952,-2.4094,-2.4219,-2.4467,-2.463,-2.4686,-2.4426,-2.5853,-2.7195,-2.8142,-2.9178,-2.9814,-2.9902,-2.9918,-2.9918,-2.9918,-3.006,-3.0087,-2.9918,-3.1281,-3.2812,-3.4471,-3.6435,-3.7466,-3.7577,-3.7291,-3.7166,-3.7148,-3.6863,-3.6738,-3.6738,-3.6738,-3.6435,-3.5971,-3.5971,-3.5576,-3.4963,-3.4996,-3.4882,-3.4817,-3.5489,-3.572,-3.5738,-3.577,-3.5457,-3.4987,-3.4697,-3.4304,-3.396,-3.3826,-3.3947,-3.4173,-3.4517,-3.467,-3.4773,-3.4945,-3.5075,-3.5147,-3.52,-3.5198,-3.5196,-3.5193,-3.5209,-3.5209,-3.5209,-3.5209,-3.5209,-3.5209,-3.5209,-3.5209,-3.5209,-3.5226,-3.5245,-3.5245,-3.5273,-3.5289,-3.5289,-3.534,-3.5378,-3.5378,-3.5504,-3.5562,-3.5562,-3.5693,-3.5807,-3.5908,-3.5929,-3.597,-3.5991,-3.5991,-3.5991,-3.5991,-3.5991,-3.5991,-1.8595,-1.8595,-1.8556,-1.8673,-1.8595,-1.8517,-1.8517,-1.8517,-1.8517,-1.8517,-1.9501,-2.0472,-2.0837,-2.183,-2.2756,-2.3172,-2.3275,-2.3407,-2.3711,-2.3797,-2.3925,-2.4219,-2.4302,-2.4385,-2.4589,-2.5285,-2.6114,-2.7004,-2.8566,-2.9589,-2.9858,-2.9918,-2.9918,-2.9918,-2.9918,-2.9918,-2.9918,-3.1357,-3.327,-3.5671,-3.6513,-3.7132,-3.7434,-3.6684,-3.6328,-3.6292,-3.5543,-3.5204,-3.5204,-3.5204,-3.5186,-3.515,-3.515,-3.472,-3.4139,-3.4235,-3.3831,-3.3509,-3.4988,-3.5493,-3.5512,-3.5643,-3.5693,-3.5548,-3.4769,-3.4725,-3.477,-3.4009,-3.4173,-3.4561,-3.4583,-3.4791,-3.5001,-3.5001,-3.5111,-3.52,-3.52,-3.5196,-3.5209,-3.5209,-3.5209,-3.5209,-3.5209,-3.5209,-3.5209,-3.5209,-3.5209,-3.5209,-3.5209,-3.5261,-3.5312,-3.5312,-3.532,-3.5311,-3.5311,-3.5419,-3.5516,-3.5516,-3.564,-3.5702,-3.5702,-3.584,-3.5914,-3.5914,-3.5974,-3.5991,-3.5991,-3.5991,-3.5991,-3.5991,-3.5991,-3.5991,-1.8581,-1.8673,-1.8673,-1.8673,-1.8673,-1.8634,-1.8517,-1.8517,-1.8517,-1.8517,-1.9136,-1.9824,-2.0415,-2.1166,-2.1818,-2.2377,-2.2663,-2.2889,-2.2979,-2.3465,-2.3824,-2.3925,-2.4302,-2.4467,-2.44,-2.561,-2.6533,-2.6761,-2.7989,-2.909,-2.9842,-2.9918,-2.9918,-2.9918,-2.9918,-2.9918,-2.9918,-3.2009,-3.3155,-3.3438,-3.5405,-3.6147,-3.581,-3.5614,-3.5525,-3.5489,-3.5293,-3.5204,-3.5204,-3.5204,-3.4882,-3.4383,-3.4383,-3.3949,-3.336,-3.3391,-3.3406,-3.3436,-3.3834,-3.3961,-3.3979,-3.4009,-3.4009,-3.3973,-3.3773,-3.376,-3.3822,-3.3808,-3.3902,-3.4117,-3.4505,-3.4713,-3.4908,-3.5092,-3.5181,-3.5212,-3.5212,-3.5193,-3.5209,-3.5209,-3.5209,-3.5209,-3.5209,-3.5209,-3.5209,-3.5209,-3.5209,-3.5209,-3.5209,-3.5261,-3.5312,-3.5312,-3.5378,-3.5444,-3.5444,-3.5562,-3.565,-3.565,-3.576,-3.5846,-3.5846,-3.5938,-3.5962,-3.5962,-3.5988,-3.5991,-3.5991,-3.5991,-3.5991,-3.5991,-3.5991,-3.5991,-1.8201,-1.8464,-1.8595,-1.8595,-1.8595,-1.8556,-1.84,-1.8361,-1.8361,-1.8242,-1.8808,-1.9378,-1.9782,-2.0637,-2.1428,-2.1766,-2.2186,-2.2526,-2.2694,-2.3068,-2.3377,-2.3566,-2.3967,-2.4204,-2.4094,-2.5315,-2.6262,-2.6673,-2.7879,-2.8936,-2.9694,-2.971,-2.977,-2.9918,-2.9918,-2.9946,-3.0087,-3.1732,-3.2546,-3.2525,-3.437,-3.5168,-3.496,-3.4814,-3.4722,-3.4704,-3.4347,-3.4187,-3.4187,-3.4187,-3.3955,-3.358,-3.3612,-3.3422,-3.3117,-3.3165,-3.3274,-3.3393,-3.3393,-3.3393,-3.3393,-3.3393,-3.3393,-3.3393,-3.3393,-3.3481,-3.3605,-3.3753,-3.3986,-3.4223,-3.4529,-3.4773,-3.502,-3.5164,-3.5196,-3.5209,-3.5209,-3.5209,-3.5209,-3.5209,-3.5209,-3.5209,-3.5209,-3.5226,-3.5242,-3.5242,-3.5242,-3.527,-3.5326,-3.5315,-3.5315,-3.5383,-3.5476,-3.5568,-3.5591,-3.5721,-3.5794,-3.5794,-3.5894,-3.5942,-3.5942,-3.5981,-3.5991,-3.5991,-3.5991,-3.5991,-3.5991,-3.5991,-3.5991,-3.5991,-3.5991,-3.5991,-1.7585,-1.8002,-1.8361,-1.8361,-1.84,-1.8361,-1.8202,-1.8163,-1.8123,-1.7922,-1.8454,-1.8962,-1.9045,-2.0087,-2.103,-2.1243,-2.1721,-2.2179,-2.2558,-2.2649,-2.2844,-2.3172,-2.3523,-2.3754,-2.3797,-2.4737,-2.5746,-2.6598,-2.7922,-2.8936,-2.947,-2.9515,-2.9665,-2.9902,-2.9918,-3.0017,-3.0225,-3.1094,-3.1775,-3.2293,-3.3455,-3.4184,-3.4428,-3.4106,-3.3937,-3.3901,-3.3187,-3.2916,-3.2916,-3.2916,-3.2916,-3.2916,-3.2979,-3.3042,-3.3135,-3.3262,-3.3352,-3.3393,-3.3393,-3.3393,-3.3393,-3.3393,-3.3393,-3.3411,-3.3452,-3.3615,-3.3815,-3.3895,-3.4237,-3.4632,-3.4674,-3.4945,-3.5217,-3.5217,-3.5196,-3.5209,-3.5209,-3.5209,-3.5209,-3.5209,-3.5209,-3.5209,-3.5207,-3.5258,-3.5293,-3.5293,-3.5304,-3.5355,-3.5483,-3.5391,-3.5378,-3.5516,-3.559,-3.567,-3.5729,-3.5846,-3.5899,-3.5899,-3.5978,-3.5991,-3.5991,-3.5991,-3.5991,-3.5991,-3.5991,-3.5991,-3.5991,-3.5991,-3.5991,-3.5991,-3.5994,-3.5996,-1.7047,-1.738,-1.7679,-1.7679,-1.7828,-1.8003,-1.7963,-1.7963,-1.7922,-1.7922,-1.8004,-1.8262,-1.8767,-1.9055,-1.962,-2.0862,-2.1125,-2.1439,-2.2193,-2.2526,-2.274,-2.2799,-2.3172,-2.3494,-2.3782,-2.4971,-2.594,-2.6409,-2.7674,-2.8763,-2.947,-2.971,-2.9858,-2.9918,-2.9918,-2.9902,-2.9989,-3.098,-3.1508,-3.1602,-3.2679,-3.3211,-3.3212,-3.3152,-3.3098,-3.308,-3.2969,0.0,-3.2916,-3.2916,-3.2916,-3.2916,-3.2979,-3.3042,-3.3135,-3.3262,-3.3352,-3.3393,-3.3393,-3.3393,-3.3393,-3.3393,-3.3393,-3.3452,-3.3671,-3.3752,-3.3899,-3.4353,-3.4612,-3.4831,-3.5057,-3.5145,-3.5193,-3.5193,-3.5193,-3.5209,-3.5209,-3.5209,-3.5209,-3.5277,-3.5277,-3.5293,-3.5285,-3.53,-3.53,-3.53,-3.53,-3.5336,-3.5481,-3.5481,-3.5516,-3.565,-3.5764,-3.584,-3.5852,-3.5942,-3.5985,-3.5985,-3.5988,-3.5991,-3.5991,-3.5991,-3.5991,-3.5991,-3.5991,-3.5991,-3.5991,-3.5991,-3.5991,-3.5994,-3.6005,-3.6009,-1.6471,-1.6811,-1.7146,-1.7146,-1.7242,-1.7338,-1.7434,-1.7434,-1.7434,-1.7529,-1.7625,-1.7787,-1.8069,-1.8505,-1.9135,-2.011,-2.0671,-2.1236,-2.1913,-2.2263,-2.2434,-2.2434,-2.2754,-2.3113,-2.348,-2.4582,-2.5591,-2.6349,-2.7534,-2.8559,-2.9227,-2.9681,-2.9918,-2.9918,-2.9918,-2.9918,-2.9918,-3.0446,-3.0824,-3.1106,-3.1871,-3.2351,-3.2588,-3.2802,-3.2916,-3.2916,-3.2916,-3.2916,-3.2916,-3.2948,-3.2948,-3.2948,-3.3091,-3.3183,-3.3214,-3.3322,-3.3382,-3.3393,-3.3393,-3.3393,-3.3422,-3.3549,-3.3605,-3.3643,-3.3752,-3.4,-3.4288,-3.4572,-3.4812,-3.5057,-3.5183,-3.5196,-3.5209,-3.5209,-3.5209,-3.5209,-3.5209,-3.5226,-3.5261,-3.5293,-3.5308,-3.5304,-3.53,-3.533,-3.5211,-3.475,-3.4724,-3.4839,-3.4962,-3.5018,-3.5236,-3.5748,-3.5866,-3.5899,-3.5947,-3.5985,-3.5991,-3.5991,-3.5991,-3.5991,-3.5991,-3.5991,-3.5996,-3.6003,-3.6003,-3.6003,-3.6003,-3.6003,-3.5999,-3.5994,-3.5999,-3.5995,-1.5952,-1.6287,-1.6714,-1.6714,-1.6799,-1.6896,-1.6993,-1.7005,-1.7047,-1.7157,-1.7323,-1.7434,-1.7434,-1.7986,-1.8679,-1.929,-2.0093,-2.0859,-2.1484,-2.1852,-2.2123,-2.2217,-2.248,-2.2889,-2.3363,-2.4252,-2.5196,-2.6118,-2.7311,-2.8395,-2.9227,-2.9681,-2.9918,-2.9918,-2.9918,-2.9918,-2.9918,-2.9989,-3.0258,-3.0804,-3.1287,-3.1789,-3.2318,-3.2705,-3.2916,-3.2916,-3.2916,-3.2916,-3.2916,-3.2979,-3.3011,-3.3042,-3.3232,-3.331,-3.331,-3.3382,-3.3393,-3.3393,-3.3393,-3.3393,-3.3422,-3.3671,-3.3762,-3.3823,-3.3949,-3.4288,-3.4674,-3.4773,-3.5001,-3.5198,-3.5198,-3.5196,-3.5209,-3.5209,-3.5209,-3.5226,-3.5226,-3.5258,-3.5308,-3.5308,-3.532,-3.533,-3.533,-3.5398,-3.5119,-3.4276,-3.4241,-3.4284,-3.4241,-3.4296,-3.4598,-3.53,-3.569,-3.5942,-3.601,-3.5991,-3.5991,-3.5991,-3.5991,-3.5994,-3.5996,-3.5994,-3.5999,-3.6007,-3.5992,-3.5993,-3.5993,-3.5993,-3.601,-3.6001,-3.5995,-3.599,-1.539,-1.5856,-1.6355,-1.6355,-1.6752,-1.7157,-1.7031,-1.7073,-1.7157,-1.7044,-1.7115,-1.724,-1.724,-1.728,-1.7642,-1.8452,-1.9083,-1.9763,-2.0574,-2.1368,-2.1935,-2.2235,-2.2512,-2.2979,-2.3696,-2.44,-2.4984,-2.5367,-2.6836,-2.8334,-2.9738,-2.9874,-2.9918,-2.9918,-2.9918,-2.9918,-2.9918,-2.9989,-3.0258,-3.0804,-3.1287,-3.1789,-3.2318,-3.2705,-3.2916,-3.2916,-3.2916,-3.2948,0.0,-3.2997,-3.3042,-3.3086,-3.3262,-3.331,-3.331,-3.3382,-3.3393,-3.3393,-3.3393,-3.3393,-3.3393,-3.3509,-3.3662,-3.388,-3.4379,-3.4653,-3.4831,-3.5075,-3.5179,-3.5193,-3.5193,-3.5209,-3.5209,-3.5209,-3.5261,-3.5277,-3.5277,-3.5289,-3.5315,-3.5383,-3.5398,-3.5412,-3.546,-3.5493,-3.5226,-3.4411,-3.4298,-3.4071,-3.3484,-3.3426,-3.3462,-3.3604,-3.5051,-3.5988,-3.5991,-3.5991,-3.5991,-3.5991,-3.5991,-3.5999,-3.6009,-3.5999,-3.5994,-3.5994,-3.5993,-3.5996,-3.5996,-3.5996,-3.5996,-3.5996,-3.595,-3.5911,-1.4754,-1.496,-1.5175,-1.5311,-1.5445,-1.5656,-1.625,-1.6293,-1.638,-1.682,-1.696,-1.7002,-1.7002,-1.7044,-1.731,-1.8013,-1.8534,-1.907,-1.9736,-2.056,-2.1255,-2.1654,-2.213,-2.2754,-2.361,-2.3921,-2.447,-2.5459,-2.662,-2.7601,-2.8378,-2.9198,-2.971,-2.9902,-2.9918,-2.9918,-2.9918,-2.9593,-2.9683,-3.0157,-3.025,-3.0525,-3.0931,-3.1781,-3.217,-3.2188,-3.2702,-3.2948,0.0,-3.3042,-3.3135,-3.3214,-3.3322,-3.3352,-3.3352,-3.3411,-3.3393,-3.3411,-3.3452,-3.3452,-3.3509,-3.3726,-3.3961,-3.42,-3.4401,-3.4632,-3.487,-3.5126,-3.5193,-3.5209,-3.5209,-3.5226,-3.5258,-3.5254,-3.527,-3.5304,-3.5304,-3.5335,-3.5364,-3.5379,-3.5427,-3.546,-3.5493,-3.5534,-3.509,-3.3723,-3.3626,-3.341,-3.2623,-3.2557,-3.2794,-3.3348,-3.4493,-3.521,-3.521,-3.5708,-3.6005,-3.6005,-3.5996,-3.5996,-3.6001,-3.6009,-3.5992,-3.5992,-3.5996,-3.5996,-3.5996,-3.5958,-3.595,-3.595,-3.5877,-3.5851,-1.4373,-1.4466,-1.4605,-1.4743,-1.4731,-1.4915,-1.5635,-1.5756,-1.5932,-1.6522,-1.6791,-1.6876,-1.6876,-1.6918,-1.7089,-1.7532,-1.7957,-1.8394,-1.8848,-1.9632,-2.0429,-2.1049,-2.1591,-2.2312,-2.3435,-2.3681,-2.4234,-2.5191,-2.6114,-2.6704,-2.6971,-2.8206,-2.8994,-2.9227,-2.9227,-2.9227,-2.9227,-2.8918,-2.8966,-2.9348,-2.945,-2.9692,-3.0018,-3.0929,-3.135,-3.1451,-3.2219,-3.2621,0.0,-3.3045,-3.3244,-3.3322,-3.3382,-3.3393,-3.3393,-3.3393,-3.3393,-3.3393,-3.3481,-3.3509,-3.3512,-3.36,-3.3931,-3.4297,-3.4186,-3.4507,-3.4963,-3.5141,-3.5209,-3.5226,-3.5226,-3.5258,-3.5289,-3.53,-3.5315,-3.533,-3.533,-3.5379,-3.5427,-3.5427,-3.546,-3.552,-3.5541,-3.557,-3.5035,-3.3351,-3.3203,-3.2908,-3.181,-3.1711,-3.1977,-3.2608,-3.3443,-3.4064,-3.4293,-3.4888,-3.5345,-3.5602,-3.5618,-3.573,-3.5984,-3.5995,-3.5996,-3.5996,-3.5996,-3.5993,-3.5965,-3.5926,-3.5889,-3.5869,-3.5799,-3.5771,-1.4373,-1.464,-1.4903,-1.4903,-1.5164,-1.5389,-1.5311,-1.5732,-1.6083,-1.6032,-1.6479,-1.6876,-1.6876,-1.6876,-1.6876,-1.6888,-1.735,-1.7766,-1.7898,-1.8661,-1.9605,-2.0603,-2.0945,-2.1723,-2.326,-2.3952,-2.4317,-2.4317,-2.5191,-2.579,-2.6009,-2.6914,-2.7506,-2.7737,-2.7721,-2.7721,-2.7721,-2.7907,-2.819,-2.8519,-2.9194,-2.9676,-3.0018,-3.0361,-3.0576,-3.0742,-3.1488,-3.1918,0.0,-3.2967,-3.3352,-3.3393,-3.3393,-3.3393,-3.3393,-3.3393,-3.3393,-3.3393,-3.3481,-3.3509,-3.3403,-3.2944,-3.3389,-3.403,-3.3713,-3.4352,-3.5209,-3.5209,-3.5261,-3.5312,-3.5312,-3.5304,-3.53,-3.5315,-3.5364,-3.5398,-3.5398,-3.546,-3.5493,-3.5493,-3.5493,-3.5528,-3.5585,-3.5607,-3.5078,-3.3523,-3.3309,-3.2717,-3.1126,-3.0919,-3.0919,-3.0938,-3.1708,-3.2549,-3.3356,-3.3412,-3.3795,-3.4668,-3.4707,-3.5098,-3.5957,-3.5996,-3.5996,-3.5996,-3.5996,-3.5978,-3.5889,-3.5908,-3.5869,-3.58,-3.5723,-3.5704,-1.36,-1.3647,-1.3779,-1.4082,-1.4362,-1.472,-1.5322,-1.5457,-1.5579,-1.6163,-1.6132,-1.612,-1.6479,-1.662,-1.6663,-1.6761,-1.6987,-1.7188,-1.7231,-1.7852,-1.8579,-1.9252,-2.0811,-2.2236,-2.3157,-2.3824,-2.4234,-2.4317,-2.4725,-2.5055,-2.5298,-2.5719,-2.6519,-2.7672,-2.7802,-2.7818,-2.7818,-2.7552,-2.7443,-2.754,-2.7811,-2.7969,-2.8115,-2.9243,-2.979,-2.9912,-3.0718,-3.1146,-3.1343,-3.2155,-3.2538,-3.2632,-3.3234,-3.3481,-3.3481,-3.352,-3.352,-3.3577,-3.3815,-3.3526,-3.3018,-3.3119,-3.306,-3.292,-3.2805,-3.3825,-3.5037,-3.5229,-3.5273,-3.532,-3.5369,-3.5383,-3.5379,-3.5446,-3.546,-3.546,-3.546,-3.5493,-3.5493,-3.5493,-3.5547,-3.5577,-3.5605,-3.5698,-3.523,-3.3545,-3.3342,-3.2762,-3.111,-3.0897,-3.0894,-3.0899,-3.1148,-3.1659,-3.2517,-3.3083,-3.3768,-3.4648,-3.4707,-3.5098,-3.5957,-3.5996,-3.5979,-3.5935,-3.5935,-3.5896,-3.5826,-3.5796,-3.5742,-3.5723,-3.5704,-3.5704,-1.3084,-1.3132,-1.318,-1.3515,-1.3705,-1.3978,-1.4525,-1.4812,-1.5085,-1.5668,-1.5844,-1.5988,-1.6262,-1.6392,-1.6479,-1.6504,-1.662,-1.6748,-1.6791,-1.7226,-1.777,-1.8412,-2.0413,-2.2019,-2.2542,-2.346,-2.4109,-2.4317,-2.4589,-2.4831,-2.5005,-2.5256,-2.5889,-2.6902,-2.703,-2.7069,-2.7069,-2.682,-2.6759,-2.6889,-2.7112,-2.7276,-2.7478,-2.8521,-2.9052,-2.917,-2.9978,-3.0376,0.0,-3.1363,-3.1717,-3.1781,-3.2373,-3.2601,-3.2601,-3.2666,-3.273,-3.2837,-3.3075,-3.2845,-3.246,-3.25,-3.2313,-3.2156,-3.2461,-3.3508,-3.463,-3.4799,-3.507,-3.535,-3.5398,-3.5412,-3.5446,-3.5493,-3.5488,-3.5501,-3.5501,-3.5515,-3.5547,-3.5534,-3.5572,-3.562,-3.5697,-3.5832,-3.5437,-3.404,-3.3579,-3.2892,-3.1539,-3.1093,-3.0898,-3.0892,-3.0898,-3.1111,-3.1657,-3.2168,-3.2969,-3.4141,-3.4219,-3.4746,-3.5957,-3.5977,-3.5937,-3.5908,-3.5889,-3.5824,-3.5757,-3.5688,-3.5651,-3.5651,-3.5651,-3.5651,0.0,-1.2958,-1.3007,-1.3122,-1.317,-1.3218,-1.3218,-1.3956,0.0,-1.4652,-1.5522,-1.6219,-1.6144,-1.6275,-1.6362,-1.6244,-1.6318,-1.6491,-1.6675,-1.6803,-1.7179,-1.7978,-1.9843,-2.1159,-2.157,-2.2891,-2.3925,-2.4276,-2.4686,-2.4966,-2.5005,-2.5333,-2.56,-2.5701,-2.5701,-2.5738,-2.5738,-2.5901,-2.6173,-2.6539,-2.7004,-2.743,-2.7818,-2.8146,-2.838,-2.8546,-2.9286,-2.9664,-2.9779,-3.0595,-3.0921,-3.0939,-3.1066,-3.1111,-3.1111,-3.119,-3.1334,-3.1494,-3.1589,-3.1712,-3.174,-3.1274,-3.1291,-3.1654,-3.2401,-3.3278,-3.4026,-3.4084,-3.4693,-3.5336,-3.5393,-3.5441,-3.5507,-3.5507,-3.5509,-3.5515,-3.5515,-3.556,-3.5611,-3.5605,-3.5598,-3.5689,-3.5872,-3.5889,-3.5621,-3.4814,-3.3951,-3.3085,-3.2211,-3.1404,-3.0898,-3.0898,-3.0891,-3.0919,-3.0977,-3.0992,-3.168,-3.3301,-3.3457,-3.4258,-3.5937,-3.5937,-3.5899,-3.5889,-3.582,-3.5759,-3.5685,-3.5623,-3.5591,-3.5591,-3.5591,-3.5591,-1.2421,0.0,-1.2676,-1.2764,-1.3094,-1.3362,0.0,-1.3663,-1.3946,-1.4204,-1.4549,-1.4892,-1.5299,-1.5756,-1.6132,-1.6318,-1.6392,-1.6436,-1.6522,-1.6748,-1.7179,-1.7978,-1.9239,-2.0415,-2.1439,-2.263,-2.3595,-2.4166,-2.4359,-2.4645,-2.4966,-2.5084,-2.5278,-2.56,-2.577,-2.5881,-2.5937,-2.6079,-2.6312,-2.6641,-2.7083,-2.7474,-2.7818,-2.8201,-2.8432,-2.851,-2.8691,-2.8858,-2.9014,-2.9831,-3.0184,-3.0316,-3.0987,-3.125,-3.125,-3.1327,-3.1427,-3.1525,-3.1741,-3.1461,-3.0917,-3.0487,-3.0466,-3.065,-3.0891,-3.2,-3.3306,-3.392,-3.4274,-3.4641,-3.5303,-3.5489,-3.5522,-3.5566,-3.5579,-3.5579,-3.5586,-3.5586,-3.5618,-3.5669,-3.5756,-3.5833,-3.5886,-3.5947,-3.5698,-3.4823,-3.3964,-3.3086,-3.2203,-3.1397,-3.0909,-3.0896,-3.0894,-3.1142,-3.1775,-3.1827,-3.2262,-3.3337,-3.402,-3.488,-3.5954,-3.5933,-3.5868,-3.5825,-3.5712,-3.5635,-3.5623,-3.5623,-3.5591,-3.5591,-3.5591,-3.5591,-1.2126,-1.2274,-1.2431,-1.2578,-1.2813,-1.2997,-1.3074,-1.3256,-1.3532,-1.3993,-1.4329,-1.4709,-1.522,-1.5635,-1.5969,-1.6057,-1.6231,-1.6362,-1.6577,-1.6748,-1.7076,-1.7527,-1.8693,-1.9946,-2.1083,-2.2323,-2.3377,-2.4193,-2.4359,-2.4589,-2.4966,-2.5084,-2.5333,-2.5712,-2.586,-2.5934,-2.5954,-2.6132,-2.631,-2.6486,-2.7019,-2.7426,-2.7654,-2.8183,-2.8484,-2.8562,-2.8562,-2.8594,-2.873,-2.9166,-2.9373,-2.9503,-2.9996,-3.0229,-3.0253,-3.0325,-3.0443,-3.0605,-3.082,-3.0753,-3.0525,-3.0308,-3.0304,-3.0394,-3.0428,-3.1091,-3.1961,-3.2769,-3.3301,-3.3846,-3.4725,-3.495,-3.5065,-3.5495,-3.5623,-3.5642,-3.5662,-3.5676,-3.5718,-3.5778,-3.5863,-3.5907,-3.5947,-3.5981,-3.584,-3.5367,-3.4549,-3.3825,-3.335,-3.2561,-3.2053,-3.2059,-3.204,-3.2214,-3.2653,-3.3051,-3.3485,-3.3973,-3.4441,-3.5073,-3.5919,-3.5885,-3.5812,-3.5706,-3.5608,-3.556,-3.556,-3.5554,-3.5541,-3.5541,-3.5541,-3.5541,-1.1877,-1.2026,-1.2234,-1.2382,-1.2431,-1.2421,-1.2421,0.0,-1.3122,-1.3589,-1.4247,-1.4858,-1.5187,-1.5513,-1.5748,-1.5715,-1.5981,-1.6331,-1.6633,-1.6803,-1.6918,-1.7086,-1.8284,-1.9537,-2.0683,-2.2004,-2.323,-2.4177,-2.4426,-2.467,-2.4966,-2.5162,-2.5432,-2.5844,-2.5881,-2.5881,-2.5934,-2.6096,-2.6239,-2.6364,-2.6987,-2.7409,-2.7589,-2.8219,-2.8543,-2.8612,-2.8637,0.0,-2.8718,-2.8718,-2.8785,-2.8858,-2.8905,-2.8975,-2.904,-2.9089,-2.9267,-2.9513,-2.968,-3.0022,-3.0379,-3.0364,-3.0428,-3.0509,-3.0509,-3.0509,-3.0644,-3.1328,-3.2158,-3.2995,-3.3894,-3.4202,-3.4492,-3.5237,-3.557,-3.5709,-3.5734,-3.5776,-3.5833,-3.5899,-3.5911,-3.593,-3.5994,-3.6009,-3.5996,-3.5994,-3.5261,-3.47,-3.47,-3.3932,-3.3398,-3.3398,-3.3398,-3.3456,-3.3593,-3.4276,-3.4742,-3.4872,-3.4872,-3.5183,-3.5821,-3.5805,-3.5716,-3.5579,-3.5534,-3.5502,-3.5502,-3.5501,-3.5493,-3.5493,-3.5493,-3.5493,-1.1728,-1.1778,-1.1877,-1.2076,-1.2076,-1.2026,-1.2126,0.0,-1.2166,-1.2363,-1.3208,-1.4003,-1.405,-1.4846,-1.5558,-1.5671,-1.5981,-1.6287,-1.6479,-1.6675,-1.6876,-1.7352,-1.8116,-1.922,-2.0737,-2.1797,-2.2857,-2.3979,-2.4219,-2.4549,-2.4966,-2.5045,-2.5278,-2.5701,-2.5844,-2.5934,-2.5974,-2.6132,-2.6504,-2.7147,-2.7286,-2.7725,-2.8344,-2.8569,-2.8669,-2.8687,0.0,-2.881,-2.8881,-2.8881,-2.8952,-2.9044,-2.9085,-2.9112,-2.9156,-2.9178,-2.9312,-2.9533,-2.978,-3.0032,-3.0228,-3.0228,-3.0352,-3.0509,-3.05,-3.0491,-3.053,-3.0714,-3.1321,-3.2108,-3.3048,-3.3793,-3.4364,-3.461,-3.519,-3.5728,-3.5846,-3.589,-3.59,-3.5973,-3.5976,-3.5996,-3.5994,-3.5991,-3.6005,-3.5994,-3.5252,-3.4708,-3.4708,-3.3944,-3.3398,-3.3398,-3.3398,-3.371,-3.4432,-3.4627,-3.4986,-3.5671,-3.5724,-3.5691,-3.5639,-3.5648,-3.5581,-3.552,-3.5507,-3.5488,-3.5488,-3.5507,-3.5493,-3.5493,-3.5493,-3.5493,-1.1619,-1.1628,-1.1669,-1.1669,-1.1719,-1.1877,-1.2126,0.0,0.0,-1.2501,-1.2812,-1.3188,-1.3721,-1.4387,-1.504,-1.5659,-1.5881,-1.61,-1.6392,-1.6491,-1.6663,-1.7044,-1.7665,-1.8518,-1.967,-2.0768,-2.1735,-2.2585,-2.3452,-2.4068,-2.4381,-2.49,-2.5378,-2.5791,-2.5917,-2.6026,-2.6154,-2.6206,-2.6538,-2.7036,-2.75,-2.7926,-2.8299,-2.8576,-2.8718,-2.8761,0.0,-2.8881,-2.8952,-2.8998,-2.9067,-2.9156,-2.923,-2.9314,-2.9375,-2.9533,-2.9713,-2.9893,-3.0065,-3.0215,-3.0367,-3.0392,-3.0482,-3.0549,-3.0558,-3.0576,-3.0602,-3.0649,-3.0868,-3.1303,-3.2213,-3.2726,-3.3268,-3.4265,-3.4816,-3.5243,-3.5775,-3.5927,-3.5957,-3.5986,-3.6003,-3.6003,-3.6003,-3.6003,-3.6001,-3.5994,-3.5659,-3.5405,-3.5408,-3.5057,-3.48,-3.48,-3.4775,-3.4901,-3.5256,-3.5286,-3.5471,-3.5869,-3.5799,-3.5688,-3.5588,-3.5558,-3.5502,-3.5446,-3.5446,-3.5427,-3.5379,-3.5379,-3.5379,-3.5379,-3.5379,-3.5335,-1.1477,-1.1528,-1.1578,-1.1368,0.0,0.0,0.0,0.0,0.0,0.0,-1.2521,-1.2657,-1.3437,-1.392,-1.4479,-1.5367,-1.5558,-1.578,-1.6219,-1.6306,-1.6436,-1.6748,-1.726,-1.7978,-1.8907,-1.9878,-2.0811,-2.155,-2.2693,-2.3427,-2.3638,-2.4479,-2.5045,-2.5373,-2.5645,-2.587,-2.6029,-2.6334,-2.6674,-2.6987,-2.7619,-2.802,-2.8255,-2.8601,-2.8785,-2.8834,-2.8929,-2.8975,-2.9062,-2.9089,-2.92,-2.931,-2.9416,-2.9514,-2.9658,-2.9889,-3.0103,-3.0266,-3.0342,-3.0443,-3.0549,-3.0602,-3.0618,-3.0618,-3.0618,-3.0668,-3.069,-3.069,-3.0665,-3.0778,-3.1452,-3.177,-3.2272,-3.3626,-3.4277,-3.4797,-3.5478,-3.5819,-3.5991,-3.5991,-3.5991,-3.5991,-3.5991,-3.5991,-3.5991,-3.5988,-3.5988,-3.5985,-3.5981,-3.5981,-3.5981,-3.5981,-3.5923,-3.583,-3.5762,-3.5745,-3.5745,-3.5794,-3.564,-3.555,-3.5519,-3.5476,-3.5427,-3.5379,-3.5379,-3.5364,-3.5315,-3.5315,-3.5285,-3.5235,-3.5235,-3.5119,-1.1326,-1.1326,-1.1326,-1.1326,-1.1427,0.0,-1.1074,-1.1074,0.0,-1.1719,-1.2138,-1.2511,-1.2812,-1.3389,-1.4003,-1.4503,-1.4903,-1.5289,-1.5792,-1.5957,-1.625,-1.6909,-1.7141,-1.7866,-1.9492,-1.9951,-2.0637,-2.1855,-2.2279,-2.2633,-2.2943,-2.3275,-2.3589,-2.3866,-2.471,-2.5194,-2.5296,-2.65,-2.7241,-2.7435,-2.7554,-2.7974,-2.8669,-2.8815,-2.8929,-2.8994,-2.9062,-2.9112,-2.9178,-2.9178,-2.9332,-2.957,-2.9589,-2.9727,-2.9999,-3.0203,-3.0321,-3.0404,-3.0543,-3.0622,-3.0683,-3.069,-3.069,-3.069,-3.069,-3.069,-3.069,-3.069,-3.071,-3.0703,-3.0768,-3.1382,-3.2052,-3.2231,-3.3457,-3.4635,-3.476,-3.543,-3.5991,-3.5991,-3.5991,-3.5991,-3.5991,-3.5991,-3.5988,-3.5912,-3.5908,-3.5903,-3.5919,-3.5914,-3.5914,-3.5914,-3.5853,-3.5737,-3.563,-3.5549,-3.5531,-3.5531,-3.5457,-3.5393,-3.5311,-3.533,-3.5315,-3.5315,-3.5315,-3.5296,-3.5315,-3.5315,-3.5184,-3.5015,-3.5015,-3.4907,-1.082,-1.0718,-1.0608,-1.0506,-1.0608,0.0,0.0,-1.0972,-1.082,-1.1217,-1.151,-1.199,-1.2871,-1.3457,-1.3988,-1.4455,-1.4777,-1.5096,-1.5457,-1.5691,-1.6001,-1.6324,-1.6595,-1.7012,-1.7657,-1.8411,-1.9145,-1.9832,-2.1112,-2.1992,-2.2321,-2.3153,-2.3719,-2.3885,-2.4265,-2.4547,-2.4709,-2.5415,-2.6191,-2.7017,-2.7743,-2.8378,-2.8881,-2.8929,-2.9021,-2.9112,-2.9243,-2.9289,-2.933,-2.9451,-2.957,-2.9681,-2.9896,-3.0098,-3.0256,-3.0434,-3.049,-3.0552,-3.0626,-3.0678,-3.0711,-3.0742,-3.0753,-3.0753,-3.0753,-3.0764,-3.0769,-3.0755,-3.0762,-3.0755,-3.0721,-3.0935,-3.1352,-3.1958,-3.2574,-3.334,-3.4415,-3.4931,-3.533,-3.5845,-3.5938,-3.5938,-3.5938,-3.5938,-3.5934,-3.5904,-3.5864,-3.584,-3.5846,-3.5772,-3.571,-3.571,-3.5621,-3.5538,-3.5481,-3.5405,-3.5393,-3.5393,-3.5345,-3.533,-3.5315,-3.5315,-3.53,-3.5289,-3.5289,-3.5273,-3.5239,-3.5105,-3.5018,-3.4926,-3.4774,-3.4572,-1.0411,-1.0249,-1.0087,-1.0043,0.0,0.0,-1.0753,-1.06,-1.0403,-1.0854,-1.1158,-1.1719,-1.2793,-1.3084,-1.3372,-1.4093,-1.4362,-1.4617,-1.5085,-1.5311,-1.5558,-1.5869,-1.6132,-1.6337,-1.6582,-1.7463,-1.8224,-1.865,-2.0258,-2.134,-2.1591,-2.2606,-2.3208,-2.332,-2.3742,-2.4014,-2.4171,-2.4752,-2.5532,-2.6496,-2.7335,-2.8209,-2.9048,-2.9089,-2.9178,-2.9328,-2.9414,-2.9474,-2.9493,-2.9664,-2.977,-2.9877,-3.0227,-3.0414,-3.0507,-3.0598,-3.0652,-3.0671,-3.0711,-3.0555,-3.0364,-3.0706,-3.0618,-3.0447,-3.0696,-3.0788,-3.0801,-3.0779,-3.0761,-3.076,-3.0733,-3.0712,-3.0874,-3.1523,-3.1887,-3.2458,-3.3887,-3.4441,-3.492,-3.5738,-3.5908,-3.5908,-3.5908,-3.5878,-3.584,-3.582,-3.5776,-3.5715,-3.5688,-3.5601,-3.557,-3.5538,-3.5444,-3.5391,-3.5355,-3.5285,-3.5261,-3.5229,-3.5242,-3.5239,-3.527,-3.527,-3.5273,-3.5277,-3.5277,-3.5209,-3.5107,-3.4982,-3.4812,-3.463,-3.4461,-3.4232,-1.0146,-1.0079,-0.9961,-0.9961,-0.9762,0.0,-0.9614,-0.971,-0.9969,-1.0643,-1.1167,-1.1728,-1.2372,-1.2076,-1.2067,-1.3218,-1.342,-1.3742,-1.4766,-1.4755,-1.4949,-1.5626,-1.576,-1.6032,-1.6714,-1.745,-1.8185,-1.8855,-1.9949,-2.063,-2.0794,-2.1448,-2.184,-2.1882,-2.2999,-2.3619,-2.3704,-2.4746,-2.5508,-2.5989,-2.6204,-2.7325,-2.9191,-2.9254,-2.9414,-2.9607,-2.9608,-2.9644,-2.9717,-2.9771,-2.9962,-3.0244,-3.056,-3.0697,-3.0706,-3.0706,-3.073,-3.0798,-3.0798,-3.0212,-2.9643,-3.0505,-3.0193,-2.9634,-3.0425,-3.072,-3.076,-3.0697,-3.0676,-3.0696,-3.0777,-3.0747,-3.0715,-3.0777,-3.1415,-3.2228,-3.3093,-3.396,-3.4856,-3.5713,-3.5889,-3.5908,-3.5908,-3.5846,-3.5749,-3.5621,-3.5599,-3.5543,-3.5418,-3.5457,-3.5477,-3.5393,-3.5398,-3.5335,-3.5209,-3.5209,-3.516,-3.5092,-3.5092,-3.5127,-3.5174,-3.5209,-3.5209,-3.5209,-3.5209,-3.5089,-3.4908,-3.4889,-3.4609,-3.4099,-3.4099,-3.3921,-0.8343,-0.8495,-0.8705,-0.883,-0.9047,-0.9159,-0.9061,-0.9211,0.0,0.0,-1.0643,-1.12,-1.1882,-1.2206,-1.252,-1.2968,-1.318,-1.3409,-1.3789,-1.4061,-1.4351,-1.4743,-1.4858,-1.5152,-1.5832,-1.6562,-1.7369,-1.8338,-1.9419,-2.0345,-2.1039,-2.1401,-2.1853,-2.2364,-2.2713,-2.3005,-2.3266,-2.3973,-2.4686,-2.5439,-2.5876,-2.6989,-2.8633,-2.8652,-2.9064,-2.9755,-2.9841,-2.9888,-2.9921,-3.0089,-3.0244,-3.0434,-3.0613,-3.0704,-3.0704,-3.076,-3.0786,-3.0719,-3.0154,-2.978,-2.9497,-2.9098,-2.8808,-2.8633,-2.886,-2.8953,-2.8949,-2.8899,-2.9316,-2.979,-2.9816,-3.0218,-3.0639,-3.0711,-3.09,-3.1318,-3.2208,-3.307,-3.3939,-3.4756,-3.5414,-3.5771,-3.5631,-3.56,-3.5535,-3.5341,-3.5283,-3.52,-3.5069,-3.5069,-3.5069,-3.5035,-3.5054,-3.5018,-3.5001,-3.5001,-3.4982,-3.4945,-3.4945,-3.4964,-3.5001,-3.5001,-3.5001,-3.5001,-3.4851,-3.4754,-3.4694,-3.4394,-3.4179,-3.4023,-3.386,-3.3698,-0.7706,-0.7812,-0.8031,-0.8362,-0.8633,-0.8745,-0.8593,-0.8903,-0.9316,-0.9666,-1.0028,-1.0482,-1.1316,-1.1584,-1.1909,-1.2578,-1.2559,-1.2638,-1.2967,-1.3198,-1.3484,-1.3826,-1.4097,-1.4422,-1.4801,-1.5947,-1.6889,-1.7478,-1.9104,-2.0382,-2.1086,-2.1595,-2.2158,-2.2865,-2.2965,-2.3165,-2.3494,-2.3892,-2.4431,-2.5039,-2.5416,-2.6327,-2.7695,-2.7894,-2.8353,-2.9001,-2.9471,-2.9874,-3.0214,-3.0386,-3.0501,-3.0591,-3.0695,-3.0745,-3.0745,-3.0785,-3.0799,-3.0728,-3.0245,-2.9857,-2.9529,-2.9269,-2.8964,-2.8745,-2.9063,-2.9171,-2.9113,-2.8682,-2.8975,-2.9318,-2.8977,-2.9245,-2.9776,-3.0496,-3.0651,-3.0889,-3.1775,-3.233,-3.2904,-3.3731,-3.4265,-3.4646,-3.4873,-3.4866,-3.488,-3.5051,-3.5015,-3.4964,-3.4908,-3.4908,-3.4908,-3.4908,-3.4908,-3.4908,-3.4908,-3.4908,-3.4851,-3.4732,-3.4732,-3.4691,-3.4545,-3.4772,-3.4851,-3.4773,-3.4653,-3.4508,-3.4371,-3.413,-3.3921,-3.3807,-3.3633,-3.3549,-0.7706,-0.7658,-0.7664,-0.8196,-0.8309,-0.8262,-0.8162,-0.8633,-0.9099,-0.9256,-0.9309,-0.9658,-1.061,-1.0466,-1.0576,-1.1859,-1.1669,-1.156,-1.212,-1.2218,-1.2404,-1.2773,-1.3369,-1.3674,-1.3616,-1.5203,-1.6333,-1.6566,-1.8867,-2.055,-2.1193,-2.2023,-2.2762,-2.3383,-2.3563,-2.3815,-2.4153,-2.436,-2.4584,-2.4828,-2.4965,-2.5543,-2.6528,-2.707,-2.7475,-2.7782,-2.8676,-2.959,-3.041,-3.0527,-3.063,-3.071,-3.0778,-3.079,-3.0796,-3.0799,-3.0801,-3.0779,-3.0691,-3.015,-2.9588,-3.0243,-2.9898,-2.9401,-3.0134,-3.0406,-3.0264,-2.9419,-2.9268,-2.9206,-2.8412,-2.8252,-2.8681,-3.0208,-3.0449,-3.0574,-3.1357,-3.1555,-3.1802,-3.2593,-3.2711,-3.2947,-3.3724,-3.3754,-3.3927,-3.466,-3.4774,-3.479,-3.487,-3.487,-3.487,-3.487,-3.487,-3.4851,-3.4831,-3.4831,-3.4732,-3.4431,-3.4431,-3.4316,-3.4023,-3.4524,-3.4733,-3.4551,-3.4529,-3.4348,-3.3972,-3.3947,-3.3807,-3.3509,-3.3509,-3.3452,-0.5773,-0.5991,-0.6204,-0.6195,-0.6681,-0.7343,-0.7877,-0.7937,-0.7943,-0.8196,-0.8613,-0.8981,-0.9235,-0.954,-0.9835,-1.0143,-1.0364,-1.0525,-1.0669,-1.0931,-1.1233,-1.1557,-1.1607,-1.1747,-1.1957,-1.2589,-1.4128,-1.6842,-1.7944,-1.9758,-2.2728,-2.3069,-2.3468,-2.4085,-2.4136,-2.4304,-2.4642,-2.4854,-2.4977,-2.5042,-2.5232,-2.5461,-2.577,-2.647,-2.7194,-2.7942,-2.8163,-2.878,-2.9635,-2.967,-3.0118,-3.0772,-3.0781,-3.08,-3.0798,-3.0793,-3.0762,-3.0617,-2.9944,-2.954,-2.9255,-2.8686,-2.8386,-2.8251,-2.8435,-2.8492,-2.8472,-2.827,-2.8695,-2.9207,-2.9014,-2.9338,-2.9836,-3.0194,-2.9357,-2.8521,-2.8714,-2.9687,-3.0571,-3.0763,-3.1828,-3.2704,-3.2743,-3.2718,-3.2937,-3.3636,-3.4252,-3.4645,-3.4647,-3.4668,-3.4668,-3.4668,-3.4626,-3.4498,-3.4298,-3.4321,-3.4208,-3.3899,-3.4012,-3.4074,-3.3998,-3.413,-3.4179,-3.413,-3.3979,-3.3868,-3.378,-3.3605,-3.3491,-3.3422,-3.3422,-3.3393,-0.5828,-0.5991,-0.6046,-0.6367,-0.6696,-0.7025,-0.7509,-0.7354,-0.7139,-0.7289,-0.7771,-0.8196,-0.8355,-0.8606,-0.8908,-0.9273,-0.9377,-0.9488,-0.971,-0.9917,-1.0115,-1.0246,-1.0348,-1.0493,-1.057,-1.2597,-1.4599,-1.6336,-1.8816,-2.1144,-2.3241,-2.3653,-2.4096,-2.462,-2.4642,-2.4774,-2.5088,-2.5222,-2.5302,-2.5343,-2.546,-2.5535,-2.5615,-2.5965,-2.6617,-2.7485,-2.751,-2.8027,-2.8826,-2.8824,-2.9359,-3.0177,-3.0183,-3.0404,-3.075,-3.076,-3.0697,-3.0525,-3.0059,-2.9854,-2.974,-2.9214,-2.9048,-2.9048,-2.9052,-2.9074,-2.9019,-2.8596,-2.8736,-2.8902,-2.8499,-2.8562,-2.8779,-2.8793,-2.8855,-2.8797,-2.838,-2.918,-2.9846,-2.9465,-3.0342,-3.1269,-3.1543,-3.1921,-3.2446,-3.3187,-3.3674,-3.4086,-3.4439,-3.4495,-3.4473,-3.4316,-3.4269,-3.413,-3.3831,-3.3858,-3.3733,-3.3486,-3.3542,-3.356,-3.3465,-3.3465,-3.355,-3.3716,-3.355,-3.3426,-3.3327,-3.3226,-3.2967,-3.2607,-3.2607,-3.2805,-0.6204,-0.615,-0.5991,-0.6864,-0.6815,-0.6603,-0.7041,-0.6869,-0.6593,-0.6593,-0.7031,-0.7402,-0.7551,-0.7605,-0.7765,-0.8396,-0.8389,-0.8442,-0.8778,-0.8928,-0.8974,-0.8915,-0.9273,-0.9474,-0.9214,-1.2884,-1.5439,-1.5787,-1.9948,-2.2831,-2.3631,-2.4219,-2.4704,-2.5075,-2.5097,-2.5201,-2.5418,-2.549,-2.5543,-2.5625,-2.5609,-2.5626,-2.5687,-2.5607,-2.5989,-2.6699,-2.6746,-2.7219,-2.7963,-2.7955,-2.8465,-2.9246,-2.9238,-2.9739,-3.0416,-3.0416,-3.0438,-3.0442,-3.0384,-3.0362,-3.0337,-3.0297,-3.0292,-3.0292,-3.0292,-3.0311,-3.0177,-2.9466,-2.9117,-2.8784,-2.8079,-2.7725,-2.7582,-2.7648,-2.8793,-2.9599,-2.865,-2.8985,-2.9265,-2.8587,-2.9026,-2.9698,-3.0389,-3.1192,-3.1998,-3.2689,-3.3026,-3.3455,-3.4106,-3.4269,-3.4245,-3.4023,-3.3947,-3.3752,-3.3411,-3.3429,-3.3361,-3.3124,-3.3124,-3.305,-3.2916,-3.2884,-3.2975,-3.3273,-3.3184,-3.2996,-3.2702,-3.2702,-3.2277,-3.1492,-3.1635,-3.2117,-0.4791,-0.4408,-0.4187,-0.5179,-0.5226,-0.5222,-0.6154,-0.6317,-0.6263,-0.6263,-0.6539,-0.6701,-0.648,-0.6317,-0.6268,-0.6376,-0.6918,-0.7289,-0.723,-0.7883,-0.8203,-0.7759,-0.8243,-0.8302,-0.7503,-1.0779,-1.3852,-1.6056,-1.9279,-2.2334,-2.5056,-2.5349,-2.5431,-2.5427,-2.5488,-2.5542,-2.557,-2.5584,-2.5625,-2.5683,-2.5623,-2.56,-2.5618,-2.5542,-2.5634,-2.5859,-2.5816,-2.6277,-2.7075,-2.701,-2.7466,-2.8196,-2.8203,-2.8656,-2.9303,-2.9303,-2.9715,-3.0247,-3.0234,-3.0177,-3.0147,-3.0188,-3.0202,-3.0202,-3.0202,-3.0128,-3.0018,-2.9904,-2.9725,-2.954,-2.9446,-2.925,-2.9101,-2.912,-2.9228,-2.8965,-2.7683,-2.7973,-2.8465,-2.8353,-2.897,-2.953,-2.9642,-3.0333,-3.0912,-3.1024,-3.2257,-3.325,-3.3362,-3.377,-3.4049,-3.3998,-3.3671,-3.3343,-3.3027,-3.3093,-3.3019,-3.2687,-3.2834,-3.2948,-3.2916,-3.2737,-3.2654,-3.2719,-3.2866,-3.2559,-3.1849,-3.1849,-3.1487,-3.0755,-3.1385,-3.2117,-0.4408,-0.4515,-0.4625,-0.4901,-0.4791,-0.4732,-0.5336,-0.5555,-0.5559,-0.55,-0.5773,-0.6055,-0.5891,-0.5837,-0.5837,-0.605,-0.6376,-0.6701,-0.6972,-0.73,-0.7306,-0.6912,-0.6912,-0.6804,-0.6426,-1.1033,-1.4486,-1.564,-2.0514,-2.403,-2.5424,-2.5566,-2.5597,-2.5563,-2.5544,-2.5538,-2.5534,-2.5583,-2.5593,-2.5593,-2.5561,-2.5532,-2.5538,-2.5466,-2.5505,-2.558,-2.5556,-2.5757,-2.6087,-2.5952,-2.6412,-2.7205,-2.7132,-2.7584,-2.8265,-2.8265,-2.8728,-2.9351,-2.9351,-2.9631,-2.9984,-3.0015,-2.9984,-2.9918,-2.9918,-2.9801,-2.966,-2.966,-2.9514,-2.9359,-2.9359,-2.9235,-2.9144,-2.9166,-2.916,-2.8997,-2.8443,-2.859,-2.8808,-2.8808,-2.9087,-2.927,-2.9064,-2.9337,-2.9683,-2.9984,-3.1041,-3.1957,-3.2397,-3.3031,-3.3382,-3.3243,-3.3063,-3.2813,-3.2519,-3.2537,-3.2573,-3.2507,-3.2489,-3.2523,-3.2523,-3.237,-3.2301,-3.2301,-3.2541,-3.2219,-3.1405,-3.1405,-3.0787,-2.9667,-3.0091,-3.0939,-0.3904,-0.4174,-0.4278,-0.4343,-0.4233,-0.4291,-0.4736,-0.4959,-0.5069,-0.4956,-0.5179,-0.5348,-0.5344,-0.5344,-0.5399,-0.5719,-0.5773,-0.5937,-0.6539,-0.6544,-0.6381,-0.6109,-0.605,-0.6212,-0.6822,-1.2091,-1.5808,-1.6653,-2.2083,-2.5407,-2.549,-2.5548,-2.5563,-2.5551,-2.5527,-2.5508,-2.5496,-2.5577,-2.558,-2.5499,-2.5485,-2.5464,-2.5447,-2.533,-2.5332,-2.5364,-2.5386,-2.5414,-2.5415,-2.5216,-2.554,-2.6124,-2.6048,-2.6499,-2.72,-2.7181,-2.7675,-2.8323,-2.8323,-2.8836,-2.9465,-2.95,-2.9564,-2.9607,-2.9607,-2.9476,-2.9319,-2.9319,-2.9172,-2.9016,-2.9016,-2.8938,-2.8881,-2.897,-2.9017,-2.9044,-2.9178,-2.92,-2.9178,-2.9093,-2.9075,-2.8966,-2.8652,-2.8603,-2.8735,-2.9125,-3.0052,-3.0934,-3.151,-3.2355,-3.2827,-3.2621,-3.2539,-3.2404,-3.2179,-3.2179,-3.2232,-3.2319,-3.2232,-3.2144,-3.202,-3.1948,-3.1912,-3.1912,-3.1948,-3.1725,-3.1128,-3.0833,-3.0086,-2.8955,-2.9042,-2.9921,-0.2847,-0.2178,-0.1732,-0.2623,-0.3012,-0.3453,-0.4463,-0.4908,-0.5069,-0.5069,-0.4908,-0.4688,-0.4574,-0.4574,-0.4574,-0.457,-0.457,-0.4736,-0.5124,-0.5285,-0.5336,-0.5179,-0.5991,-0.7416,-0.9649,-1.3742,-1.7434,-2.0299,-2.3488,-2.5351,-2.5484,-2.5503,-2.5484,-2.5406,-2.5468,-2.5495,-2.5507,-2.5577,-2.557,-2.5492,-2.5437,-2.5371,-2.5301,-2.5107,-2.5019,-2.5024,-2.5099,-2.5163,-2.5192,-2.5005,-2.4915,-2.4903,-2.4959,-2.5437,-2.6073,-2.6016,-2.6543,-2.7276,-2.7276,-2.7714,-2.8297,-2.8444,-2.8895,-2.9437,-2.9437,-2.9277,-2.9126,-2.9126,-2.8966,-2.881,-2.881,-2.881,-2.881,-2.8881,-2.8858,-2.8881,-2.9134,-2.92,-2.9115,-2.879,-2.8724,-2.8652,-2.8376,-2.8324,-2.8324,-2.8352,-2.9683,-3.0707,-3.0743,-3.1854,-3.2621,-3.2606,-3.2318,-3.2108,-3.2108,-3.2108,-3.2108,-3.2108,-3.2108,-3.1912,-3.1473,-3.1435,-3.1435,-3.1435,-3.1067,-3.0904,-3.0924,-2.9834,-2.9229,-2.9073,-2.8763,-2.975,-0.1732,-0.2014,-0.2238,-0.19,-0.2179,-0.2569,-0.2792,-0.3123,-0.3456,-0.3624,-0.3849,-0.4018,-0.4132,-0.4187,-0.4353,-0.4794,-0.4794,-0.4901,-0.5348,-0.534,-0.5171,-0.4908,-0.4846,-0.5152,-0.5987,-1.1441,-1.5417,-1.6536,-2.2046,-2.5397,-2.5432,-2.5432,-2.5432,-2.5404,-2.5388,-2.537,-2.536,-2.5395,-2.533,-2.5186,-2.5244,-2.5243,-2.5171,-2.5145,-2.5087,-2.4994,-2.4877,-2.4877,-2.4923,-2.4737,-2.4682,-2.4719,-2.4676,-2.4832,-2.5113,-2.5059,-2.5497,-2.6098,-2.6098,-2.6524,-2.7142,-2.7698,-2.7963,-2.8141,-2.8612,-2.8646,-2.8507,-2.8316,-2.8237,-2.8174,-2.8002,-2.8183,-2.8412,-2.8515,-2.836,-2.8246,-2.8342,-2.8412,-2.8386,-2.8264,-2.8272,-2.8219,-2.7964,-2.7926,-2.784,-2.7672,-2.8938,-2.9919,-2.9919,-3.1184,-3.2108,-3.2108,-3.1965,-3.1929,-3.1984,-3.1984,-3.202,-3.2073,-3.1765,-3.1524,-3.1355,-3.0988,-3.0828,-3.0828,-3.0666,-3.0594,-3.0486,-2.9776,-2.9164,-2.8656,-2.8715,-2.9625,-0.067,-0.1119,-0.1399,-0.0895,-0.1118,-0.162,-0.1956,-0.2345,-0.2734,-0.3183,-0.3463,-0.363,-0.3799,-0.3633,-0.3688,-0.4349,-0.4236,-0.4291,-0.4842,-0.4673,-0.4512,-0.4522,-0.4242,-0.4412,-0.5366,-1.0943,-1.4939,-1.6024,-2.1886,-2.5397,-2.536,-2.5397,-2.5388,-2.537,-2.5274,-2.5224,-2.5234,-2.5203,-2.5126,-2.5,-2.5087,-2.5094,-2.5044,-2.4987,-2.4929,-2.4847,-2.4623,-2.4572,-2.4682,-2.4472,-2.4476,-2.4564,-2.4464,-2.4464,-2.4532,-2.4464,-2.469,-2.5022,-2.4945,-2.5338,-2.5954,-2.6477,-2.6904,-2.7256,-2.7681,-2.7906,-2.7989,-2.7742,-2.7695,-2.7678,-2.7512,-2.7701,-2.7974,-2.7984,-2.7833,-2.7666,-2.7636,-2.7811,-2.7926,-2.7811,-2.7823,-2.7765,-2.7522,-2.7478,-2.7417,-2.7264,-2.8507,-2.9472,-2.9506,-3.0726,-3.1579,-3.1579,-3.1466,-3.1372,-3.1432,-3.1432,-3.147,-3.1562,-3.124,-3.0965,-3.0804,-3.046,-3.0267,-3.0267,-3.0097,-3.0046,-3.013,-2.9586,-2.9178,-2.885,-2.8897,-2.9781,0.0,0.0,0.0,0.0561,0.0112,-0.0556,-0.2063,-0.2619,-0.3007,-0.3741,-0.3691,-0.3471,-0.3357,-0.2856,-0.2575,-0.2963,-0.2742,-0.2798,-0.3516,-0.3239,-0.3241,-0.4082,-0.4356,-0.5604,-0.8495,-1.2588,-1.636,-1.9465,-2.3241,-2.5361,-2.5303,-2.5351,-2.5341,-2.5282,-2.5168,-2.5096,-2.508,-2.5024,-2.5,-2.498,-2.498,-2.4947,-2.4874,-2.4607,-2.4512,-2.4547,-2.4229,-2.4229,-2.4456,-2.4266,-2.421,-2.4266,-2.4266,-2.4321,-2.4339,-2.4152,-2.4077,-2.4058,-2.3858,-2.4216,-2.4734,-2.4751,-2.5714,-2.6854,-2.6594,-2.7102,-2.7678,-2.7422,-2.7378,-2.7378,-2.7378,-2.7422,-2.7452,-2.7409,-2.7255,-2.7147,-2.7085,-2.7457,-2.7736,-2.7409,-2.7348,-2.7272,-2.699,-2.6975,-2.699,-2.707,-2.839,-2.9403,-2.9472,-3.0398,-3.1067,-3.1067,-3.0707,-3.0477,-3.0477,-3.0477,-3.0477,-3.0477,-3.0477,-3.0267,-2.981,-2.9766,-2.9766,-2.9766,-2.9335,-2.9335,-2.9766,-2.9097,-2.913,-2.9766,-2.9337,-3.0291,0.1008,0.0,0.0,0.0,0.0,0.0,-0.0056,-0.0167,-0.039,-0.1227,-0.1339,-0.134,-0.1564,-0.1621,-0.1621,-0.1509,-0.2293,-0.3074,-0.3516,-0.3572,-0.3633,-0.3749,-0.3527,-0.4765,-0.8377,-1.2101,-1.5824,-1.9497,-2.3185,-2.5253,-2.5231,-2.5049,-2.5,-2.5087,-2.4962,-2.4864,-2.4809,-2.4799,-2.47,-2.4495,-2.4543,-2.4505,-2.4385,-2.4173,-2.4081,-2.408,-2.3785,-2.3638,-2.3577,-2.3801,-2.384,-2.3717,-2.3717,-2.3759,-2.3819,-2.3756,-2.3667,-2.3513,-2.3445,-2.3425,-2.3488,-2.3833,-2.4222,-2.4618,-2.4981,-2.5609,-2.6196,-2.6073,-2.6432,-2.6939,-2.7002,-2.6906,-2.6825,-2.7002,-2.659,-2.6193,-2.6279,-2.6193,-2.6195,-2.6522,-2.6624,-2.6556,-2.6193,-2.6367,-2.6556,-2.659,-2.7837,-2.8763,-2.8783,-2.9715,-3.0385,-3.0385,-3.026,-3.0218,-3.0218,-3.0218,-3.0218,-3.0218,-2.9876,-2.9629,-2.9512,-2.9243,-2.9091,-2.9091,-2.8967,-2.8967,-2.9091,-2.9023,-2.9098,-2.9321,-3.0212,-3.1223,0.0,0.0,0.0,0.0,0.0,0.0,0.1004,0.0837,0.0614,-0.0391,-0.0614,-0.0614,-0.067,-0.0838,-0.0896,-0.0727,-0.1567,-0.2462,-0.3072,-0.3072,-0.3186,-0.3583,-0.3249,-0.4499,-0.8297,-1.1912,-1.5594,-1.9435,-2.315,-2.5182,-2.5087,-2.4896,-2.4828,-2.4869,-2.4771,-2.4666,-2.4538,-2.4472,-2.4337,-2.4115,-2.4042,-2.3986,-2.3929,-2.3674,-2.3587,-2.3599,-2.3383,-2.3194,-2.3105,-2.3335,-2.341,-2.3414,-2.3414,-2.3374,-2.331,-2.3364,-2.3224,-2.3014,-2.2933,-2.2824,-2.2729,-2.2875,-2.3129,-2.3422,-2.3681,-2.4288,-2.4876,-2.4763,-2.538,-2.6067,-2.6284,-2.621,-2.6101,-2.6054,-2.5766,-2.5481,-2.5572,-2.5443,-2.5443,-2.5888,-2.6013,-2.5961,-2.5709,-2.5872,-2.6033,-2.6085,-2.7309,-2.8219,-2.8262,-2.9173,-2.9832,-2.9832,-2.9673,-2.9556,-2.9556,-2.9556,-2.9556,-2.9556,-2.9303,-2.9136,-2.9136,-2.8905,-2.8684,-2.8414,-2.8414,-2.8552,-2.883,-2.8951,-2.925,-2.9831,-3.093,-3.1876,0.0,0.0,0.0,0.0,0.4009,0.0,0.1833,0.1388,0.1111,0.0,-0.0279,-0.0223,0.0111,0.0056,0.0,-0.0056,-0.0504,-0.1288,-0.2298,-0.2184,-0.2406,-0.3416,-0.3624,-0.5138,-0.8854,-1.2484,-1.62,-1.9963,-2.3368,-2.5164,-2.4888,-2.4804,-2.4727,-2.4682,-2.4578,-2.4444,-2.4283,-2.4117,-2.3941,-2.3816,-2.3552,-2.345,-2.3472,-2.3147,-2.3052,-2.3136,-2.2954,-2.2832,-2.2764,-2.2764,-2.2908,-2.3165,-2.3165,-2.2986,-2.2753,-2.2875,-2.2738,-2.2443,-2.2334,-2.2313,-2.2258,-2.201,-2.2358,-2.2862,-2.2552,-2.303,-2.3621,-2.3586,-2.4226,-2.4982,-2.5227,-2.5363,-2.5313,-2.4981,-2.4887,-2.4926,-2.4926,-2.4989,-2.5105,-2.5313,-2.5389,-2.5427,-2.5389,-2.5389,-2.5497,-2.567,-2.6877,-2.7778,-2.7891,-2.8732,-2.9287,-2.9287,-2.8982,-2.8747,-2.8747,-2.8747,-2.8747,-2.8747,-2.8747,-2.8747,-2.8747,-2.8684,-2.8414,-2.7864,-2.7799,-2.8082,-2.8746,-2.8879,-2.9557,-3.0814,-3.142,-3.2142,0.0,0.0,0.0,0.4988,0.5378,0.0,0.4648,0.4634,0.4627,0.402,0.3536,0.3324,0.3655,0.2998,0.2339,0.2115,0.1113,-0.0223,-0.1846,-0.2127,-0.2408,-0.3132,-0.5596,-0.8814,-1.2642,-1.6357,-2.0136,-2.4047,-2.4841,-2.5019,-2.4749,-2.4575,-2.451,-2.4545,-2.4211,-2.4077,-2.4134,-2.3738,-2.3437,-2.3236,-2.3028,-2.288,-2.278,-2.2563,-2.2554,-2.2695,-2.2181,-2.1969,-2.1998,-2.1794,-2.1907,-2.2231,-2.2231,-2.2062,-2.1774,-2.179,-2.1761,-2.1715,-2.1672,-2.1702,-2.1702,-2.1462,-2.1467,-2.1566,-2.115,-2.1544,-2.2226,-2.2679,-2.3328,-2.3897,-2.3948,-2.4382,-2.4768,-2.4752,-2.4486,-2.4313,-2.4461,-2.4256,-2.4105,-2.4245,-2.4639,-2.4839,-2.4574,-2.4799,-2.5211,-2.5782,-2.6592,-2.7354,-2.7894,-2.8326,-2.8621,-2.8621,-2.8541,-2.8508,-2.8508,-2.8508,-2.8508,-2.8508,-2.8508,-2.8508,-2.8508,-2.8008,-2.7715,-2.7565,-2.7144,-2.7261,-2.7881,-2.9042,-3.0041,-3.086,-3.0982,-3.1157,0.7617,0.7482,0.7393,0.7063,0.734,0.0,0.0,0.6147,0.6089,0.5446,0.507,0.4969,0.5237,0.4583,0.3819,0.3492,0.233,0.0834,-0.1004,-0.1789,-0.2408,-0.2912,-0.4524,-0.7826,-1.3502,-1.5725,-1.9169,-2.4866,-2.4987,-2.4746,-2.4559,-2.4337,-2.4192,-2.4136,-2.3702,-2.3441,-2.3392,-2.3052,-2.2788,-2.2643,-2.2449,-2.2341,-2.2341,-2.1969,-2.1869,-2.1969,-2.1493,-2.137,-2.1446,-2.1323,-2.1323,-2.1432,-2.1615,-2.1493,-2.1197,-2.1165,-2.1039,-2.091,-2.0943,-2.0959,-2.0959,-2.0795,-2.0761,-2.0728,-2.0376,-2.0609,-2.1082,-2.1735,-2.2259,-2.2717,-2.3173,-2.3566,-2.384,-2.3956,-2.3651,-2.3348,-2.3522,-2.3406,-2.329,-2.3523,-2.3952,-2.4287,-2.4177,-2.4343,-2.4684,-2.5366,-2.5797,-2.6443,-2.7488,-2.7727,-2.8008,-2.8348,-2.8122,-2.7959,-2.7959,-2.7695,-2.7545,-2.7545,-2.7545,-2.7545,-2.7545,-2.7261,-2.7004,-2.6707,-2.6676,-2.704,-2.7711,-2.9015,-2.9834,-3.0196,-3.0522,-3.0718,0.9987,0.9959,0.9813,0.9275,0.9327,0.9165,0.0,0.0,0.0,0.6668,0.6455,0.646,0.6567,0.6026,0.5433,0.4961,0.3646,0.2103,0.0609,-0.0723,-0.19,-0.2805,-0.417,-0.7425,-1.3421,-1.5308,-1.8597,-2.4568,-2.4697,-2.4474,-2.4319,-2.4098,-2.3881,-2.3649,-2.3177,-2.2795,-2.253,-2.2218,-2.204,-2.2005,-2.1761,-2.1748,-2.1878,-2.1323,-2.1119,-2.1166,-2.0731,-2.0682,-2.0862,-2.0716,-2.0583,-2.0613,-2.1087,-2.1023,-2.0648,-2.0601,-2.0351,-2.0074,-2.0128,-2.0147,-2.0162,-2.012,-2.008,-2.0045,-1.9919,-1.9925,-2.0106,-2.0618,-2.0956,-2.1375,-2.2124,-2.2446,-2.2589,-2.2907,-2.2649,-2.236,-2.2498,-2.2558,-2.2603,-2.2844,-2.3201,-2.3551,-2.3797,-2.3839,-2.4053,-2.4762,-2.4917,-2.5475,-2.6841,-2.7036,-2.7297,-2.791,-2.753,-2.7246,-2.7246,-2.6834,-2.6625,-2.6625,-2.6625,-2.6625,-2.6625,-2.652,-2.6215,-2.5674,-2.6245,-2.6858,-2.7558,-2.8635,-2.9272,-2.952,-3.0038,-3.0315,1.1868,1.1414,1.118,1.0655,1.0864,1.0973,1.0332,0.0,1.0332,1.0222,0.0,0.9541,0.9245,0.0,0.0,0.741,0.5645,0.4114,0.3575,0.1877,-0.0167,-0.2633,-0.8762,-1.3141,-1.3922,-1.9973,-2.4082,-2.4606,-2.4604,-2.4407,-2.3979,-2.3937,-2.3653,-2.3117,-2.2805,-2.2407,-2.19,-2.1469,-2.1274,-2.1289,-2.0926,-2.0878,-2.1118,-2.0503,-2.0286,-2.0369,-1.9611,-1.9591,-1.9989,-1.9273,-1.9251,-1.9732,-2.0545,-2.0444,-1.9818,-1.9854,-1.9603,-1.9236,-1.9236,-1.9295,-1.9339,-1.9317,-1.9317,-1.9317,-1.9281,-1.9258,-1.9176,-1.8893,-1.923,-1.9693,-1.9903,-2.0409,-2.1034,-2.1661,-2.1752,-2.1738,-2.1805,-2.1913,-2.1988,-2.2035,-2.2175,-2.2498,-2.3172,-2.3304,-2.3539,-2.4327,-2.4474,-2.4898,-2.6141,-2.6289,-2.6347,-2.6453,-2.64,-2.6347,-2.6347,-2.6279,-2.624,-2.624,-2.624,-2.624,-2.624,-2.5932,-2.5412,-2.4778,-2.5588,-2.6258,-2.6762,-2.753,-2.8436,-2.9529,-2.96,-2.9345,1.4095,1.4295,1.4422,1.3,1.3407,1.3838,1.2493,1.2229,1.222,1.2055,0.0,0.0,0.0,0.0,0.0,0.0,0.7295,0.5779,0.4126,0.287,0.0319,-0.4526,-0.7749,-1.1609,-1.6787,-2.1851,-2.471,-2.4492,-2.4118,-2.3728,-2.3343,-2.31,-2.2737,-2.2211,-2.172,-2.1332,-2.0989,-2.0634,-2.0548,-2.0731,-2.028,-2.023,-2.0436,-1.9768,-1.9483,-1.9534,-1.8962,-1.8916,-1.9118,-1.8793,-1.8793,-1.9043,-1.931,-1.9376,-1.931,-1.9087,-1.8898,-1.8745,-1.8745,-1.8769,-1.8793,-1.8921,-1.8898,-1.8745,-1.8563,-1.8553,-1.8489,-1.8161,-1.826,-1.8673,-1.9405,-1.9795,-2.0275,-2.1247,-2.1224,-2.1028,-2.1161,-2.1224,-2.1272,-2.1369,-2.1704,-2.1988,-2.2021,-2.2597,-2.334,-2.4056,-2.4189,-2.4615,-2.5912,-2.5809,-2.5755,-2.6187,-2.5918,-2.5769,-2.5769,-2.5453,-2.53,-2.53,-2.53,-2.53,-2.53,-2.509,-2.4878,-2.462,-2.5633,-2.6237,-2.6444,-2.7444,-2.8201,-2.8675,-2.8867,-2.8817,1.6478,1.691,1.7194,1.5338,1.5703,1.61,1.4519,1.4152,1.406,1.3807,1.3492,0.0,0.0,0.0,0.0,0.0,0.0,0.7687,0.5466,0.3346,-0.0145,-0.5929,-0.857,-1.2856,-2.0377,-2.3131,-2.436,-2.4062,-2.353,-2.3041,-2.2642,-2.2272,-2.1869,-2.1423,-2.0798,-2.0317,-1.9993,-1.9666,-1.9594,-1.9793,-1.9405,-1.939,-1.9611,-1.8821,-1.8454,-1.8416,-1.7973,-1.7827,-1.7987,-1.7867,-1.7933,-1.8118,-1.784,-1.7973,-1.8263,-1.8344,-1.8305,-1.8187,-1.8187,-1.8147,-1.8068,-1.8226,-1.8214,-1.8109,-1.7841,-1.7882,-1.7922,-1.7557,-1.7503,-1.7811,-1.8897,-1.9203,-1.9495,-2.07,-2.0646,-2.0409,-2.0497,-2.0446,-2.0396,-2.0497,-2.0756,-2.0944,-2.093,-2.1966,-2.297,-2.3506,-2.3689,-2.4176,-2.5356,-2.5119,-2.5063,-2.555,-2.5287,-2.5021,-2.5021,-2.4664,-2.4447,-2.4447,-2.4447,-2.4376,-2.4189,-2.4247,-2.4197,-2.4118,-2.5398,-2.6051,-2.6159,-2.7444,-2.8079,-2.8079,-2.8341,-2.8471,1.9014,1.8809,1.8715,1.7353,1.7196,1.7169,1.6443,1.6317,1.6203,1.5954,1.5979,1.5936,1.5417,0.0,0.0,0.0,0.0,0.0,0.0,0.342,-0.183,-0.5932,-1.3908,-2.0531,-2.4271,-2.4323,-2.3856,-2.3193,-2.2884,-2.2496,-2.1972,-2.1661,-2.1334,-2.0958,-2.0218,-1.954,-1.8954,-1.8493,-1.8246,-1.8285,-1.8106,-1.8198,-1.8405,-1.7504,-1.7063,-1.7034,-1.6213,-1.6114,-1.6434,-1.6027,-1.6188,-1.6621,-1.6225,-1.6139,-1.6361,-1.7558,-1.7747,-1.7434,-1.7434,-1.724,-1.696,-1.696,-1.7073,-1.724,-1.724,-1.738,-1.7435,-1.6951,-1.6909,-1.7179,-1.7877,-1.8131,-1.8528,-1.9598,-1.985,-1.985,-1.985,-1.954,-1.9226,-1.9291,-1.8898,-1.8947,-2.006,-2.1381,-2.2355,-2.2431,-2.29,-2.3433,-2.4092,-2.4171,-2.4171,-2.4171,-2.4171,-2.4112,-2.4112,-2.4112,-2.4112,-2.4112,-2.4112,-2.3793,-2.3148,-2.3255,-2.3205,-2.2871,-2.4507,-2.5461,-2.5813,-2.7367,-2.8079,-2.8079,-2.8079,-2.8145,2.0947,2.1465,2.1817,1.9902,1.9841,1.9906,1.8663,1.8002,1.773,1.7924,1.7777,1.763,1.7765,0.0,0.0,0.0,0.0,0.0,0.0,0.1603,-0.7359,-1.2705,-1.9342,-2.3791,-2.4582,-2.4068,-2.342,-2.2744,-2.2088,0.0,-2.0991,-2.0749,-2.0283,-1.9522,-1.9288,-1.8698,-1.772,-1.7545,-1.7342,-1.7085,-1.6777,-1.6663,-1.6793,-1.5823,-1.5496,-1.5652,-1.5297,-1.5151,-1.5217,-1.5353,-1.5342,-1.525,-1.4982,-1.5028,-1.5363,-1.6348,-1.6782,-1.6808,-1.6989,-1.7002,-1.6876,-1.6876,-1.6723,-1.6429,-1.6213,-1.6003,-1.5816,-1.582,-1.5837,-1.6068,-1.7039,-1.7343,-1.7615,-1.8348,-1.8898,-1.9186,-1.8738,-1.8857,-1.8922,-1.8536,-1.8417,-1.8569,-1.9306,-2.0164,-2.1027,-2.185,-2.2036,-2.2274,-2.2604,-2.298,-2.328,-2.3399,-2.3471,-2.3471,-2.3471,-2.304,-2.2798,-2.2798,-2.2798,-2.2665,-2.247,-2.247,-2.2603,-2.2831,-2.3737,-2.4472,-2.489,-2.5797,-2.6277,-2.6277,-2.6277,-2.662,2.2809,2.3301,2.36,2.188,2.177,2.1807,2.0798,2.0172,1.9835,2.0059,1.9911,1.9796,1.9957,0.0,0.0,0.0,0.0,0.0,0.0,-0.0356,-0.9892,-1.6219,-2.1822,-2.4793,-2.3836,-2.3097,-2.2331,-2.1501,-2.0719,-2.0005,-1.9424,-1.9375,-1.8948,-1.8051,-1.8013,-1.7464,-1.6341,-1.6182,-1.5898,-1.5433,-1.5171,-1.506,-1.5081,-1.438,-1.4182,-1.4435,-1.4193,-1.41,-1.4147,-1.4389,-1.4343,-1.41,-1.3971,-1.4029,-1.4332,-1.5196,-1.5664,-1.5864,-1.592,-1.5976,-1.5976,-1.5976,-1.5732,-1.541,-1.5186,-1.496,-1.4812,-1.5107,-1.5238,-1.5474,-1.6507,-1.6877,-1.7081,-1.7739,-1.8255,-1.8536,-1.8147,-1.8267,-1.8255,-1.7875,-1.779,-1.8059,-1.8782,-1.9211,-1.9893,-2.1129,-2.1459,-2.1616,-2.1753,-2.2101,-2.2396,-2.2531,-2.2604,-2.2604,-2.2604,-2.2163,-2.1928,-2.2051,-2.2051,-2.1928,-2.1741,-2.1741,-2.1863,-2.2132,-2.2963,-2.355,-2.4082,-2.4907,-2.5312,-2.53,-2.5016,-2.5264]}]]